GFSGL_prec_cthk_000.txt.gz
RH
68 68 67 66 58 50 49 51 53 62 61 65 68 66 69 72 83 88 94 97 96 95 92 90 86 85 85 83 80 79 79 78 75 71 75 73 71 70 67 66 68 67 67
72 72 63 54 56 53 61 67 68 67 67 62 65 70 78 84 91 95 97 96 94 91 88 85 81 76 70 67 68 71 75 73 70 68 70 66 61 62 62 63 61 60 60
67 66 61 60 66 64 60 62 68 65 64 66 72 80 88 94 98 97 95 94 94 92 89 86 80 74 70 69 69 68 69 69 66 63 61 60 57 56 55 55 55 54 52
74 65 53 55 55 52 57 61 63 68 74 77 83 88 89 85 87 90 92 92 89 85 81 76 72 69 69 68 66 63 59 55 54 55 53 51 50 50 50 50 50 50 49
65 59 50 47 49 54 55 56 60 62 63 67 66 65 65 64 64 61 65 70 75 74 71 69 67 66 58 54 52 49 47 46 46 51 52 49 47 49 51 50 50 50 48
54 43 44 47 50 54 58 59 58 60 62 58 53 47 41 40 38 35 35 40 48 53 59 59 55 54 52 46 43 39 38 38 41 46 46 44 44 48 53 54 54 53 50
42 42 47 53 55 56 59 61 61 59 51 39 35 36 38 40 38 37 36 37 39 44 47 50 49 47 45 46 45 43 39 39 41 45 50 54 59 67 71 69 68 65 62
45 46 53 55 57 61 64 66 61 45 36 36 37 40 45 51 47 46 44 45 49 50 50 51 50 48 46 45 46 45 46 51 55 62 66 72 75 79 80 80 79 77 75
48 53 58 61 66 69 75 62 43 38 35 41 49 53 56 57 55 51 48 50 55 57 56 54 52 49 49 50 51 54 57 63 72 77 80 82 87 91 94 94 90 89 82
49 54 57 64 71 78 56 39 40 41 46 52 59 62 62 64 69 64 61 61 59 58 57 58 56 56 54 57 60 65 71 79 84 89 88 90 95 96 95 95 97 96 96
52 58 64 73 80 55 41 41 45 49 53 57 61 68 76 80 79 76 72 73 72 66 65 65 63 60 63 70 75 78 82 86 85 84 85 86 89 95 99 99 99 99 98
62 65 69 79 61 44 42 44 49 54 57 65 76 82 86 85 83 81 79 85 85 76 71 71 72 77 83 84 85 87 89 84 83 84 86 89 92 92 93 95 98 98 98
67 67 76 70 46 44 46 50 53 57 63 73 80 85 87 91 91 95 97 90 82 81 84 91 96 94 92 95 97 91 85 86 86 86 86 90 95 96 96 94 96 95 96
70 76 79 50 42 41 46 52 57 61 66 76 81 86 94 97 93 96 99 94 95 99 99 99 98 98 98 98 95 88 86 82 80 81 84 85 87 89 94 95 94 96 98
75 83 55 41 43 45 50 54 58 63 65 71 77 90 95 90 86 99 99 99 99 98 99 99 98 98 99 97 88 84 80 76 76 77 80 81 82 82 83 83 86 91 93
84 62 43 41 45 51 56 58 61 62 64 64 79 90 86 80 93 99 99 99 98 98 99 98 98 98 99 96 92 87 80 75 73 75 77 79 79 77 75 69 68 73 76
66 42 41 41 50 55 56 62 66 67 65 70 87 81 78 84 98 98 98 98 98 98 98 98 98 98 99 99 96 92 87 81 77 76 75 75 75 72 71 68 73 75 81
44 36 39 45 52 56 61 63 66 64 67 78 88 78 86 92 96 97 98 98 98 98 98 98 98 98 90 88 92 92 89 86 80 77 76 74 72 69 69 72 74 76 78
42 43 42 45 51 56 63 65 67 66 65 74 85 83 93 92 94 96 98 99 98 98 98 98 94 79 69 65 65 73 78 80 81 79 74 74 73 72 69 67 70 73 75
45 45 43 48 54 57 65 69 70 68 64 69 76 80 91 94 92 93 97 98 99 95 93 89 79 73 66 59 54 50 48 51 58 67 72 72 72 72 72 70 69 67 69
45 46 44 53 56 58 65 72 73 70 64 63 67 74 85 93 93 92 95 92 87 81 79 76 76 68 66 62 61 57 52 50 47 44 50 64 68 68 71 72 71 72 73
46 46 49 57 58 60 65 72 75 73 68 64 62 66 79 90 94 96 96 90 80 76 70 69 67 65 65 59 53 54 52 50 48 43 46 48 52 59 64 67 67 70 74
46 48 54 61 59 60 64 73 77 75 71 69 66 63 68 83 91 95 97 93 86 78 72 70 67 65 65 62 59 54 49 45 43 40 39 43 44 45 48 51 52 53 57
48 51 57 61 60 62 65 74 79 77 75 70 69 67 62 70 83 92 95 97 95 86 79 73 72 71 69 66 63 58 54 48 44 41 39 38 41 43 44 44 45 45 46
49 53 60 59 61 64 70 76 77 75 73 71 69 70 68 61 66 78 90 94 96 94 86 81 77 73 71 68 66 64 61 57 52 46 43 41 40 40 41 47 46 45 44
52 57 57 60 61 66 69 71 73 71 70 69 70 71 71 67 61 65 78 82 87 88 89 88 84 80 78 74 73 71 69 65 60 56 50 47 45 43 42 42 42 49 47

GFSGL_prec_cthk_003.txt.gz
RH
77 81 79 77 75 77 76 75 65 57 53 52 47 50 57 62 68 75 80 87 92 94 96 94 91 90 86 83 81 83 85 90 82 79 85 85 84 85 86 88 83 84 83
83 83 81 79 76 69 71 60 54 47 45 46 50 58 67 78 84 92 92 90 93 95 96 96 94 94 91 88 85 81 79 79 81 75 81 84 85 84 81 82 79 79 77
78 76 79 73 62 53 43 40 43 48 51 54 58 67 73 83 88 85 85 87 89 90 90 91 91 91 88 86 86 86 87 85 84 81 79 77 77 76 76 75 74 72 68
72 66 57 48 42 39 42 46 51 51 54 58 62 65 67 65 59 60 55 50 49 60 68 72 74 77 77 76 75 77 81 80 78 74 69 67 65 63 64 64 63 63 62
61 54 47 38 39 41 46 48 50 53 58 59 59 60 54 51 51 44 39 35 35 40 42 48 51 56 57 57 63 63 64 65 64 65 62 61 65 64 65 66 64 63 63
59 52 45 44 45 49 50 50 54 57 59 60 54 52 51 49 50 42 42 42 42 41 45 47 50 53 56 54 51 50 50 52 56 55 51 53 53 56 57 55 58 57 56
59 57 56 55 56 56 57 57 63 70 64 54 53 51 53 56 57 50 48 49 50 49 53 57 57 55 54 52 51 51 54 49 47 44 43 40 42 42 47 52 53 57 57
64 60 63 62 64 62 64 66 72 64 57 54 53 55 54 59 65 61 62 63 64 68 68 67 63 59 58 58 55 52 48 46 47 48 47 45 49 54 60 64 67 68 67
71 72 73 65 71 72 70 75 69 60 60 53 54 57 59 66 73 74 72 71 74 74 74 73 72 63 54 50 51 50 49 49 54 56 57 59 65 73 79 83 82 83 79
70 59 58 66 75 79 77 79 64 61 58 52 53 59 64 71 78 78 78 76 77 75 78 80 74 67 64 59 56 56 55 58 67 71 75 80 87 86 88 90 93 93 93
71 65 73 78 81 80 83 70 59 57 57 54 54 58 68 80 85 88 88 91 95 93 91 87 80 71 69 66 63 62 70 77 79 83 88 87 85 86 87 91 93 96 95
80 79 86 85 81 85 68 61 58 57 56 56 58 59 75 88 94 94 92 99 98 92 88 85 81 77 78 79 81 85 86 85 87 88 86 86 88 91 93 94 96 96 97
84 88 88 83 88 67 54 55 57 57 56 58 58 62 81 91 90 91 94 99 99 99 99 98 99 98 97 95 93 90 91 90 88 86 86 86 85 86 89 92 94 95 94
80 84 84 90 71 46 56 58 58 54 56 60 55 68 84 88 84 91 98 99 99 99 99 99 99 99 99 99 98 94 90 86 82 81 82 82 82 83 86 88 89 92 95
83 87 86 76 55 48 50 56 53 57 57 57 52 70 76 77 86 94 98 98 99 99 99 99 99 98 99 99 95 91 85 78 78 79 79 82 82 82 82 80 76 73 74
87 82 80 54 44 43 53 54 55 57 57 53 53 67 72 82 89 94 98 98 99 98 99 99 99 99 99 99 96 88 80 77 76 78 78 80 82 81 79 74 70 72 74
80 77 56 49 47 47 51 53 59 63 60 56 54 63 72 84 87 92 97 98 98 98 99 99 99 98 97 99 97 94 88 83 79 78 78 77 77 75 71 68 69 74 78
72 60 50 52 49 46 51 53 59 63 66 64 58 60 70 83 85 89 95 98 99 99 98 99 95 80 76 77 84 90 89 85 83 80 78 76 75 72 70 67 67 70 73
60 52 51 51 47 46 54 55 60 65 68 67 63 59 63 79 85 87 91 96 98 99 99 96 84 75 67 59 55 60 64 69 78 81 78 76 76 74 71 68 66 67 70
63 50 52 51 48 51 58 56 61 66 69 68 67 60 53 71 83 87 88 92 93 91 89 88 79 73 71 68 64 62 59 55 54 61 73 73 74 75 74 72 69 69 68
58 48 51 52 51 57 61 59 60 66 69 67 68 64 53 57 74 83 88 89 87 85 82 79 80 77 72 64 60 58 54 52 50 47 50 59 69 70 71 71 72 73 72
52 47 51 54 57 61 63 62 63 68 71 70 65 64 62 57 61 76 85 90 88 78 73 74 76 72 70 70 66 61 56 53 51 47 44 45 48 51 56 59 61 62 65
53 49 52 56 60 64 63 62 67 71 72 69 64 62 63 63 60 63 77 86 91 87 77 74 72 70 69 67 65 61 56 50 43 42 44 45 44 44 46 48 48 47 49
55 55 55 58 62 64 64 66 67 69 69 68 65 63 62 63 64 65 63 76 87 92 86 83 79 77 74 72 68 66 63 59 54 49 45 51 49 47 45 47 48 49 46
57 58 57 61 62 64 67 68 67 67 68 68 68 67 66 65 66 67 69 68 76 88 87 88 87 84 80 77 74 72 70 67 62 57 54 54 48 47 50 51 47 53 49
60 59 60 59 60 64 68 69 69 68 69 70 71 70 68 67 67 69 71 74 72 73 82 82 83 84 85 84 82 80 78 76 72 67 63 59 54 51 48 52 47 53 53

GFSGL_prec_cthk_006.txt.gz
RH
66 67 72 73 70 69 65 51 42 36 27 27 32 36 42 49 55 62 74 79 82 84 90 96 97 98 98 98 98 95 89 86 78 71 74 83 86 90 92 93 94 94 91
67 68 69 68 65 58 48 42 35 31 33 40 46 45 48 54 58 66 69 71 71 75 82 84 83 85 89 93 95 96 94 91 87 78 71 69 75 83 86 89 91 91 93
64 65 61 59 52 50 44 43 39 39 45 47 47 48 48 49 49 49 50 48 46 45 42 39 39 56 59 64 64 74 83 89 89 86 82 76 70 71 74 80 85 88 87
60 63 55 56 47 42 43 40 44 47 47 46 51 55 54 54 52 51 47 44 41 38 33 29 34 44 55 65 63 59 59 69 76 74 72 70 67 64 62 62 65 72 75
67 70 55 48 47 44 45 47 50 49 50 55 57 54 54 54 54 50 44 45 49 49 45 43 42 43 47 54 56 61 57 48 51 58 62 65 64 65 69 77 79 78 74
59 53 51 67 83 76 79 69 57 58 60 64 60 56 53 53 55 53 51 59 63 66 64 60 56 53 54 63 64 59 55 51 44 47 49 54 59 61 64 68 71 71 71
46 55 60 78 86 85 73 63 70 67 69 73 59 58 57 58 60 56 57 67 73 73 69 68 68 71 76 75 71 63 60 54 53 53 55 50 48 46 49 52 54 58 61
47 62 71 72 73 86 61 71 76 78 82 61 57 60 61 59 60 62 64 74 79 78 77 75 74 72 76 80 72 62 59 58 55 52 52 45 50 48 49 46 46 46 46
48 48 75 73 90 77 72 76 82 87 62 56 58 62 58 56 53 64 79 85 88 87 90 94 93 83 76 78 70 61 54 50 49 50 51 52 54 54 53 54 54 62 64
48 52 76 82 95 89 74 80 90 66 54 57 55 52 55 52 63 84 91 92 90 91 95 94 91 90 90 86 77 70 63 59 57 53 55 57 61 66 72 78 84 84 83
56 54 72 87 96 76 79 87 68 51 55 51 51 54 51 57 77 88 89 88 93 95 97 95 90 87 83 79 75 70 65 61 61 64 68 72 75 81 85 84 85 88 90
52 62 69 73 76 77 88 80 48 50 51 54 55 53 52 65 81 82 87 94 97 98 99 99 99 99 96 90 87 84 81 80 80 81 83 86 89 87 87 89 90 92 93
54 65 70 75 83 88 84 44 44 50 52 55 56 52 47 65 73 84 88 94 98 99 99 99 99 99 99 99 97 90 88 88 90 91 89 88 88 86 85 86 86 87 90
64 73 80 85 87 81 49 43 47 50 52 56 56 50 48 62 76 85 91 97 98 98 99 99 99 99 99 99 99 99 98 95 90 88 85 84 83 83 82 81 82 82 83
70 75 77 81 78 56 44 44 46 50 53 57 57 54 49 60 78 85 91 97 98 98 99 99 98 98 98 99 98 94 90 86 84 82 82 81 81 81 80 79 76 70 66
72 73 77 69 56 50 50 45 45 51 54 56 57 55 50 58 77 85 91 97 99 99 99 98 98 98 98 99 94 88 85 83 80 79 79 78 79 79 78 74 71 70 73
75 75 64 55 55 55 51 44 46 53 55 57 58 56 53 51 73 82 89 95 98 99 99 99 98 86 82 91 98 92 88 85 82 80 78 76 76 75 72 69 67 70 74
79 69 57 51 50 51 49 46 51 54 55 61 61 59 58 50 61 77 85 92 96 99 99 99 92 78 69 65 64 70 78 87 87 83 79 78 77 74 72 69 68 70 71
73 70 57 49 49 52 50 50 56 56 57 62 66 64 59 54 53 66 80 87 87 88 91 95 85 79 76 73 68 66 65 59 71 81 80 78 78 76 75 72 69 68 69
71 68 60 51 50 52 52 55 59 57 60 64 66 63 58 55 55 56 69 81 83 80 80 82 88 82 75 70 64 63 60 56 55 58 69 75 73 75 77 76 76 74 72
74 67 56 51 51 54 56 61 60 61 63 64 65 61 58 56 56 58 58 69 81 75 74 74 78 76 74 72 67 60 56 51 50 49 49 54 60 67 70 70 70 70 71
66 61 55 54 55 57 60 62 62 64 65 63 62 61 58 56 57 56 60 62 68 80 76 74 74 73 72 72 70 66 59 52 47 44 47 47 46 48 51 53 53 54 56
63 61 57 57 61 61 63 61 66 67 65 64 62 61 63 63 60 60 60 62 66 68 77 80 81 79 78 75 73 70 67 64 58 51 48 48 49 47 48 47 48 47 46
65 64 61 59 62 64 60 62 68 68 64 62 62 62 64 66 64 61 61 62 65 67 69 78 86 88 85 81 78 75 74 71 67 63 58 57 53 49 50 50 49 52 50
69 65 60 56 59 59 60 64 67 67 65 65 64 63 64 65 64 63 63 65 65 67 69 71 77 83 87 89 88 86 83 81 77 72 67 62 59 56 53 53 50 54 54
74 69 59 56 55 58 63 67 65 66 67 65 63 61 63 65 65 65 63 64 67 69 73 78 81 86 88 88 87 86 84 83 82 79 75 71 67 63 59 56 54 54 54

GFSGL_prec_cthk_009.txt.gz
RH
54 53 50 49 48 52 50 43 39 34 32 31 32 34 39 44 43 42 42 42 43 45 50 57 61 72 75 79 88 93 93 93 91 76 79 75 74 76 83 92 95 97 98
39 38 42 47 56 54 51 45 39 42 40 43 37 40 40 46 47 46 46 49 47 46 48 46 44 41 36 37 46 55 77 81 79 76 78 79 77 80 78 82 90 96 97
44 46 50 53 57 64 62 54 67 73 72 66 50 44 47 50 48 49 50 48 47 48 50 51 50 47 39 34 42 44 47 54 56 61 69 77 79 83 82 80 82 89 93
40 43 43 43 57 70 61 76 84 94 80 61 60 47 56 52 51 47 45 45 51 54 52 53 55 58 59 54 50 49 47 51 51 53 50 56 67 77 81 77 65 77 84
35 33 37 55 58 64 84 83 98 91 70 71 71 55 67 48 48 49 53 54 54 51 52 58 63 65 69 71 70 65 58 57 51 46 47 44 46 55 64 68 61 63 70
34 32 30 43 56 66 74 95 87 82 71 81 65 65 48 51 54 60 60 56 54 59 67 69 70 72 73 76 79 77 75 71 63 58 50 44 42 49 55 58 64 67 64
32 30 37 46 48 60 69 91 94 90 81 79 66 47 53 59 63 62 55 52 68 78 81 80 78 84 82 76 76 80 81 79 72 63 60 53 47 51 53 55 56 62 68
27 27 33 40 43 52 77 91 97 86 79 68 48 47 57 59 56 49 50 72 83 88 88 83 86 89 95 93 86 77 75 75 72 64 58 50 49 45 50 54 58 60 57
30 33 38 44 48 57 79 99 88 72 71 55 43 52 51 52 50 46 66 79 83 86 87 92 92 93 90 90 91 87 79 75 66 57 53 51 51 50 55 56 55 54 47
41 45 49 48 56 62 62 74 72 77 61 44 48 50 53 51 48 53 73 79 82 87 92 95 97 99 99 89 88 88 82 76 68 65 60 54 51 50 57 59 58 58 58
44 50 50 55 64 71 77 82 84 67 46 46 48 53 53 49 45 59 70 78 84 92 96 98 98 98 99 99 90 83 76 72 68 63 59 57 58 60 63 66 66 68 74
46 49 52 63 73 80 87 91 78 46 38 45 49 51 51 47 44 60 75 84 93 97 98 98 99 99 98 99 99 89 87 79 76 74 74 75 76 78 80 85 87 86 86
49 51 57 67 73 81 87 83 50 41 41 46 49 51 48 48 44 65 79 86 97 98 98 99 99 99 99 99 99 92 88 88 88 86 86 88 90 91 90 90 89 89 88
51 55 62 69 75 74 66 56 47 43 42 48 51 51 51 49 44 62 80 88 96 97 98 98 98 99 99 99 99 99 99 96 95 94 94 93 92 89 88 88 85 85 82
58 60 65 69 66 53 50 51 49 45 44 52 52 54 52 50 47 57 76 86 94 98 98 98 98 98 98 97 95 94 94 92 91 90 88 86 85 83 82 81 79 73 67
63 64 66 65 57 49 51 55 51 46 48 54 53 54 54 51 50 50 73 84 92 98 98 98 98 84 81 82 91 94 91 88 87 86 85 82 81 80 77 74 71 69 71
68 70 68 59 54 48 48 51 47 46 54 54 54 57 56 52 52 49 63 78 85 91 97 98 92 78 74 72 72 65 80 91 88 84 82 79 78 75 72 69 69 68 70
71 74 69 59 57 49 48 50 50 51 53 55 58 59 59 56 53 51 55 67 75 76 83 93 88 80 78 75 72 72 65 63 86 87 80 78 77 75 71 69 68 68 70
73 76 68 60 58 51 49 51 53 57 57 59 61 60 59 58 55 51 55 55 67 70 72 79 87 86 76 72 68 66 66 63 61 75 83 81 80 78 77 74 70 68 66
78 76 66 62 58 51 52 53 57 58 61 62 61 60 59 58 58 54 54 57 58 63 65 70 74 78 77 76 69 61 57 50 49 57 60 71 77 77 76 76 74 74 73
77 67 63 60 59 51 54 57 60 59 63 64 61 58 57 57 59 60 57 56 59 60 61 66 71 72 73 75 74 69 59 54 48 46 50 49 53 57 65 68 67 65 64
66 61 63 60 57 56 57 60 59 60 65 62 60 58 56 57 58 61 61 58 58 58 62 61 68 76 79 80 78 75 72 66 57 52 51 49 48 48 49 49 48 48 49
63 58 61 60 58 55 55 59 57 62 65 62 60 57 54 55 58 61 62 61 59 61 59 61 65 71 84 86 83 81 78 75 70 65 59 56 50 48 50 51 50 49 47
64 64 66 63 55 54 54 54 58 64 64 63 60 58 55 55 58 61 62 62 60 59 61 61 64 66 71 85 89 90 90 88 83 78 71 67 62 58 54 53 55 55 51
76 76 73 68 59 54 55 58 60 62 63 65 63 60 55 55 59 62 63 62 62 61 60 63 69 75 78 82 89 90 89 88 87 85 82 78 71 66 62 60 57 56 53
84 83 80 75 66 60 57 57 59 63 65 67 68 64 58 57 60 64 67 68 67 66 64 64 68 77 85 89 94 98 93 90 89 87 84 81 77 73 71 67 64 61 59

GFSGL_prec_cthk_012.txt.gz
RH
48 40 34 36 39 40 40 47 59 57 59 64 71 70 66 68 61 50 48 39 41 44 46 49 52 53 52 48 43 46 54 62 78 78 83 80 79 85 84 76 71 76 90
40 36 39 44 45 44 48 49 55 72 82 78 87 80 72 66 64 56 43 47 43 43 44 46 49 50 45 42 42 38 33 32 42 48 65 74 74 78 82 81 75 73 82
33 32 34 35 35 36 45 59 68 75 81 88 74 81 75 72 74 57 45 42 45 49 52 51 50 47 42 42 43 44 44 42 42 43 42 47 62 65 68 79 80 74 77
35 35 36 35 32 36 46 56 65 71 73 72 84 82 79 80 63 51 49 48 49 51 51 50 49 52 55 56 59 59 58 57 55 54 48 47 51 44 46 60 71 77 76
37 37 34 28 26 32 36 39 47 57 65 79 90 90 80 61 55 55 51 48 49 44 45 59 67 68 67 70 76 76 75 74 71 69 62 57 52 44 40 41 60 65 69
36 33 28 27 29 31 30 37 49 68 82 94 92 80 62 56 57 53 48 45 42 45 63 68 71 71 72 79 83 83 87 85 82 82 76 69 60 52 48 41 46 60 60
33 29 25 29 33 34 35 44 58 80 90 86 79 76 56 54 53 49 46 44 43 61 67 73 74 81 86 86 89 91 90 89 84 82 80 75 67 57 53 46 43 52 57
28 25 29 32 38 37 43 51 56 85 82 81 78 62 54 52 47 44 44 40 55 67 76 81 85 92 95 96 97 94 92 97 91 80 75 73 65 54 51 47 43 48 54
28 32 35 38 40 42 51 63 69 73 77 83 67 54 48 45 45 44 39 40 61 74 82 89 96 96 98 100 98 94 90 93 92 83 80 74 63 56 54 52 48 52 54
35 36 38 41 46 50 59 67 76 86 88 78 56 44 46 46 45 42 38 48 67 77 89 93 96 98 99 99 99 98 88 91 89 80 73 67 60 55 54 49 48 54 55
32 38 43 45 50 57 64 73 83 88 88 59 47 45 46 46 44 42 39 55 71 83 90 93 96 98 99 98 99 98 90 85 79 76 70 64 58 53 52 51 51 55 56
33 41 43 48 53 60 69 79 80 73 57 51 46 43 48 45 44 43 41 59 75 87 93 95 97 98 99 99 99 99 90 88 81 78 74 71 69 67 67 67 67 69 71
32 41 50 55 58 65 72 69 58 55 52 48 43 46 48 46 45 43 44 58 77 90 95 97 98 98 99 99 99 99 97 89 88 85 81 80 79 79 78 78 79 82 83
40 50 57 58 60 63 61 57 49 52 51 45 44 51 49 48 46 44 45 53 79 90 96 97 98 96 96 97 98 99 99 99 96 93 91 91 90 91 92 91 91 90 89
48 58 64 64 64 60 53 55 53 51 49 45 50 52 52 51 49 48 48 49 71 83 94 97 95 78 78 67 79 93 95 95 96 96 95 94 93 92 91 89 87 84 77
52 62 67 72 70 59 52 54 54 51 49 49 54 56 55 53 50 50 50 50 55 67 80 95 85 78 75 75 71 70 88 91 89 88 87 86 86 84 83 79 74 70 71
57 63 71 76 72 63 57 53 51 50 51 55 55 58 56 53 51 49 48 51 48 54 65 82 87 80 78 76 75 67 62 82 92 89 88 86 83 80 76 72 72 70 69
58 65 73 77 69 62 60 53 51 51 53 55 58 60 57 53 52 52 49 51 53 46 52 65 80 83 80 75 70 67 66 55 68 91 85 83 81 77 74 71 68 67 68
61 69 77 76 67 63 59 53 53 55 57 57 61 60 56 54 53 54 54 52 53 54 48 50 63 72 77 78 75 65 58 51 53 66 84 85 83 80 77 74 72 69 66
66 73 74 65 63 64 62 59 57 59 58 60 63 60 57 53 53 54 56 56 54 55 56 50 50 61 69 74 77 74 67 56 49 52 58 61 77 83 80 78 77 75 74
71 74 67 62 63 64 64 62 58 60 57 62 64 61 58 53 52 53 55 56 56 55 56 58 56 54 60 72 78 78 75 73 60 55 50 48 47 53 56 58 64 67 66
75 74 67 63 63 63 60 59 58 57 56 64 64 62 58 53 51 53 55 57 58 58 55 54 54 57 59 66 77 82 81 79 76 68 58 55 50 47 49 49 46 46 44
85 77 67 66 70 64 59 57 59 58 58 64 64 63 60 55 52 53 55 56 58 59 59 54 53 57 59 58 64 76 87 90 89 84 75 67 59 53 49 50 49 51 49
88 78 75 74 73 69 64 58 58 59 60 62 64 66 65 59 54 53 55 59 62 63 62 60 57 57 63 68 69 72 78 87 89 89 88 82 74 68 62 57 55 54 52
87 82 80 82 84 83 76 66 63 63 62 62 64 68 70 65 60 58 56 58 62 65 66 65 62 60 61 69 78 82 86 87 90 90 89 86 82 78 72 67 64 61 58
88 87 87 89 93 94 89 80 70 68 65 65 66 70 73 73 69 65 63 62 64 67 69 70 67 63 63 68 75 84 88 92 96 98 98 97 90 83 78 75 73 70 68

GFSGL_prec_cthk_015.txt.gz
RH
51 43 37 33 36 34 34 35 42 52 62 65 65 67 74 79 78 78 69 68 52 44 45 51 51 47 45 45 45 44 42 45 44 36 35 48 60 65 79 86 85 77 70
46 42 39 36 34 32 30 32 42 44 43 47 56 61 67 74 73 75 75 62 48 46 51 54 53 50 47 44 41 37 37 40 45 42 39 34 36 43 62 72 78 77 71
44 42 40 36 30 26 25 25 26 28 31 45 53 55 60 72 81 77 61 50 53 53 55 54 49 43 40 48 55 56 57 60 63 60 49 42 46 44 40 47 53 62 69
43 41 36 30 27 28 31 30 27 32 45 50 59 70 79 84 78 65 51 54 54 54 52 46 42 49 60 60 60 61 67 72 74 75 73 70 62 57 50 38 35 37 46
41 37 32 28 28 30 31 30 28 36 51 66 65 76 81 77 74 53 54 53 51 47 44 42 52 62 70 72 74 78 82 81 84 86 84 84 81 74 64 53 40 33 30
41 36 30 30 32 34 34 28 33 40 50 55 75 78 77 79 65 52 49 46 45 43 41 47 63 70 76 85 92 94 96 95 92 92 92 94 89 83 76 65 50 39 32
39 34 32 37 38 36 34 31 36 43 54 70 73 73 77 75 50 43 44 44 42 40 42 62 71 81 89 93 96 99 99 99 98 90 91 96 90 90 83 70 56 45 38
36 34 38 38 34 35 35 38 45 52 60 69 78 84 81 55 43 41 41 39 39 39 55 71 83 89 94 95 97 98 98 96 97 89 91 97 87 83 80 70 59 45 38
35 35 34 34 34 34 38 45 51 59 67 76 81 86 62 47 41 42 39 38 39 41 67 82 90 94 95 98 98 98 98 96 92 91 91 93 94 82 79 72 61 51 43
31 32 35 34 33 37 43 49 57 67 76 81 80 60 50 44 42 43 40 40 40 46 74 89 93 95 98 98 99 99 98 94 89 90 95 85 79 77 74 66 57 50 46
32 32 32 34 38 42 46 55 63 70 68 61 57 53 47 44 46 43 41 41 43 52 76 89 94 97 98 99 99 99 99 91 89 83 84 86 80 72 63 55 52 47 43
29 29 34 41 46 50 52 60 65 63 62 55 54 49 47 47 48 44 42 44 46 51 75 89 95 97 99 98 98 99 99 94 89 82 80 76 75 72 69 65 62 60 58
28 32 42 48 54 56 58 62 61 55 55 57 51 47 49 51 51 47 43 44 45 48 69 89 94 91 82 71 86 98 99 98 91 88 87 81 80 78 78 76 74 73 72
31 36 46 53 61 62 65 66 60 54 57 57 50 48 52 54 54 47 43 44 45 41 56 86 92 76 76 74 71 90 95 98 99 96 91 89 88 88 88 87 86 84 83
35 42 49 57 65 67 69 65 59 57 57 56 51 51 56 57 55 48 45 44 46 41 41 70 82 76 74 77 74 67 86 94 93 96 97 97 97 96 95 94 93 93 92
38 47 56 61 68 73 75 66 60 58 57 54 52 57 58 59 53 49 44 44 47 45 38 46 72 82 79 77 74 69 61 85 93 91 90 90 89 89 88 86 84 80 75
44 53 58 65 72 77 74 68 64 57 57 55 56 59 60 59 53 50 47 45 48 50 45 39 49 68 80 80 76 70 65 55 84 90 89 88 86 84 82 80 76 76 76
51 59 64 68 75 75 67 64 65 57 58 60 61 61 62 59 53 49 48 48 48 50 51 46 42 48 62 76 79 74 61 57 55 77 91 86 84 81 78 75 75 75 74
57 63 70 72 76 71 68 63 65 63 59 61 62 61 63 59 53 49 49 49 49 49 51 52 49 47 48 61 74 78 75 67 54 56 66 88 90 85 81 76 74 72 71
62 69 78 78 74 68 68 65 66 65 59 60 58 62 64 60 53 49 48 49 50 50 50 50 54 54 52 51 57 72 78 76 72 61 50 49 57 77 86 82 81 79 76
67 74 85 82 71 68 67 66 65 61 58 58 55 61 64 61 56 50 48 48 49 50 51 50 49 49 50 52 57 62 73 80 80 76 68 55 45 42 46 52 56 61 68
71 78 89 90 75 74 73 68 63 61 60 61 57 61 64 64 61 54 51 48 49 51 52 52 49 49 50 52 54 56 62 70 85 88 83 75 64 53 44 44 42 42 44
73 80 91 91 77 74 77 75 68 64 61 62 60 61 63 65 66 62 56 52 51 52 52 54 54 52 49 51 55 59 62 66 69 81 89 88 81 73 62 52 48 46 46
75 83 90 90 85 81 83 85 80 72 67 65 63 63 64 66 68 69 64 60 57 56 56 56 57 58 55 52 55 60 67 73 73 74 82 89 88 83 77 72 65 55 50
76 82 88 89 87 87 90 95 95 88 78 71 69 68 66 67 70 71 73 71 66 63 62 62 61 61 59 55 56 59 64 72 77 80 85 90 95 89 84 79 75 71 67
75 80 86 90 91 91 93 96 98 99 96 84 79 74 73 72 73 74 74 76 76 72 69 68 67 65 61 57 57 60 65 71 79 85 89 92 96 95 91 88 82 81 78

GFSGL_prec_cthk_018.txt.gz
RH
65 56 50 47 42 38 32 26 23 23 24 31 36 45 49 51 57 54 62 72 69 62 47 43 44 46 48 49 47 45 43 47 46 37 38 33 33 36 36 41 64 70 73
60 56 52 45 39 32 28 27 26 24 24 31 37 43 49 54 62 66 72 69 65 45 47 47 47 50 46 40 38 44 55 60 62 58 50 47 47 45 50 46 41 58 64
60 55 49 43 37 30 28 28 27 27 27 32 41 46 52 56 64 74 73 72 55 47 48 48 47 42 38 40 53 60 65 67 72 80 70 66 60 58 57 58 46 40 41
57 52 47 40 33 31 30 30 31 29 29 33 45 51 57 63 73 76 75 69 48 46 48 46 41 40 41 57 66 73 78 83 90 93 88 88 83 77 73 70 67 51 42
53 50 45 36 33 33 33 33 32 30 32 38 44 55 63 72 74 75 77 56 42 43 43 38 38 39 62 73 80 84 89 92 96 95 97 96 93 90 85 86 83 72 54
53 47 39 35 36 35 33 33 32 34 37 41 49 60 68 72 77 83 60 42 41 41 37 36 36 51 70 84 88 94 98 98 98 98 97 96 93 93 95 94 90 85 69
50 40 35 36 35 34 34 32 33 39 43 48 55 61 71 79 83 63 46 40 40 39 37 38 41 66 80 85 90 96 98 98 99 98 98 98 97 93 89 96 97 90 79
41 35 34 33 34 33 30 32 37 42 49 54 62 70 76 76 57 47 41 39 40 38 38 40 54 76 86 91 96 97 97 98 99 98 97 92 91 93 97 92 92 86 76
35 33 35 34 30 29 31 36 39 47 54 63 69 72 64 53 49 43 42 42 40 39 40 44 63 83 91 96 97 97 98 98 96 91 90 95 95 92 99 92 84 81 74
36 36 32 30 30 31 36 41 46 53 59 63 61 56 54 50 45 44 44 43 40 39 42 46 68 87 94 96 98 98 98 98 91 87 85 92 95 89 88 87 79 82 75
36 30 28 28 32 38 43 48 52 57 62 60 55 55 52 46 45 46 48 45 41 40 41 44 66 89 90 87 76 89 98 98 97 88 82 83 90 90 84 76 71 68 64
31 28 26 28 36 43 48 52 56 60 62 59 54 54 51 48 47 52 50 45 42 40 38 44 61 85 74 74 71 78 97 98 98 90 85 80 79 80 79 76 70 65 62
30 27 27 31 41 47 53 57 63 66 63 59 59 55 52 49 52 55 52 43 42 41 38 38 54 69 74 76 80 73 82 97 98 98 91 88 83 79 79 75 72 71 69
28 28 30 36 44 52 57 62 66 65 61 60 59 59 54 52 58 58 50 42 41 44 40 38 42 63 73 75 78 77 66 93 96 97 99 93 89 88 88 84 81 79 78
29 31 34 41 49 55 61 68 74 69 62 60 59 58 54 56 61 58 50 43 40 43 43 41 39 45 69 76 73 72 70 69 97 95 94 98 99 96 92 89 89 89 88
32 34 41 47 55 60 66 74 75 62 57 57 58 59 58 61 62 57 49 44 41 42 45 42 42 39 45 70 78 73 64 63 76 97 93 91 91 93 96 97 96 95 93
36 42 48 54 61 68 72 75 66 63 60 60 60 62 61 63 62 57 49 44 42 40 45 46 44 45 41 47 66 78 75 65 62 73 95 91 88 85 83 81 81 81 81
43 50 53 58 66 74 77 75 69 67 64 62 63 62 60 62 63 58 50 44 44 41 42 46 48 47 48 47 48 63 76 78 68 62 65 89 89 85 82 79 77 78 77
47 52 59 65 72 81 81 73 72 69 69 68 61 61 59 59 63 61 53 46 44 43 41 41 43 47 48 50 50 50 58 74 79 74 59 54 70 83 85 80 77 75 73
51 57 63 69 76 85 79 68 70 73 70 66 63 63 60 59 62 64 59 50 47 44 44 42 42 42 43 44 48 54 57 62 76 83 80 66 50 49 63 76 80 75 70
51 58 67 71 80 86 79 73 74 72 66 66 64 66 64 61 61 64 66 58 51 48 47 46 46 43 43 43 43 44 49 55 58 71 87 86 77 53 43 42 47 50 61
55 62 65 73 81 88 80 76 79 80 74 68 66 68 65 62 62 62 65 67 61 55 53 51 51 50 48 46 45 47 48 52 57 59 67 84 88 83 70 48 43 40 41
61 64 66 75 82 87 84 78 80 86 87 78 71 68 70 64 61 62 63 67 70 67 62 58 56 55 54 51 47 48 52 55 61 64 63 67 80 87 84 79 66 50 46
68 69 69 74 80 85 85 85 84 88 94 94 87 78 74 72 69 67 67 67 69 74 73 68 64 62 60 57 52 48 51 55 60 65 70 72 76 83 88 85 81 75 67
74 75 74 75 80 86 90 91 91 92 95 98 98 97 86 80 78 73 74 73 71 72 77 79 76 72 68 64 60 51 52 56 60 65 72 76 80 83 85 90 88 84 81
80 80 82 84 86 90 93 90 88 89 94 95 98 98 98 97 90 84 81 77 76 74 77 82 85 85 80 72 67 57 53 58 63 69 74 81 85 88 89 89 94 92 89

GFSGL_prec_cthk_021.txt.gz
RH
68 65 54 56 56 49 39 31 30 28 26 24 25 30 37 41 48 50 53 54 60 66 65 60 42 41 44 50 49 46 43 47 51 42 53 53 50 52 50 47 40 40 41
66 59 58 56 51 42 33 34 33 30 27 25 26 31 37 42 50 51 53 65 73 70 69 51 42 44 48 46 44 44 53 65 70 65 67 69 71 69 64 60 54 59 52
62 58 56 53 47 37 39 37 34 29 27 28 30 34 41 52 55 55 60 73 71 76 69 44 41 45 43 40 42 54 69 78 83 81 74 81 82 80 82 81 74 65 64
59 57 56 51 42 42 40 38 32 29 28 30 33 37 42 50 62 65 71 75 79 72 43 40 41 39 39 41 51 71 80 85 89 92 88 87 90 92 93 91 89 84 75
59 58 55 46 44 41 39 34 30 29 31 33 36 38 45 57 66 72 75 79 68 44 39 39 38 36 37 45 67 80 86 90 94 96 93 92 93 95 97 97 98 96 88
59 58 50 45 39 37 34 31 29 30 32 36 40 45 53 59 67 73 76 57 44 40 39 39 36 37 45 59 76 86 90 95 97 98 97 98 96 98 99 99 99 99 95
61 55 47 40 37 35 33 29 29 31 33 38 44 49 59 66 69 63 48 43 41 39 41 38 39 43 49 68 82 90 95 98 99 99 97 92 90 97 97 97 98 99 95
58 46 40 39 36 33 29 30 32 32 35 42 48 55 61 61 55 48 42 41 40 43 40 39 42 45 55 75 86 91 95 98 99 99 91 90 90 92 95 94 92 92 94
47 43 41 38 34 29 32 34 35 35 41 47 53 55 54 50 49 43 42 40 46 43 40 43 43 48 59 79 86 78 71 94 98 98 88 83 86 94 96 95 99 99 95
45 44 41 36 30 30 33 37 36 40 45 51 56 58 53 52 47 44 43 47 47 42 41 39 40 50 62 71 73 72 73 91 96 97 87 81 84 94 95 95 96 94 94
47 44 37 32 30 29 33 37 41 45 49 55 60 58 54 54 48 46 46 51 47 43 39 35 39 47 53 69 76 78 78 84 96 97 92 81 80 88 93 92 90 85 87
46 38 32 29 29 31 36 40 46 50 55 60 62 59 57 55 50 47 53 52 44 41 40 37 35 43 49 62 75 77 76 75 97 96 98 89 82 81 84 88 86 83 78
38 33 30 31 31 35 38 45 50 55 61 64 62 58 58 55 50 50 56 51 43 40 41 38 36 37 43 56 74 74 72 69 95 96 98 99 89 85 82 82 79 76 73
36 34 33 35 34 38 41 48 54 60 67 66 57 54 56 55 53 57 57 51 43 39 40 40 39 37 37 42 63 75 68 67 83 97 95 99 99 91 89 87 84 81 80
37 35 37 36 38 40 46 52 59 65 72 63 56 55 57 57 57 60 59 52 43 39 38 41 41 42 43 43 46 65 73 68 75 94 97 94 96 98 96 90 89 89 88
37 39 39 38 39 45 50 56 64 69 68 61 59 56 60 61 59 61 60 53 44 41 38 39 41 43 45 47 47 49 67 74 68 74 97 96 91 91 97 99 98 93 90
41 42 38 41 45 50 54 62 70 73 67 65 64 61 63 61 58 58 61 56 47 43 39 37 39 41 44 45 48 47 49 66 77 71 65 92 95 88 85 87 92 99 99
42 39 40 44 49 54 59 67 77 75 71 69 66 65 61 61 58 58 61 62 53 47 43 39 37 38 39 42 45 50 51 53 64 80 72 57 64 90 88 83 83 84 85
40 41 47 50 54 56 62 72 80 70 69 69 65 63 63 63 61 60 61 65 62 53 49 45 42 40 38 37 38 40 46 53 56 65 83 80 61 50 65 84 83 81 81
42 47 50 51 56 59 67 76 82 72 71 72 68 64 66 67 63 62 61 62 64 63 56 51 48 46 43 41 38 38 39 41 47 53 60 81 87 72 49 47 62 66 69
47 49 51 56 57 61 69 78 83 72 74 77 73 69 68 68 68 64 61 61 61 66 66 61 57 53 50 47 44 40 41 42 44 49 53 58 75 88 82 56 42 44 53
53 53 55 58 60 64 70 78 83 74 73 80 86 81 75 71 70 69 66 62 61 63 70 71 68 63 59 55 52 46 42 44 47 50 52 55 59 71 85 84 72 47 39
58 57 60 63 67 70 72 79 85 84 82 82 88 94 93 81 74 74 71 68 68 67 68 71 75 75 71 65 60 55 46 44 46 50 53 57 62 65 70 83 85 79 63
61 63 64 69 74 78 78 79 86 91 92 89 88 92 95 97 94 82 78 78 75 73 72 71 74 79 81 78 71 64 57 48 47 50 54 59 63 67 69 69 81 86 83
62 68 70 73 80 85 87 89 90 93 87 84 83 83 87 92 96 98 95 86 85 81 78 75 74 78 83 87 84 75 66 55 51 51 55 61 66 70 71 73 74 81 87
67 73 76 78 82 85 88 90 88 80 75 73 71 70 74 80 87 95 97 96 95 89 86 81 78 79 84 88 91 86 76 65 57 55 55 60 66 72 77 78 78 80 82

GFSGL_prec_cthk_024.txt.gz
RH
76 73 62 62 58 55 49 43 42 40 39 35 32 29 35 42 44 43 47 57 56 58 68 72 74 78 73 53 54 58 57 56 53 42 59 65 67 66 66 67 64 61 57
79 60 63 59 59 52 48 45 48 46 42 35 33 37 37 39 41 52 55 53 60 67 72 76 82 70 51 52 54 51 49 51 58 62 71 73 75 76 76 74 71 70 72
61 63 61 59 55 48 50 54 51 47 39 34 39 40 38 40 36 43 60 63 69 74 78 81 66 46 46 48 46 46 50 57 73 78 77 83 84 85 82 83 83 82 78
65 62 60 57 52 47 51 50 50 44 37 40 41 38 37 39 45 50 59 68 74 76 72 50 41 42 43 42 40 47 54 71 82 84 85 87 89 89 88 87 84 87 90
64 61 58 56 49 51 50 50 48 39 39 41 40 41 42 43 46 53 65 69 69 57 42 42 41 43 39 39 44 52 67 80 86 88 90 92 93 93 88 86 85 88 92
58 60 58 51 53 53 52 47 40 39 41 39 40 43 43 45 48 56 61 58 48 40 41 40 45 43 43 41 46 59 76 85 88 91 93 94 95 88 84 85 88 95 95
63 62 58 56 55 54 49 40 41 42 37 38 42 43 47 50 50 53 49 44 40 42 42 46 44 43 45 48 54 68 82 80 75 83 94 97 94 84 84 88 89 93 98
66 65 59 58 56 51 45 40 43 42 40 40 47 46 49 49 49 46 44 40 42 44 49 46 43 43 47 49 57 69 78 84 78 90 97 97 90 80 84 91 94 95 92
70 62 59 58 55 46 40 40 43 44 41 42 49 52 54 54 48 47 44 42 47 51 49 45 42 41 45 48 51 71 82 81 81 94 95 93 82 75 85 92 94 94 96
65 58 57 57 49 42 40 40 40 44 41 44 51 55 58 57 49 49 45 45 49 53 47 43 41 40 39 50 51 65 82 81 77 95 95 96 87 78 87 92 95 97 98
58 60 56 50 44 41 39 39 42 42 44 48 49 58 60 56 52 51 48 46 54 51 46 43 43 37 35 41 48 65 73 73 72 96 96 95 95 80 83 91 93 95 93
62 55 50 46 42 41 41 42 43 42 48 52 57 62 59 53 50 50 48 49 52 45 43 43 39 35 35 36 44 53 70 72 76 96 98 95 99 89 82 85 89 89 89
55 49 48 46 44 42 39 40 42 48 52 58 65 66 60 56 54 51 51 54 51 44 38 36 37 36 37 39 43 43 64 78 76 92 99 96 98 98 88 82 82 83 84
49 50 48 45 43 41 42 41 43 52 57 63 69 63 60 60 60 58 57 58 55 47 43 38 36 37 39 43 49 51 54 69 77 82 98 98 94 99 99 91 87 83 81
54 51 48 45 42 46 47 42 47 54 61 68 68 63 60 57 60 62 58 58 57 49 42 38 42 42 44 46 50 53 53 55 76 76 87 99 97 93 98 99 94 90 89
47 47 47 43 45 44 43 45 50 57 63 69 64 61 59 58 61 59 56 55 56 50 46 45 43 42 42 43 46 50 55 54 53 78 73 80 99 96 91 96 99 97 93
47 44 45 45 46 44 44 51 55 59 66 74 67 65 63 61 59 59 57 56 58 57 53 51 47 45 43 42 41 44 48 54 52 56 83 75 66 94 96 88 90 99 98
47 46 46 46 43 46 52 54 58 64 72 76 70 67 64 60 59 60 61 60 59 61 60 57 52 50 47 45 42 40 39 41 50 53 60 80 84 63 80 95 88 88 91
50 49 45 42 45 49 52 56 59 66 75 80 71 69 65 63 62 62 64 62 62 62 68 69 61 57 54 50 47 43 36 36 38 44 53 59 77 91 68 64 83 82 84
51 45 44 48 51 54 59 62 62 69 78 82 71 72 71 68 66 66 67 67 64 64 62 66 69 66 62 58 54 50 45 41 42 44 47 50 60 73 95 79 56 71 78
54 51 50 54 56 59 62 67 68 72 80 82 73 74 79 78 74 71 71 70 67 66 65 64 68 73 73 68 63 58 54 45 42 42 45 47 49 61 70 93 89 58 53
55 55 55 59 60 62 67 72 76 77 82 86 81 79 83 89 89 83 76 75 73 70 69 69 68 71 77 78 75 69 62 54 46 44 45 46 51 58 63 70 89 90 73
55 57 58 61 65 66 70 76 82 85 84 88 93 92 91 85 87 91 94 88 81 79 75 70 69 70 73 75 78 78 71 63 53 46 45 46 51 57 61 65 71 87 87
56 52 52 57 62 70 75 78 85 90 93 92 94 95 87 84 82 81 85 92 96 89 84 80 77 73 71 75 79 83 82 73 62 51 47 47 49 56 62 66 69 70 82
53 54 58 61 66 75 81 81 85 90 95 94 92 81 78 76 74 74 76 82 91 97 98 90 88 82 77 76 79 84 86 81 70 60 54 50 49 52 58 64 67 73 75
61 61 66 71 75 79 84 84 85 86 87 86 77 70 69 66 64 65 67 68 75 86 96 96 96 93 88 82 81 85 90 88 83 72 62 57 53 52 56 62 68 73 78

GFSGL_prec_cthk_030.txt.gz
RH
51 55 59 63 71 67 68 68 64 53 48 48 55 58 55 56 56 53 50 40 38 40 38 45 61 65 67 68 69 70 63 49 46 41 41 39 37 37 38 49 53 52 51
53 59 63 67 77 67 63 76 75 63 57 57 64 63 57 56 57 55 46 49 46 48 46 53 61 64 61 64 60 42 37 39 42 42 40 37 40 43 54 58 60 62 63
57 63 70 73 73 82 67 74 69 59 56 69 67 61 58 61 61 54 54 52 51 47 49 49 50 52 52 42 36 37 37 39 41 40 37 38 46 57 61 61 64 69 73
61 71 73 74 88 71 74 75 60 57 67 70 67 60 62 65 64 56 56 51 44 47 48 47 47 41 37 37 38 38 40 40 38 39 42 46 54 63 68 67 72 76 74
68 75 78 82 72 89 76 71 64 66 66 70 65 65 69 64 62 54 58 49 43 44 42 44 42 39 38 38 40 43 41 39 40 43 47 53 65 68 70 79 84 78 73
74 79 74 87 86 79 74 69 60 69 80 72 70 66 64 64 58 56 55 46 40 37 37 42 40 40 44 46 46 42 41 40 43 51 56 67 74 78 83 87 83 80 66
78 80 84 80 86 78 77 67 75 80 72 64 67 69 69 64 58 56 53 47 40 38 42 42 40 44 45 47 43 39 33 39 48 53 62 72 75 77 83 79 76 73 62
80 79 81 84 85 86 71 76 77 68 68 72 72 66 64 67 56 53 51 51 47 42 46 42 42 46 46 42 37 31 30 35 45 55 63 67 70 83 83 79 78 63 71
79 85 88 89 88 76 77 74 70 71 67 65 68 69 63 63 54 48 52 55 51 43 44 43 43 50 44 42 36 30 30 34 43 49 52 63 79 87 87 86 82 72 77
84 87 87 91 81 83 75 77 73 68 70 71 70 69 66 56 52 53 56 56 48 46 46 46 45 50 45 40 33 30 29 34 37 45 54 71 84 90 88 88 85 74 85
92 92 88 92 83 82 81 72 70 68 70 67 64 55 52 51 50 56 60 55 49 51 47 44 51 48 42 36 32 31 32 35 41 47 53 68 86 89 86 86 89 78 80
94 95 88 82 83 78 73 72 71 66 62 59 53 47 46 53 54 55 62 55 55 53 49 48 52 44 39 36 34 34 36 37 42 45 53 62 84 91 88 85 90 84 81
91 84 84 80 77 73 73 69 59 53 47 44 42 44 47 53 58 59 63 65 61 57 55 53 50 45 42 41 39 37 36 36 39 43 50 59 69 92 91 88 87 92 86
87 83 78 74 70 65 54 50 50 49 45 43 42 46 53 60 66 68 68 65 65 60 60 56 53 49 49 48 45 43 41 38 38 40 45 53 64 72 92 92 87 90 91
72 66 61 57 50 44 43 43 41 43 46 45 49 53 58 63 70 81 73 65 64 64 63 61 58 54 54 54 52 49 44 40 38 36 39 46 56 68 72 94 95 90 94
59 53 47 41 41 44 42 37 38 40 45 48 55 60 62 65 71 79 76 72 66 65 64 62 60 58 58 57 56 55 51 47 40 37 36 40 47 56 70 75 94 93 91
47 42 40 42 40 42 43 43 41 40 47 52 56 63 69 72 78 76 74 76 69 65 62 64 62 61 62 61 62 63 60 55 49 42 40 38 41 48 56 75 75 94 91
36 35 38 42 46 48 49 48 47 47 46 51 58 61 67 76 83 82 76 79 72 66 64 64 65 62 61 65 64 70 68 64 58 52 45 40 40 43 49 58 80 75 87
38 42 46 49 50 50 51 50 53 54 54 55 60 64 68 78 84 89 83 82 77 71 68 68 68 68 69 70 69 67 72 74 70 61 53 44 41 41 45 52 59 85 76
47 49 54 58 58 57 57 58 58 61 61 60 60 66 73 79 85 90 88 85 88 84 77 74 76 76 76 75 74 71 70 75 77 74 65 53 44 42 43 47 53 59 86
51 58 58 60 62 60 62 63 63 63 63 65 62 64 76 82 89 92 94 86 90 95 94 89 80 77 80 80 76 73 71 72 76 80 77 65 53 44 44 44 49 54 59
48 49 52 59 63 65 63 62 56 54 60 67 68 71 79 84 89 95 98 98 97 95 89 88 86 89 88 86 82 78 74 72 74 80 83 76 61 49 47 45 45 50 55
43 46 50 55 61 63 71 70 63 63 62 69 74 77 84 87 90 94 98 98 98 98 90 87 85 85 90 94 96 90 83 80 77 78 82 82 72 56 53 48 46 46 51
27 30 34 39 44 75 89 86 70 65 65 73 78 82 87 89 93 94 99 99 99 96 86 84 83 86 85 87 92 98 97 92 86 80 80 83 79 70 59 55 50 48 48
22 25 33 37 44 69 79 79 68 75 74 81 83 87 90 91 94 94 98 98 95 81 76 73 73 75 77 80 83 89 97 99 97 87 82 85 85 79 69 60 55 52 50
33 40 44 48 49 51 65 72 77 82 82 82 85 88 90 94 94 91 90 87 82 75 71 70 75 76 75 74 74 81 86 97 99 98 88 87 90 85 78 69 64 59 55

GFSGL_prec_cthk_033.txt.gz
RH
51 54 57 65 66 69 73 72 78 80 86 64 56 59 63 58 55 60 58 56 54 50 52 51 51 51 53 61 66 64 68 57 41 32 32 33 34 33 30 31 36 41 45
55 56 61 69 71 72 78 76 80 85 81 70 64 62 63 65 61 62 59 62 61 58 56 57 54 53 49 52 51 45 36 32 33 31 32 33 31 32 36 38 42 46 48
59 59 62 71 74 77 77 84 78 78 75 72 63 62 73 72 68 68 65 68 66 61 57 53 49 44 41 36 31 31 34 33 33 37 34 31 34 37 41 45 51 53 56
59 60 66 73 76 81 81 82 75 83 84 72 61 70 80 71 68 73 67 71 68 62 54 52 42 39 37 36 35 34 35 36 37 34 32 34 39 45 52 56 57 60 62
74 71 73 73 80 83 79 78 86 84 79 65 77 78 64 74 78 71 69 76 71 59 49 43 39 36 37 35 33 35 39 39 36 32 35 39 43 50 58 61 62 64 65
72 78 80 77 84 84 81 91 91 82 76 83 74 78 80 78 75 75 74 74 65 53 43 37 38 39 38 36 36 40 43 39 32 31 38 43 48 58 61 63 71 68 61
82 84 82 85 88 88 90 94 87 81 84 79 85 83 77 79 82 72 73 66 56 52 50 42 41 42 39 39 42 43 38 33 30 34 41 48 50 58 62 72 74 72 69
82 80 85 89 92 93 95 90 86 86 84 84 80 78 78 76 73 69 59 57 55 54 56 45 44 45 43 42 44 40 34 31 30 34 43 45 47 54 72 82 81 75 70
78 85 88 92 93 92 91 88 90 86 82 78 76 75 74 71 63 57 54 55 59 60 59 46 47 47 45 45 43 38 32 31 31 34 39 45 51 63 80 87 84 78 70
86 88 92 94 94 95 93 88 85 82 76 71 71 69 58 55 53 51 50 55 60 64 55 49 51 50 47 48 40 36 33 32 32 34 37 43 52 65 82 88 84 79 74
89 96 97 95 92 89 88 84 77 70 64 59 52 49 50 46 49 49 53 57 62 60 54 55 54 52 50 45 40 39 38 36 35 35 37 40 49 60 81 88 87 83 82
93 94 91 89 87 78 71 67 63 58 55 48 45 42 41 42 45 50 57 60 64 61 61 60 59 56 50 46 43 44 43 39 37 35 37 40 47 55 69 89 89 86 87
87 84 80 70 62 54 57 58 52 48 46 43 41 43 45 46 49 52 60 65 71 72 68 65 62 59 53 50 48 49 49 44 40 36 36 38 42 51 57 78 91 89 85
64 55 46 43 45 44 48 42 38 37 38 40 43 46 46 48 53 57 62 66 73 75 72 66 62 62 60 55 53 52 54 51 47 42 38 37 38 44 54 61 86 92 86
39 34 30 30 29 28 32 34 38 43 46 46 46 50 52 54 59 62 66 69 75 79 76 69 64 64 62 59 58 57 58 58 55 51 44 40 36 38 45 55 71 82 93
25 23 23 25 29 33 36 40 46 48 46 47 48 52 55 60 64 69 69 71 74 74 77 74 68 65 65 61 60 60 61 64 62 60 53 44 39 37 40 48 61 75 87
20 23 26 30 36 41 46 47 45 45 47 47 49 52 57 60 67 70 76 79 82 78 76 72 65 64 64 63 60 62 61 66 69 69 63 50 43 39 39 44 51 71 75
27 29 33 39 45 49 51 53 57 55 49 44 52 55 55 62 67 72 77 83 86 80 81 74 68 67 67 65 63 65 64 63 71 75 72 60 50 42 39 41 47 54 82
35 40 45 50 53 56 62 66 70 66 58 53 48 51 59 60 61 71 78 85 87 88 85 83 76 73 72 71 69 71 71 70 70 73 77 74 60 52 43 41 43 50 58
45 50 55 56 55 56 57 60 63 70 64 59 50 47 56 64 61 69 79 86 91 94 87 92 90 82 74 73 76 77 77 74 73 73 74 80 75 60 49 42 42 44 52
45 46 44 45 45 44 50 55 65 67 69 63 64 63 60 66 67 73 81 86 91 94 93 94 96 96 88 80 77 80 80 80 76 73 70 77 80 70 56 47 43 43 47
36 35 30 26 23 29 39 48 62 62 63 81 80 74 70 67 74 79 85 86 92 95 98 98 98 97 89 89 87 87 87 89 84 79 74 74 81 78 67 54 49 44 45
30 26 26 25 23 21 22 27 31 37 83 87 80 77 70 71 80 84 88 92 94 94 98 99 97 97 90 86 88 89 89 95 96 91 83 79 79 83 77 65 56 50 47
28 28 27 31 32 37 38 35 36 72 88 83 83 83 82 77 85 89 90 95 95 95 98 99 99 98 89 83 84 84 84 87 94 99 96 87 81 84 83 76 64 57 52
27 27 28 29 38 44 43 44 46 55 76 79 80 82 79 84 85 88 92 96 96 96 98 99 98 89 79 73 76 78 79 82 82 89 98 98 88 84 86 82 74 64 58
26 28 32 35 38 42 47 55 62 68 77 83 86 84 85 85 81 85 90 95 92 91 90 87 82 77 75 74 80 78 77 79 82 83 89 96 96 89 86 87 83 75 68

GFSGL_prec_cthk_039.txt.gz
RH
44 49 54 64 73 77 80 77 80 77 86 81 77 78 83 81 81 80 75 77 82 75 73 76 72 74 73 66 66 68 64 58 48 32 29 29 25 24 24 25 27 28 28
55 63 69 76 82 81 80 77 81 82 86 84 90 92 90 87 84 80 84 86 80 76 76 79 81 78 73 69 66 60 54 45 39 32 28 27 26 27 26 27 28 30 31
73 78 79 80 86 87 88 91 89 84 81 84 93 92 91 90 84 88 90 82 78 80 82 83 82 79 70 63 55 47 42 41 40 35 32 31 29 29 26 27 30 31 30
76 75 76 87 87 85 89 92 86 87 96 94 92 94 90 86 88 87 83 80 81 80 78 79 71 65 54 48 44 43 42 41 41 39 37 33 31 27 28 31 28 33 31
75 83 75 86 85 90 91 85 92 84 88 89 93 94 93 93 93 85 82 77 64 63 67 62 53 45 45 47 49 47 44 44 42 42 39 34 31 29 31 32 33 32 37
58 67 73 85 90 93 87 82 83 89 92 94 96 95 97 94 85 66 57 54 49 50 50 47 50 48 49 53 54 49 45 46 45 43 40 35 32 33 32 32 37 41 46
60 70 77 85 88 82 82 83 91 91 96 98 97 93 84 64 56 46 38 32 35 40 47 49 51 49 52 57 60 51 50 49 46 44 39 36 35 35 33 32 38 48 59
64 70 75 76 76 80 86 90 89 89 92 92 85 63 54 41 29 23 24 31 38 41 46 49 53 53 54 59 61 53 55 52 48 44 38 40 39 36 35 35 38 47 60
64 68 72 78 84 90 98 97 93 94 82 63 52 40 29 21 20 22 28 34 39 41 46 51 53 53 57 57 52 57 58 55 49 42 42 44 43 41 39 37 36 41 55
66 73 82 87 97 98 92 92 83 67 55 42 31 24 21 21 24 27 32 36 38 41 47 49 52 55 57 57 56 60 59 57 50 47 46 46 47 45 43 43 40 39 48
75 82 88 90 92 91 86 76 62 47 37 27 22 21 22 25 29 33 39 40 41 44 48 53 55 61 63 68 63 62 61 56 52 52 49 48 49 48 46 44 43 43 42
81 85 85 84 81 75 61 48 40 31 25 22 21 20 24 29 34 39 43 42 44 48 50 55 59 65 69 74 71 67 63 59 54 55 55 53 53 52 51 45 42 40 47
81 80 77 70 57 46 37 29 26 24 22 21 22 24 27 34 41 45 44 45 49 50 53 58 65 70 73 81 82 75 68 67 60 58 58 58 59 58 56 49 41 40 44
69 63 54 45 35 28 24 22 20 20 23 25 28 32 37 42 49 52 50 51 51 53 54 62 68 75 80 83 83 82 75 73 67 60 59 60 63 67 61 52 43 39 38
56 47 38 28 21 19 19 22 24 27 32 36 40 47 51 49 53 58 55 54 53 52 59 64 71 78 82 85 83 82 78 73 70 61 60 62 65 71 68 54 49 42 41
36 32 26 22 21 22 23 24 29 35 41 48 53 61 61 62 60 71 68 63 59 55 59 63 71 81 87 89 87 83 78 71 71 65 62 64 66 73 75 59 53 46 41
33 26 23 23 25 28 32 37 36 31 40 42 47 54 57 58 54 80 72 69 67 59 55 59 68 80 88 91 90 85 76 72 72 69 65 67 68 74 76 69 56 48 42
29 27 27 27 27 26 26 27 26 27 26 22 23 25 29 33 47 49 69 77 66 61 65 62 66 77 87 93 94 91 78 74 74 70 68 71 71 74 77 77 63 51 43
21 20 21 21 21 22 22 22 23 24 24 24 22 19 18 20 38 52 76 80 70 66 81 73 65 79 89 93 95 95 87 79 78 73 70 72 74 76 76 77 72 57 47
23 23 23 22 22 23 23 24 25 26 27 27 26 24 22 23 27 64 79 77 69 76 75 74 70 79 91 95 96 98 94 86 82 76 76 76 79 79 77 76 76 66 53
24 23 22 21 22 24 24 25 26 28 29 28 29 30 33 39 34 33 55 66 72 82 79 82 79 83 93 97 97 99 98 94 89 84 79 81 84 83 81 78 77 73 62
23 21 21 22 22 22 22 23 25 30 35 34 33 35 35 47 54 51 57 68 80 85 85 84 85 86 97 98 98 99 99 98 98 96 89 88 88 87 85 82 81 77 71
24 23 23 23 22 22 22 24 26 29 33 42 46 47 48 58 68 72 79 82 87 89 90 87 86 87 97 99 99 99 99 98 98 99 97 94 95 93 90 87 84 84 77
24 25 23 24 24 25 26 27 30 33 37 39 44 54 58 67 74 81 88 88 90 90 89 87 84 89 96 98 97 97 99 99 99 98 99 95 93 93 95 95 90 87 82
25 24 25 27 28 29 30 32 34 37 38 39 42 46 58 68 76 85 90 91 91 93 92 88 82 81 93 99 99 99 98 98 97 97 94 93 91 89 90 93 93 90 87
25 27 29 30 31 32 34 36 39 41 42 45 48 50 53 62 79 87 90 96 94 96 96 93 85 81 86 94 98 97 98 98 99 95 92 87 92 92 90 89 92 91 89

GFSGL_prec_cthk_045.txt.gz
RH
41 48 56 63 69 74 82 88 90 92 91 95 97 96 95 95 96 91 92 97 94 92 86 82 74 69 55 39 34 32 36 36 36 36 36 37 35 33 32 30 27 25 24
54 61 69 74 80 84 84 87 91 91 94 97 96 93 97 95 96 92 94 98 94 91 86 77 73 61 41 35 35 36 37 39 40 39 44 40 37 35 33 31 29 27 27
62 69 73 73 73 80 86 89 91 91 90 85 86 88 98 95 95 92 96 95 92 90 86 76 59 39 34 36 37 38 40 40 41 44 44 45 39 39 38 35 32 30 31
54 52 50 51 64 81 85 82 82 82 82 88 88 90 92 92 95 96 98 97 94 86 80 55 36 31 32 37 40 42 45 46 48 49 49 48 43 44 41 36 37 36 36
47 48 52 59 57 65 64 60 65 71 74 79 88 81 86 92 95 98 97 94 90 77 53 36 27 27 33 39 42 47 51 54 54 53 54 52 46 49 43 41 39 38 40
37 40 46 51 53 53 55 58 66 72 79 82 84 83 89 95 97 97 95 86 73 50 35 23 23 28 34 42 46 51 58 60 58 58 58 48 49 52 46 45 42 43 43
33 38 43 49 53 56 59 61 67 69 82 80 90 96 98 98 97 92 82 68 51 29 19 21 26 32 39 45 50 58 65 65 61 58 51 51 54 55 49 49 46 46 48
37 43 49 53 56 58 62 66 71 79 86 88 93 96 95 89 80 70 54 38 26 22 21 24 29 35 42 49 56 63 67 63 58 54 52 54 57 54 49 51 50 48 51
42 45 48 52 55 59 67 73 79 85 88 91 89 84 75 64 53 41 33 27 24 23 25 29 34 41 48 54 60 62 58 60 60 59 57 57 60 55 50 53 53 52 52
45 49 51 56 61 65 70 74 79 81 81 76 68 59 48 40 33 28 26 25 25 26 31 37 44 48 51 57 57 58 59 63 64 65 61 61 62 58 54 53 56 55 56
52 55 60 65 69 70 72 74 72 65 59 51 42 36 34 29 25 24 25 29 32 35 39 42 47 50 51 54 59 59 64 68 67 72 74 75 68 65 63 61 60 59 57
61 66 67 65 64 65 63 58 51 44 39 35 31 28 25 24 26 28 33 37 41 44 43 45 47 50 55 57 63 67 71 69 71 76 81 83 76 71 69 63 61 61 62
64 62 59 56 54 52 46 42 39 36 33 30 29 27 27 29 30 34 38 43 49 55 51 49 52 54 60 56 64 70 74 69 74 78 86 88 83 78 72 62 61 63 64
57 54 51 47 45 43 41 39 37 34 31 30 28 25 21 19 25 27 27 27 31 37 44 49 57 58 67 66 70 71 75 70 75 78 89 92 89 78 73 64 62 66 69
50 46 47 47 45 42 39 33 27 25 25 24 21 19 18 16 17 18 18 18 24 31 33 32 48 59 52 76 74 70 65 66 76 81 90 93 90 80 75 67 64 67 71
50 51 49 44 40 37 33 30 29 27 23 18 18 18 18 18 16 15 13 14 17 22 26 32 32 44 52 82 81 70 67 66 76 83 90 96 94 83 77 70 67 69 73
53 50 45 42 39 36 34 30 26 22 18 17 16 15 16 18 18 17 17 15 16 22 26 26 36 43 46 73 82 79 77 73 77 85 89 97 97 85 77 74 70 71 74
51 48 46 43 41 37 30 26 23 20 18 15 14 14 15 17 19 23 23 24 25 32 37 40 49 53 53 65 87 82 80 76 78 85 91 97 96 86 79 75 71 74 76
51 49 47 44 37 30 27 24 21 19 15 14 14 15 15 16 17 22 27 32 37 41 46 43 50 61 77 87 87 84 77 84 79 84 94 98 96 86 81 76 74 75 76
53 50 45 38 33 29 25 22 19 16 15 15 16 16 16 16 17 19 25 33 42 47 55 51 55 68 79 85 87 84 82 89 84 87 97 99 98 89 85 80 78 79 78
51 45 40 34 29 26 24 20 18 17 18 18 19 21 22 23 24 26 28 32 42 50 57 65 58 76 78 82 89 88 85 91 87 91 99 99 98 92 86 84 82 83 81
47 41 34 31 28 26 22 19 19 19 20 21 22 24 26 28 30 31 33 35 38 48 64 71 75 72 77 83 83 91 89 92 90 95 99 99 98 95 92 90 89 88 85
43 37 33 31 29 23 21 21 21 22 24 26 27 27 28 30 32 35 37 39 41 42 55 78 84 87 90 92 93 96 91 91 94 97 98 99 99 97 97 95 94 92 89
42 37 34 30 25 24 23 23 25 27 28 28 27 25 25 26 27 29 33 40 44 47 49 68 89 94 99 99 99 95 85 92 98 99 99 98 99 99 99 98 98 96 93
42 39 31 28 27 26 26 27 29 29 28 27 26 26 28 29 31 33 34 34 38 47 52 57 82 98 99 99 99 99 86 84 96 99 99 99 98 99 99 99 99 99 95
43 36 34 32 30 30 30 30 30 29 29 29 29 29 32 33 34 34 35 36 39 42 51 58 67 92 99 99 99 99 95 85 86 98 99 99 99 97 98 99 99 99 98

GFSGL_prec_cthk_048.txt.gz
RH
60 56 46 46 54 62 68 75 79 81 87 91 96 95 96 95 91 91 89 98 97 98 95 92 94 95 90 82 72 62 50 45 38 36 42 47 45 42 43 43 40 32 26
45 43 47 55 64 72 77 73 78 88 93 95 97 94 95 90 86 89 95 98 98 92 92 97 97 94 89 78 68 54 50 43 44 39 44 47 53 50 49 47 43 34 29
49 50 54 57 57 58 56 60 80 88 94 91 91 93 89 78 86 89 88 91 92 94 96 96 95 93 85 71 60 52 44 50 46 47 47 54 56 57 55 51 43 38 37
49 52 51 50 50 52 54 57 61 66 78 78 71 72 72 84 90 92 87 89 94 97 98 97 93 85 66 55 49 43 46 47 49 57 58 59 64 64 56 52 47 41 41
53 52 52 49 52 56 57 56 57 59 60 62 65 72 84 92 88 89 92 97 98 97 96 91 75 55 42 37 37 44 53 51 54 63 62 66 66 63 61 55 47 44 46
52 44 41 40 42 46 50 52 53 55 57 61 67 72 74 81 86 91 95 96 96 89 73 60 47 39 27 26 30 39 44 58 61 62 64 66 61 63 58 57 51 49 49
38 37 37 38 41 45 49 53 55 56 60 67 70 75 83 88 92 95 94 80 69 57 48 42 36 34 30 30 35 42 48 54 57 61 65 66 63 64 61 60 54 55 53
34 34 37 41 44 46 49 53 55 58 65 71 74 79 84 84 78 68 58 49 44 40 36 34 31 29 37 43 43 50 52 55 54 53 61 60 65 66 63 58 61 61 58
34 37 39 41 44 47 51 57 62 66 69 70 73 74 70 63 52 46 42 37 35 32 32 32 32 35 39 42 47 51 52 57 57 57 59 64 62 62 60 62 66 65 62
40 43 46 48 50 56 61 63 66 66 66 65 60 53 46 39 36 32 31 31 31 31 32 33 35 37 41 45 48 50 52 58 66 68 62 65 66 67 67 65 70 69 66
47 48 50 52 57 60 62 62 60 56 51 44 40 37 34 30 29 28 31 33 35 36 37 38 41 43 39 45 51 52 50 59 65 66 78 77 71 73 76 77 77 74 70
50 53 57 59 60 58 53 49 44 43 42 42 41 38 38 36 36 36 32 32 34 35 33 34 41 44 48 46 52 49 58 72 70 73 76 85 77 81 85 88 85 81 73
56 57 55 52 49 44 44 44 47 47 46 44 39 38 36 35 32 30 29 23 19 17 18 22 24 31 36 45 54 61 73 80 71 76 80 77 79 86 88 93 87 78 71
56 53 50 45 44 45 46 44 44 41 37 35 37 36 33 30 30 28 19 16 12 10 15 18 19 25 28 30 42 49 58 67 78 80 82 77 83 87 91 96 88 79 72
55 49 47 46 46 44 43 40 39 38 36 32 28 26 24 25 25 19 18 16 14 13 13 11 17 21 27 38 41 54 69 77 82 79 74 75 85 88 94 97 90 81 73
52 49 46 45 44 44 45 46 42 38 32 29 27 24 22 21 19 16 15 14 14 16 21 25 27 29 33 33 48 61 58 84 83 81 82 79 86 91 98 98 91 81 75
51 48 49 49 48 47 47 47 45 40 33 30 26 24 21 19 15 12 12 12 16 19 29 32 35 44 53 55 62 65 62 86 80 85 86 78 84 93 99 99 93 82 77
56 56 54 51 50 48 44 39 37 36 36 36 31 23 19 15 13 13 14 15 21 24 29 36 40 43 45 54 69 75 67 67 82 89 81 81 85 93 99 99 95 83 79
60 57 55 52 48 43 40 37 35 35 37 34 31 27 21 15 15 19 21 26 26 27 28 34 42 52 48 55 71 85 87 89 89 84 83 88 86 94 99 98 94 85 80
59 59 55 51 47 42 39 36 37 36 34 32 30 26 19 16 21 26 28 29 30 31 31 33 41 55 59 69 79 80 87 89 89 87 86 89 91 96 99 98 95 88 79
60 57 54 49 45 42 39 38 36 33 31 29 28 26 20 20 28 29 30 30 31 33 35 36 36 50 69 72 78 85 89 91 91 90 90 94 93 98 99 98 97 89 84
59 55 51 48 46 43 41 38 34 31 29 26 27 26 21 24 29 30 30 29 29 31 36 40 39 43 65 78 82 89 91 90 89 91 93 96 96 99 99 98 97 90 86
58 55 52 50 47 44 41 38 35 31 28 26 25 25 24 26 27 32 32 32 32 29 31 35 40 43 55 83 88 91 92 92 93 95 93 98 99 99 99 99 97 94 93
60 58 55 52 50 46 43 40 35 33 30 27 27 27 30 30 33 33 34 32 28 28 30 32 36 44 47 76 92 97 99 99 99 94 92 99 99 99 99 99 99 98 98
64 62 60 58 55 51 48 43 40 37 31 30 30 31 34 34 36 35 32 30 31 34 34 34 34 41 48 57 91 99 99 99 95 87 97 99 99 99 99 99 99 99 99
70 68 66 63 58 52 51 47 44 37 33 33 33 35 36 36 34 32 31 35 42 45 44 40 38 40 48 54 78 99 99 99 98 87 87 97 99 99 99 99 99 99 99

GFSGL_prec_cthk_051.txt.gz
RH
76 73 73 72 66 59 54 61 68 72 77 77 74 87 90 94 91 93 97 93 96 85 88 88 93 90 88 90 91 93 93 85 70 53 48 44 46 46 48 51 49 48 49
67 64 63 59 50 48 55 58 62 64 62 62 71 87 98 98 90 98 93 95 83 77 98 96 96 93 95 96 96 92 84 71 57 46 40 40 46 50 52 54 54 51 50
61 62 59 51 56 56 59 59 57 58 59 60 66 70 73 81 76 75 72 71 85 89 96 97 90 94 96 96 88 81 67 58 51 48 47 50 51 56 57 58 59 56 51
59 61 57 55 59 63 61 56 52 59 57 60 61 63 65 66 67 70 72 77 84 90 93 92 94 96 91 81 74 63 50 50 52 55 60 54 55 60 65 64 59 59 58
54 58 62 63 61 59 53 53 54 55 56 59 62 63 61 64 66 69 72 76 77 84 89 91 86 76 69 63 47 37 36 47 52 62 64 61 67 69 68 67 67 61 57
65 64 62 60 57 46 42 42 44 47 48 51 53 56 60 62 66 70 73 77 83 84 77 69 62 55 44 37 32 31 31 35 39 50 58 67 71 67 67 73 70 64 59
59 56 51 44 41 38 37 41 45 48 48 49 52 57 64 66 69 71 72 72 66 60 50 43 39 39 38 38 39 40 37 36 42 48 52 52 61 68 70 76 70 69 65
51 47 42 38 35 36 39 42 43 45 48 53 58 61 63 64 62 57 52 47 41 38 34 33 38 41 41 42 41 40 45 45 47 51 51 48 54 57 70 73 73 69 63
45 40 37 34 36 38 41 43 46 50 55 57 58 57 56 57 49 44 39 36 33 33 34 36 41 41 39 40 41 40 39 42 46 56 58 58 57 57 66 79 77 75 66
37 35 36 38 41 43 46 50 52 54 56 55 52 50 46 43 44 41 36 33 33 36 37 36 36 36 35 34 39 40 42 42 49 58 67 61 62 66 70 83 79 76 78
36 39 41 43 45 49 51 54 55 51 49 46 41 43 44 44 46 44 41 38 35 30 27 28 27 25 28 31 33 42 49 48 50 55 64 76 79 76 70 76 81 76 78
44 45 47 50 52 53 54 51 48 45 46 46 46 46 46 47 47 43 37 31 27 26 23 19 15 13 11 11 19 27 36 50 65 64 78 84 91 89 86 89 79 77 80
49 51 53 53 53 53 51 47 47 48 47 46 44 45 45 44 39 37 32 25 23 21 18 15 12 9 7 11 16 17 26 30 43 51 64 80 79 77 90 88 84 88 91
54 57 57 56 55 51 50 47 45 46 43 45 47 46 43 35 36 30 25 23 22 19 16 13 11 11 14 18 21 24 31 40 39 44 52 69 79 88 82 84 89 90 95
63 61 59 55 53 51 50 48 46 46 44 42 40 35 33 29 29 26 25 24 20 18 16 17 22 27 30 39 42 48 42 49 56 63 80 85 90 86 82 84 90 93 97
71 65 60 55 54 54 53 54 52 49 46 41 37 34 31 29 29 28 25 21 19 17 18 25 24 23 29 32 34 42 56 62 70 70 73 90 88 89 88 87 92 95 98
73 64 59 58 60 58 56 57 54 54 47 42 38 34 33 32 30 27 23 20 21 23 23 26 26 26 27 32 36 38 50 65 80 74 84 89 88 88 92 87 92 97 98
68 63 64 68 63 58 58 54 55 52 49 46 45 42 38 32 29 25 22 21 25 24 26 28 28 27 29 33 42 45 48 63 83 72 72 82 89 94 87 91 93 99 99
68 70 70 63 60 58 56 53 52 50 51 49 47 45 43 35 28 29 29 27 25 25 27 29 31 32 31 32 46 51 64 81 94 95 89 92 97 85 87 93 94 99 99
77 71 67 66 63 61 58 55 55 54 53 50 48 46 43 32 29 32 29 27 27 28 27 28 30 33 34 32 38 57 75 89 90 90 90 93 95 91 86 94 96 99 98
79 73 69 66 64 60 56 56 55 56 54 53 51 48 43 34 33 32 30 29 29 30 31 31 32 31 33 36 36 54 79 89 91 88 89 96 96 92 91 97 98 99 99
74 71 68 65 62 60 57 56 58 60 58 56 53 50 45 40 37 33 32 32 32 33 33 32 31 30 32 37 40 46 74 89 90 93 97 96 98 95 93 98 99 99 99
73 70 68 67 63 62 65 66 67 66 63 59 56 50 47 44 37 35 34 34 35 34 33 33 32 33 34 36 44 46 68 85 91 99 98 96 95 97 98 99 99 99 99
74 73 70 69 70 68 74 74 72 70 67 62 58 54 50 44 38 38 38 38 38 36 36 39 41 40 38 38 38 46 55 87 96 99 98 99 99 97 99 99 99 99 99
77 76 78 83 85 82 79 77 74 71 65 62 60 55 48 41 40 41 41 42 39 38 40 43 44 46 46 40 37 43 50 83 97 99 99 98 96 93 99 99 99 99 99
90 89 86 89 86 83 80 77 72 67 65 62 58 50 45 43 44 45 46 44 41 42 44 49 51 51 52 49 42 44 52 68 99 99 99 98 93 99 99 99 99 99 99

GFSGL_prec_cthk_057.txt.gz
RH
69 68 68 75 81 90 87 82 78 72 86 83 81 64 65 62 59 58 59 62 64 65 62 71 81 69 76 72 76 76 79 81 78 71 67 63 59 56 58 53 50 49 49
68 69 86 90 90 97 94 84 77 77 71 62 62 63 59 58 54 55 58 58 64 61 69 67 69 67 73 74 80 80 80 81 72 60 58 56 57 57 57 57 55 54 53
80 88 75 81 71 83 95 91 73 70 61 63 65 63 62 55 54 56 52 64 68 65 66 68 69 71 74 79 76 75 68 63 61 58 56 55 54 58 58 59 56 58 63
67 71 57 62 68 75 73 72 63 60 64 70 71 64 58 52 54 55 58 58 62 65 65 71 73 74 70 68 59 54 52 51 49 54 55 53 54 49 53 54 59 65 64
60 61 64 64 65 61 57 56 63 72 75 73 63 55 49 50 51 54 56 59 62 64 69 68 68 64 51 43 46 46 47 48 51 49 48 47 43 40 42 43 54 59 64
44 48 49 50 49 54 60 69 76 72 69 58 50 45 46 48 49 50 54 59 61 63 64 57 48 43 43 44 46 48 50 51 49 49 45 45 38 40 38 43 46 58 77
45 44 46 50 59 65 67 66 65 58 52 45 41 40 42 45 47 50 54 57 58 52 46 41 41 41 41 41 42 42 44 46 47 46 43 42 42 40 42 47 56 71 73
47 49 56 63 65 62 58 57 52 49 43 37 37 41 44 46 49 50 49 44 40 39 39 41 42 42 42 39 36 35 35 34 34 34 37 36 36 36 38 49 60 74 76
52 59 63 60 52 54 52 50 47 40 37 38 40 42 44 46 46 43 40 40 39 41 42 42 40 37 33 30 28 25 23 21 19 17 15 13 16 30 37 43 57 75 63
60 59 57 53 51 47 49 47 41 37 39 42 43 44 44 45 44 44 46 47 47 45 42 37 34 31 30 29 27 25 23 21 21 18 16 12 9 7 10 33 45 71 83
47 44 43 45 46 49 45 42 40 41 45 47 45 46 46 48 48 50 52 51 46 40 37 35 34 32 31 30 28 28 28 26 24 24 23 22 22 23 17 16 28 75 98
38 40 44 48 49 47 43 41 43 48 51 51 48 48 51 55 56 57 55 48 44 41 39 37 35 34 32 29 29 27 25 23 21 21 21 25 32 37 38 31 24 49 76
45 48 50 51 48 47 44 46 51 55 54 54 56 58 58 58 58 58 55 48 45 43 42 40 38 34 32 30 29 27 22 18 16 18 23 23 37 41 46 49 39 41 59
50 52 52 51 52 50 51 55 58 61 64 65 65 61 61 60 58 55 52 49 46 45 43 41 39 36 34 32 28 24 19 15 15 19 25 29 28 41 50 56 55 65 68
54 54 54 55 56 57 61 64 69 70 69 64 61 61 60 60 57 55 54 51 49 47 46 43 41 39 36 32 28 22 16 14 16 21 28 36 31 41 56 61 69 72 85
59 59 60 63 64 66 71 73 71 69 67 65 61 68 67 64 61 59 58 55 52 49 47 46 47 46 42 35 26 18 15 16 19 23 30 44 40 49 68 72 90 99 98
70 70 72 74 77 78 74 72 72 71 71 78 74 68 68 67 65 61 57 55 52 51 54 54 52 49 43 35 24 18 18 20 22 25 31 50 50 56 75 84 85 88 94
79 82 85 83 80 78 78 78 82 89 84 80 81 80 75 70 64 65 62 58 57 57 57 56 55 51 44 34 22 22 22 23 24 27 30 56 61 70 83 88 91 90 92
89 90 86 80 80 84 92 93 84 83 86 82 80 79 74 72 70 68 65 61 65 65 62 61 58 51 40 29 24 24 25 26 24 29 32 56 79 87 92 98 99 95 90
89 87 94 96 97 97 95 95 93 85 83 82 77 77 78 77 73 69 67 69 70 69 67 64 57 46 37 28 27 28 30 30 27 29 32 46 81 91 98 95 93 94 97
97 97 97 97 97 97 93 88 88 84 79 81 82 79 77 77 78 75 75 77 75 71 67 58 48 41 34 29 31 32 34 35 34 30 31 39 78 90 97 99 98 96 99
97 97 97 97 97 97 92 88 87 86 82 82 83 85 88 87 86 83 80 79 74 65 57 51 45 38 33 34 35 36 38 39 40 34 32 36 66 91 97 99 98 98 95
97 97 97 97 96 91 89 89 88 88 89 93 94 89 88 89 86 79 76 68 60 55 52 48 39 35 35 37 40 42 43 45 45 41 34 37 55 86 98 99 98 99 97
97 97 95 94 92 92 93 94 95 96 95 95 93 89 85 78 71 64 62 58 53 50 46 38 36 35 36 39 43 47 51 53 51 48 42 42 47 72 96 99 99 98 96
97 97 97 97 97 96 96 97 97 96 91 84 79 74 65 59 57 55 52 50 47 40 36 35 36 38 40 44 49 55 60 59 57 54 48 49 53 72 87 99 99 98 95
97 97 97 96 96 96 93 87 79 71 65 59 55 53 51 50 48 46 43 40 37 37 38 38 39 43 46 49 56 63 65 64 63 60 55 56 60 80 92 99 99 98 99

GFSGL_prec_cthk_060.txt.gz
RH
56 62 69 69 71 73 83 88 91 95 91 79 85 91 85 72 69 70 64 58 61 58 66 55 71 59 68 64 71 69 67 74 67 68 66 66 61 57 55 56 58 57 58
70 79 86 93 91 91 92 85 90 98 91 85 78 77 67 66 69 66 62 57 57 59 57 57 70 62 66 67 69 71 68 72 69 63 58 52 50 55 59 60 59 61 59
80 85 91 79 81 79 78 85 84 73 75 78 73 70 68 70 67 62 57 57 59 52 59 62 63 61 67 70 72 71 70 66 58 50 46 51 47 49 49 50 50 53 49
75 86 73 74 75 70 73 86 74 66 66 68 72 76 75 71 63 61 51 52 52 57 61 56 65 68 69 71 70 64 50 43 44 45 44 43 46 46 49 48 43 43 41
58 64 63 68 62 65 72 70 63 69 72 72 76 77 70 65 61 51 49 50 55 59 61 62 64 64 66 63 51 43 43 42 44 47 48 47 45 45 45 44 47 46 40
52 57 59 54 54 64 61 61 64 71 74 72 74 72 68 58 50 50 51 54 56 58 60 63 63 60 50 43 43 44 45 45 46 48 48 47 45 46 42 43 45 46 45
43 45 49 55 53 55 59 64 73 73 74 75 70 60 54 47 46 49 53 55 57 58 60 58 49 44 42 43 44 45 46 47 48 48 48 46 42 39 37 38 40 38 30
48 47 50 52 52 54 58 68 76 70 65 60 56 54 47 44 46 50 53 54 54 50 47 44 45 46 46 45 44 42 39 37 35 33 29 26 25 23 23 19 14 12 22
41 45 52 55 55 58 67 71 66 57 52 52 53 46 42 44 48 51 49 43 41 44 45 47 49 49 45 39 38 37 37 36 35 33 31 29 27 27 28 27 21 23 18
44 49 53 58 64 68 65 58 50 49 50 52 48 43 43 46 48 46 43 44 48 51 53 53 49 45 42 41 41 41 40 38 35 33 31 27 25 22 23 30 32 30 32
49 52 54 57 60 58 53 48 47 49 51 49 43 45 47 49 48 47 49 54 58 57 52 49 46 44 43 44 44 44 43 39 36 33 29 26 22 17 16 21 33 42 44
54 58 60 59 53 47 44 47 53 53 52 47 47 50 51 52 52 55 60 63 60 55 52 48 46 47 48 49 47 47 44 41 38 32 28 24 20 18 15 15 24 39 48
50 55 52 49 48 50 51 54 56 56 55 54 55 56 56 54 61 65 65 62 57 52 51 54 53 54 53 51 50 48 46 42 38 35 29 23 20 18 20 20 20 38 50
50 50 51 52 54 56 58 60 61 62 63 64 63 59 56 59 65 64 63 59 59 64 59 58 57 56 56 55 52 50 46 44 41 37 28 22 17 19 24 28 25 42 54
51 53 55 58 61 63 65 67 68 70 71 69 67 68 71 66 66 66 69 70 63 61 64 61 60 59 58 55 53 51 50 47 42 35 25 17 18 22 28 32 41 54 70
58 62 65 66 68 70 72 74 77 80 82 80 77 71 73 70 76 76 71 70 69 70 62 63 64 60 58 56 57 55 53 49 42 31 19 19 21 25 33 36 58 68 85
82 82 81 81 82 83 84 85 87 86 76 70 75 75 81 84 76 76 75 75 71 66 67 68 64 63 63 64 62 58 54 48 36 24 19 20 23 27 41 44 60 77 88
91 94 93 92 90 90 91 91 85 81 90 95 96 94 94 93 89 86 80 76 72 71 72 70 70 71 71 68 64 59 51 38 29 24 22 22 25 29 45 58 72 82 93
97 97 96 96 97 96 92 92 95 96 97 97 97 96 94 92 90 86 87 84 80 76 76 78 76 75 74 69 63 53 41 33 27 25 26 26 26 30 48 73 84 91 98
97 96 96 94 90 91 95 97 97 97 97 96 95 96 94 93 96 92 86 82 82 84 85 82 79 76 71 64 52 42 35 31 28 27 29 30 27 30 43 77 90 94 99
97 96 97 94 90 90 93 96 97 97 97 97 96 97 97 94 90 89 91 94 92 90 88 82 75 70 61 51 44 38 33 31 31 31 33 34 30 29 37 79 91 99 99
96 97 96 93 95 97 97 97 97 97 97 97 97 97 97 98 98 98 98 98 93 85 76 69 63 60 52 43 38 34 33 34 34 35 37 37 36 33 37 68 91 98 99
96 96 96 97 97 97 97 97 97 97 97 98 98 98 98 98 98 98 92 84 77 69 63 61 56 48 42 39 37 37 37 37 39 42 44 44 43 38 41 58 90 94 99
97 97 97 97 97 97 97 98 98 98 98 98 99 99 97 91 81 74 68 63 59 57 55 50 44 38 35 34 37 40 41 43 46 51 53 53 49 44 47 54 84 95 99
97 98 98 97 97 97 98 98 98 98 95 88 78 69 63 57 53 50 48 46 44 43 41 38 36 36 36 40 43 44 47 50 55 60 62 59 56 52 55 58 76 95 99
97 97 96 95 93 90 84 75 63 53 47 43 39 37 38 37 38 39 40 41 42 41 40 40 40 40 42 46 47 49 53 58 64 69 66 64 60 58 63 66 74 93 99

GFSGL_prec_cthk_063.txt.gz
RH
65 67 59 58 66 72 72 74 77 91 90 94 92 87 82 90 90 91 85 83 73 68 64 58 57 57 57 62 59 66 61 64 63 65 69 66 69 66 59 54 52 53 54
67 71 78 81 82 87 87 86 85 91 90 94 85 85 88 91 87 76 77 74 71 66 60 60 55 62 54 57 63 70 62 67 70 68 66 68 61 51 45 45 44 46 47
68 72 81 89 94 89 84 90 80 87 88 84 83 80 87 82 85 77 72 71 69 62 60 59 60 60 56 67 61 61 67 70 69 69 62 49 45 45 46 45 43 44 46
53 57 68 78 74 73 78 73 81 88 81 77 74 77 74 78 82 78 70 68 66 62 52 52 51 52 62 60 62 70 70 68 65 50 44 45 45 45 45 46 44 44 42
45 47 48 59 64 66 63 65 69 81 75 70 74 73 75 82 80 75 71 69 61 57 50 54 50 62 58 62 68 70 66 53 44 45 47 48 46 45 46 48 46 41 37
40 43 46 53 57 58 60 63 67 68 70 72 74 73 75 81 76 71 71 62 52 51 52 54 57 59 63 69 69 60 50 49 51 50 50 49 49 50 49 44 38 32 30
29 33 43 48 52 58 65 67 65 64 68 69 76 80 80 78 73 72 63 53 52 52 55 58 61 64 69 65 56 52 53 53 52 48 47 46 44 42 40 36 35 36 33
33 38 48 56 57 63 66 62 60 61 63 74 81 81 80 76 65 59 53 49 51 55 58 61 63 61 57 54 55 55 53 48 44 41 41 45 43 42 41 40 40 37 33
43 48 48 56 61 62 62 63 66 72 80 81 79 79 67 62 60 60 53 51 55 57 60 59 53 53 56 57 56 51 47 46 44 47 48 46 45 44 42 40 37 37 33
47 51 49 57 57 60 66 70 77 78 81 77 77 67 64 61 61 59 53 54 55 51 48 48 52 58 57 54 51 49 47 49 52 50 49 47 47 45 42 40 38 31 31
40 44 49 50 56 67 72 70 72 74 76 72 64 62 63 65 64 60 55 52 49 48 50 52 54 55 55 55 51 50 53 56 55 55 53 50 49 46 44 42 37 32 32
44 45 49 52 58 66 69 71 72 67 60 57 60 65 66 66 67 64 58 53 53 55 54 54 57 57 58 54 55 57 60 56 58 56 53 52 51 48 46 41 32 28 29
52 53 53 53 57 62 67 65 61 59 61 63 64 66 68 71 70 66 62 61 62 61 59 60 57 55 60 65 66 63 61 60 58 58 57 56 54 51 46 37 25 24 23
56 58 59 59 64 66 63 62 62 62 64 67 70 73 75 73 71 67 68 68 66 62 60 60 71 73 67 72 67 64 61 61 61 62 61 59 55 50 42 32 20 22 25
61 62 62 63 64 65 66 67 68 69 72 75 76 79 81 80 78 80 74 67 63 72 78 77 72 71 74 67 65 67 67 65 66 66 64 60 56 48 37 19 21 27 35
72 69 70 71 72 74 74 75 77 82 85 88 90 91 91 90 84 73 70 84 88 82 77 77 79 78 71 74 75 70 69 71 70 68 65 61 54 41 22 18 23 34 40
83 87 89 90 90 91 93 95 96 97 98 98 97 97 90 76 77 85 91 87 85 88 87 82 80 78 78 78 76 78 79 75 71 68 65 58 45 29 20 20 24 37 50
98 99 99 99 98 97 97 97 97 97 96 94 90 90 94 96 96 97 97 97 96 91 84 81 83 85 85 88 86 83 81 74 70 67 58 44 33 25 22 21 26 38 59
98 98 98 98 98 98 97 97 97 96 97 97 97 96 95 93 93 96 97 97 97 97 95 94 95 96 94 92 88 84 77 71 64 54 44 35 30 26 24 23 26 40 72
97 96 97 97 97 97 96 97 97 97 97 97 96 97 97 97 97 98 98 98 98 97 98 98 98 98 96 90 85 78 66 57 50 43 36 32 30 28 27 25 27 39 77
93 91 91 96 97 97 96 96 96 96 96 97 97 97 97 97 98 98 98 98 99 99 99 99 98 95 89 82 73 58 50 46 41 38 35 32 31 31 33 31 32 38 78
90 97 97 96 96 96 95 95 97 97 98 98 98 98 98 98 98 98 98 99 99 99 98 93 83 74 65 57 50 44 41 38 37 35 34 36 39 39 39 37 37 42 72
88 91 95 96 96 97 97 97 97 98 98 98 98 98 98 98 98 99 98 97 89 78 69 62 54 50 47 43 38 36 35 36 37 40 40 42 45 46 47 44 45 47 64
97 97 97 97 97 97 98 98 97 98 98 98 98 98 97 93 83 71 61 56 48 42 39 38 38 38 38 37 37 37 38 40 42 44 46 48 53 56 55 54 52 52 60
97 97 97 97 97 97 97 97 95 92 86 77 67 54 45 41 37 33 32 33 33 34 35 37 38 38 37 38 39 43 47 49 50 51 53 57 62 66 65 61 58 58 61
96 94 91 88 84 78 71 65 57 49 40 34 31 28 27 28 29 31 32 34 36 37 38 39 40 41 42 43 45 50 55 57 58 60 62 68 74 74 68 64 65 65 65

GFSGL_prec_cthk_066.txt.gz
RH
65 66 65 60 57 59 60 62 65 68 73 70 75 84 87 90 91 90 87 90 93 93 93 82 84 74 72 60 60 55 63 54 52 59 64 64 70 70 70 65 55 52 50
57 69 71 72 72 69 65 68 72 75 76 74 86 94 96 97 94 96 96 89 86 89 84 81 80 72 69 61 57 57 67 58 60 63 62 68 72 68 57 46 47 48 49
48 54 66 68 71 71 76 71 80 78 81 82 83 89 94 98 91 87 90 91 89 83 77 73 72 66 61 59 57 55 58 58 63 62 70 70 65 51 46 46 46 45 45
37 39 44 49 56 58 73 67 67 74 80 81 82 88 90 92 86 80 88 86 86 79 78 75 70 64 56 52 59 55 61 67 67 72 70 61 49 46 45 43 41 41 39
34 37 42 48 50 55 65 70 70 71 71 79 76 80 83 81 74 75 82 88 87 82 76 74 67 54 61 53 60 61 68 66 73 71 61 52 51 49 47 45 42 39 39
34 31 32 39 44 49 57 64 74 75 78 79 81 87 87 80 84 85 82 92 91 79 74 71 61 53 54 56 60 65 67 73 70 60 55 55 54 50 46 44 44 47 45
39 41 40 36 36 47 56 62 67 75 82 85 80 83 86 88 84 84 88 90 88 80 75 70 57 55 58 61 64 68 69 61 55 56 57 52 48 47 48 50 49 46 46
41 36 40 38 40 45 56 64 70 78 79 78 79 77 79 79 85 89 91 91 81 73 68 65 62 59 61 65 68 64 55 53 54 52 52 53 51 54 55 50 51 48 47
48 40 42 42 44 51 54 58 62 66 71 75 76 79 80 84 88 87 87 74 67 64 64 67 64 62 65 63 56 52 53 52 51 52 54 53 56 57 55 55 53 50 48
47 49 50 48 50 49 53 52 56 62 68 73 73 75 78 83 84 87 75 66 62 66 71 70 67 63 57 52 51 51 52 53 54 57 56 56 59 57 60 59 58 58 55
53 51 57 59 49 47 49 53 55 58 65 70 73 73 75 78 81 74 64 64 69 73 71 67 63 58 54 52 52 53 52 56 63 56 60 62 63 65 62 61 63 61 57
55 63 70 65 57 54 52 56 58 62 67 69 72 77 80 78 69 65 67 71 72 72 69 66 61 57 56 56 56 60 64 60 60 68 69 70 65 63 64 65 64 61 58
63 69 70 67 60 54 59 61 63 66 67 73 80 81 74 70 71 72 73 75 76 74 72 68 66 61 58 59 66 68 68 75 79 74 69 67 67 68 70 67 64 59 56
74 72 68 61 64 63 62 64 67 69 75 81 78 75 74 74 75 79 82 82 82 81 79 70 64 63 71 78 78 79 83 80 70 70 74 69 72 75 71 67 63 59 52
69 68 70 69 71 74 75 79 81 85 85 82 80 79 80 84 90 94 96 95 90 81 72 71 78 83 85 85 87 88 78 74 77 76 76 81 78 76 71 67 63 57 43
78 79 77 80 82 86 90 89 90 91 91 92 94 94 96 98 98 97 97 96 85 84 85 86 86 87 90 93 88 83 79 81 83 87 87 84 78 75 69 66 60 46 25
88 91 93 91 94 97 96 97 97 98 98 98 98 98 98 97 97 97 92 87 89 92 96 96 97 93 90 85 82 85 91 91 91 90 88 82 78 73 68 59 44 27 19
94 96 98 98 98 97 97 98 97 97 97 97 97 96 96 95 94 95 96 96 97 97 97 96 95 95 95 97 97 97 97 98 96 91 85 80 74 67 55 40 30 24 19
97 98 98 97 97 95 97 96 95 95 96 96 96 96 96 96 96 97 96 97 96 96 97 97 98 97 97 98 98 98 98 97 92 84 77 69 60 47 39 33 27 24 22
98 98 95 96 96 92 93 95 94 95 96 96 97 96 96 96 96 96 97 97 97 97 98 98 98 98 98 98 98 98 95 87 73 62 54 48 44 39 35 32 29 27 27
97 97 97 96 96 96 96 97 96 93 94 96 97 96 96 96 96 97 97 98 98 98 98 98 99 99 99 97 87 73 65 56 45 42 41 40 39 37 37 36 36 35 34
95 97 96 91 91 91 90 89 90 92 95 96 96 97 97 98 97 98 98 98 98 98 98 94 83 69 59 52 45 39 36 35 35 36 36 38 39 41 42 42 43 42 41
95 94 93 91 92 92 94 96 96 96 97 97 98 98 98 98 98 97 94 85 74 62 50 42 38 34 33 33 35 35 34 34 36 40 42 43 44 46 50 50 51 50 50
94 96 96 97 97 96 96 96 97 97 98 97 95 89 78 69 63 57 48 40 35 30 27 28 28 29 30 33 35 37 37 38 42 46 49 49 50 55 56 59 61 59 58
97 96 96 96 95 94 92 86 78 71 66 60 55 48 40 35 32 28 25 25 27 28 30 31 32 33 34 36 39 42 45 48 52 54 56 58 60 63 66 68 70 68 67
83 79 74 69 64 60 56 51 46 38 31 26 23 21 21 22 23 25 26 28 29 31 32 34 36 38 40 42 45 48 53 57 62 64 65 67 70 73 76 80 79 73 70

GFSGL_prec_cthk_069.txt.gz
RH
54 63 66 62 57 56 59 62 64 68 73 72 71 67 66 66 66 66 64 61 67 82 86 88 94 89 91 85 88 80 76 70 63 60 68 66 66 62 64 66 67 66 59
48 53 62 67 67 67 65 63 64 64 68 70 73 76 71 64 66 73 74 81 90 89 99 97 96 94 92 89 84 76 68 66 67 63 57 62 60 64 67 70 63 56 48
45 44 48 58 62 64 65 65 60 70 66 69 74 82 81 82 87 94 91 97 98 98 97 92 90 92 88 86 82 76 73 64 61 60 55 61 66 69 68 58 51 46 47
37 36 36 39 46 53 58 58 55 68 68 67 71 81 85 84 88 90 94 97 97 98 95 95 94 89 84 82 77 74 58 61 59 59 58 65 66 63 56 48 45 46 47
34 31 29 31 35 44 52 55 58 61 67 69 69 78 83 78 82 91 97 97 91 91 93 94 91 87 83 76 74 68 55 58 56 57 63 63 60 57 49 44 43 47 49
39 34 33 33 31 32 38 42 48 53 61 68 72 74 73 78 86 89 89 88 87 89 88 87 88 87 85 78 73 66 62 58 59 62 64 58 56 51 44 42 44 48 56
48 44 39 36 33 34 34 35 39 48 58 63 72 79 83 85 86 88 90 91 87 86 84 85 88 89 80 73 67 67 66 63 63 65 61 55 49 46 46 48 50 54 56
50 49 47 48 44 36 34 36 41 49 56 61 68 74 78 79 84 86 86 85 83 86 88 90 89 81 75 70 71 70 70 70 68 62 54 48 48 48 48 54 58 59 62
50 49 48 52 50 44 40 39 43 54 59 61 65 68 69 73 73 73 77 81 86 86 90 87 98 80 71 70 74 75 77 73 64 55 53 52 54 53 59 63 63 62 64
44 47 49 54 58 53 50 50 50 51 55 57 60 63 65 68 71 73 78 81 83 85 84 94 89 71 71 76 79 78 72 62 56 57 56 56 56 63 65 67 68 70 65
53 57 57 59 61 61 65 66 58 53 54 54 56 60 65 69 74 77 80 81 81 79 92 94 69 72 78 78 73 65 61 62 61 58 58 62 71 71 74 78 75 70 72
61 65 68 73 78 76 77 80 75 59 54 57 60 62 67 72 77 79 81 78 88 99 83 71 74 75 72 68 65 66 65 64 62 68 73 81 80 83 79 79 79 78 76
68 72 77 76 74 82 85 80 71 64 61 62 64 65 78 72 74 75 94 98 94 76 77 77 76 75 72 70 68 67 68 72 76 85 87 86 81 78 82 79 84 80 74
72 73 75 80 82 82 79 73 71 71 78 76 83 79 81 86 92 98 95 80 82 84 87 86 81 77 74 74 78 80 85 91 93 89 83 78 83 84 85 85 81 77 72
77 80 82 82 78 76 79 80 82 82 85 86 91 94 96 98 98 93 88 90 92 95 93 89 88 88 88 92 91 90 94 95 89 87 85 89 91 90 87 84 79 74 70
84 83 82 84 84 83 87 89 89 91 95 97 98 98 98 98 98 98 98 97 96 96 95 95 94 95 93 93 96 96 92 90 89 92 95 94 93 88 85 82 77 74 70
96 93 91 94 96 96 96 98 99 98 96 98 98 98 98 98 98 97 97 96 96 96 97 96 96 96 96 96 95 93 94 96 97 96 95 94 91 86 84 80 77 66 52
98 98 96 99 98 96 98 98 98 98 98 96 97 97 97 97 96 96 96 96 96 96 96 97 96 96 96 97 97 97 97 96 95 95 95 93 89 83 74 62 52 42 36
99 98 97 97 98 98 98 97 97 97 96 97 97 97 97 97 96 96 96 96 96 96 96 95 95 96 97 97 97 96 96 96 95 93 87 72 59 51 43 39 38 36 33
98 97 98 98 97 97 97 97 96 96 96 95 95 96 97 96 96 95 91 90 93 94 94 95 96 96 96 96 96 94 89 82 70 58 48 38 35 36 37 39 39 38 37
91 89 94 97 97 97 97 96 96 96 96 96 94 93 92 92 91 92 94 95 95 95 95 94 94 91 84 74 64 55 45 37 33 32 31 32 34 36 38 40 41 42 42
91 91 93 96 97 97 97 97 97 97 96 95 96 96 96 96 96 95 94 95 94 88 77 66 59 53 43 35 30 27 27 29 31 32 32 34 38 43 46 48 48 48 49
97 96 96 95 96 96 96 97 97 98 97 96 96 96 95 94 91 82 70 61 55 49 40 32 28 26 25 25 27 28 30 32 34 37 39 43 48 52 53 55 56 55 56
95 97 96 96 96 96 96 96 97 96 95 88 77 66 60 55 51 46 37 31 27 25 24 23 24 25 26 28 30 32 34 36 39 43 48 52 58 60 61 63 63 63 66
94 93 92 88 82 74 67 63 59 55 51 47 42 36 30 26 24 22 21 21 22 23 24 25 27 28 31 33 35 38 40 43 47 52 56 61 65 68 68 70 72 74 76
60 57 53 50 47 44 40 35 30 26 22 20 19 18 18 19 20 21 22 23 24 26 28 30 31 33 36 38 40 43 47 51 56 60 64 69 73 75 75 77 81 84 86

GFSGL_prec_cthk_072.txt.gz
RH
37 43 45 44 48 50 52 56 60 63 67 68 69 70 70 70 69 70 70 71 73 68 67 62 62 60 74 91 94 94 96 97 95 89 77 70 59 67 61 56 53 53 59
45 43 47 51 48 48 57 58 58 60 67 71 75 75 75 74 75 75 71 70 74 76 76 71 66 79 95 97 98 93 96 97 94 89 78 71 64 57 60 56 57 63 62
50 50 48 49 50 47 48 53 59 62 64 64 70 68 69 74 77 80 80 78 76 77 79 82 89 96 94 94 94 97 95 95 93 84 72 64 60 60 61 58 63 60 54
48 48 47 46 46 47 48 47 48 53 52 53 55 64 66 63 68 80 81 82 79 88 90 94 95 97 97 95 97 97 95 93 89 78 75 63 58 62 58 62 59 53 53
47 42 37 40 41 43 46 47 49 51 51 53 54 59 65 66 68 77 84 86 84 91 98 97 98 97 99 98 98 92 90 92 86 79 71 62 63 63 63 60 54 51 45
45 43 43 41 41 42 44 48 53 53 56 58 55 60 67 70 75 77 80 80 85 92 93 90 88 87 91 90 91 89 91 90 84 72 68 68 68 68 64 59 56 50 46
48 46 45 46 45 44 43 42 40 43 48 51 55 63 65 70 73 84 86 88 91 91 90 92 90 89 88 88 88 90 92 88 79 72 70 69 71 68 65 58 52 54 57
54 53 49 48 51 51 51 51 52 41 42 47 53 61 66 68 73 80 87 90 93 92 93 93 94 92 89 88 89 91 93 95 92 80 70 71 70 63 57 52 54 55 59
53 56 56 57 54 55 54 54 54 53 45 45 53 63 69 70 70 76 82 84 85 86 87 87 86 87 88 88 88 94 99 97 85 71 69 68 65 58 58 56 58 69 72
57 58 59 58 60 59 54 52 55 58 57 55 51 56 62 64 66 69 73 75 78 81 81 84 84 88 86 89 90 88 87 89 70 64 62 60 58 62 63 64 67 72 82
56 59 57 56 59 60 61 61 59 64 67 70 70 61 57 59 61 63 68 71 74 78 81 83 86 87 92 87 98 96 88 68 60 61 59 63 68 67 69 76 78 81 80
56 59 59 59 61 64 69 74 84 82 83 79 82 77 67 59 58 60 63 66 71 76 80 84 87 92 92 97 93 81 69 61 59 63 73 70 74 78 83 87 85 78 83
63 63 66 68 71 74 78 83 80 88 85 83 82 85 76 71 68 70 71 78 80 82 91 89 98 97 93 86 78 68 61 68 77 77 81 89 93 92 86 83 83 87 88
72 72 77 79 81 86 89 87 83 82 88 85 83 79 76 78 81 81 86 92 89 93 98 98 95 89 84 80 77 85 87 89 93 96 96 95 92 87 88 90 91 92 89
82 81 81 83 83 84 82 85 87 87 89 85 81 84 88 89 90 93 94 96 97 97 97 94 91 93 93 94 92 94 96 94 96 95 95 92 91 95 96 96 93 91 90
82 81 81 83 83 83 85 85 87 86 86 84 90 93 96 98 98 98 97 98 97 97 96 94 93 95 95 96 97 96 96 95 94 93 94 96 95 96 95 94 92 92 91
91 89 87 87 87 89 93 95 97 96 95 98 99 97 96 96 98 97 97 97 95 94 94 96 96 96 96 97 96 96 95 93 92 92 93 93 93 94 93 93 92 87 76
99 98 98 97 97 98 99 98 98 98 98 98 97 97 97 97 96 97 96 96 97 96 96 96 96 95 93 92 90 90 91 92 93 93 93 93 92 88 81 72 64 58 52
98 98 98 98 98 98 97 98 97 97 98 97 97 97 97 96 97 96 95 94 95 95 95 94 93 91 91 92 93 93 93 93 92 86 78 67 56 46 42 42 40 41 41
87 94 97 97 97 98 96 97 97 97 96 96 97 97 97 96 96 96 96 97 96 96 95 94 94 94 95 94 92 85 73 61 54 46 40 36 34 34 36 37 39 40 41
93 87 97 97 97 97 96 97 96 96 96 97 97 97 95 96 97 96 96 96 96 95 95 94 92 85 72 60 53 47 39 34 31 29 28 31 34 35 39 41 43 44 45
94 92 91 91 93 96 96 96 96 96 97 97 97 97 96 96 97 97 96 93 91 82 69 58 54 49 41 35 31 28 26 27 28 31 33 35 37 42 45 47 48 50 52
90 92 96 97 95 95 96 96 96 97 97 97 97 97 97 96 91 80 66 57 51 44 36 31 25 21 20 20 21 26 29 31 33 35 37 39 42 46 50 52 55 57 60
96 96 96 96 96 96 97 97 96 94 93 86 76 68 62 57 51 42 35 30 26 21 17 17 18 20 21 23 25 27 30 32 35 36 41 45 49 54 57 60 63 66 66
77 74 71 68 67 65 62 59 56 53 50 47 43 39 35 33 29 24 21 18 17 19 20 21 22 23 25 27 29 30 33 35 38 43 48 51 56 60 64 67 70 72 74
44 41 39 37 35 32 30 27 25 26 26 27 27 23 20 20 21 19 19 19 20 21 22 23 25 27 29 31 33 35 37 40 44 50 53 58 63 68 71 73 76 79 82

GFSGL_prec_cthk_075.txt.gz
RH
33 35 35 37 39 41 47 54 56 59 60 63 64 66 66 66 68 69 72 77 79 81 86 85 80 80 78 78 77 72 69 71 80 86 95 95 94 94 89 81 65 64 56
36 38 39 40 42 42 45 47 54 59 61 65 68 66 67 66 68 71 71 73 75 77 78 76 73 74 78 82 84 78 75 85 90 94 94 96 98 98 89 75 65 58 59
40 43 44 44 46 48 49 49 49 56 57 62 65 64 61 65 68 68 69 70 72 76 77 77 76 76 78 84 87 90 91 97 95 94 93 96 96 95 85 83 75 64 63
48 48 48 50 49 50 53 54 51 51 52 57 61 61 61 62 65 68 72 71 73 81 82 84 83 82 80 87 95 96 93 94 97 97 97 95 92 91 88 83 79 68 63
58 54 48 52 54 52 50 53 54 52 48 48 51 53 57 59 59 64 69 73 76 80 88 86 86 86 85 92 98 95 97 93 93 94 92 91 98 93 92 82 74 70 68
58 53 53 54 53 49 47 48 50 53 54 53 52 51 52 53 54 59 66 72 75 76 77 78 80 86 91 98 91 92 92 95 98 97 99 92 99 96 91 86 81 72 69
56 57 56 55 53 52 52 51 50 50 51 50 52 51 49 53 53 54 67 74 74 80 84 82 85 89 97 96 98 97 95 97 91 91 93 95 93 97 98 94 80 67 66
56 57 56 54 52 53 53 53 53 53 51 50 49 51 47 49 54 62 74 75 73 76 84 91 95 96 99 97 97 98 98 97 97 93 88 94 96 98 98 91 76 70 63
59 59 57 57 54 54 55 57 57 60 58 57 59 59 57 50 54 64 75 81 82 84 85 86 89 91 91 91 93 95 97 95 86 93 89 95 97 85 88 80 66 59 59
55 57 61 64 62 61 61 64 61 60 58 57 58 62 66 63 58 57 68 75 79 81 83 83 86 86 84 85 85 88 86 82 98 89 91 96 90 81 74 66 60 65 77
57 59 64 67 69 70 70 70 67 64 61 63 64 67 74 75 71 72 69 67 72 73 74 76 76 75 77 80 83 86 86 96 97 90 93 84 76 71 69 73 76 75 79
64 64 69 70 73 77 76 69 70 71 70 71 75 81 84 86 85 83 82 81 74 72 72 74 75 76 78 81 83 86 94 89 91 84 77 75 80 86 82 83 88 91 91
71 69 70 70 71 75 76 80 81 79 80 82 89 87 93 88 92 87 87 91 90 82 79 80 83 88 91 95 94 96 92 86 81 80 83 88 90 92 93 94 90 88 86
81 80 78 78 77 80 81 86 84 87 94 97 94 95 95 91 92 93 92 90 83 86 91 93 92 95 98 97 93 90 87 88 94 95 96 96 95 94 96 95 94 95 95
90 89 89 88 91 87 94 95 97 96 98 96 95 98 98 94 96 97 96 90 90 91 93 97 98 98 97 97 96 96 96 95 95 96 95 95 95 93 92 92 91 89 89
95 95 93 93 96 90 96 98 98 98 98 99 96 98 98 98 99 99 98 92 96 97 98 97 97 97 96 96 96 96 95 95 95 93 91 88 87 86 86 87 88 89 89
98 99 99 99 98 98 99 96 95 97 96 94 98 98 98 98 98 98 97 97 97 97 97 97 97 97 97 96 96 96 94 91 88 87 88 87 86 87 87 86 84 79 71
95 97 97 99 97 98 97 97 97 96 96 96 98 98 97 97 97 97 97 97 96 96 97 97 97 97 96 94 93 92 92 90 89 88 86 83 78 72 67 60 51 42 36
95 98 97 94 95 97 98 97 98 98 97 97 97 97 96 96 97 97 96 96 97 96 96 96 97 97 96 95 95 92 91 87 81 72 67 62 56 50 42 36 33 33 34
92 95 97 94 96 97 95 97 97 97 96 96 97 97 97 96 96 96 96 96 96 96 96 97 96 96 95 93 89 78 68 63 60 55 50 41 35 33 33 33 34 36 38
95 95 97 97 97 98 97 95 96 97 97 96 96 96 96 96 96 97 96 96 96 96 96 96 94 85 73 65 60 54 50 43 37 32 28 28 29 30 35 37 38 40 43
95 95 96 97 97 97 96 95 96 96 96 96 97 96 97 97 97 96 96 96 92 85 75 67 62 57 52 47 41 35 32 30 26 26 27 28 30 35 39 41 43 45 48
94 95 95 94 95 97 97 96 96 96 96 97 97 97 97 97 92 81 71 65 61 56 45 41 38 33 32 27 22 25 25 26 27 28 30 32 35 39 43 45 48 51 55
94 94 95 95 96 95 94 94 92 90 86 80 72 64 59 55 51 46 42 35 34 33 29 24 23 21 19 19 20 21 24 26 26 27 31 36 38 42 45 50 55 57 61
65 62 58 55 53 50 48 45 43 41 39 38 37 35 34 33 32 30 28 25 18 18 19 18 18 19 20 21 22 23 25 27 30 32 35 39 44 47 52 58 62 66 70
41 40 39 37 35 33 32 31 30 30 30 30 30 31 31 30 29 26 22 20 18 18 19 20 20 21 22 24 26 27 29 31 34 37 40 44 49 55 61 66 72 77 78

GFSGL_prec_cthk_078.txt.gz
RH
31 31 32 34 36 39 43 48 50 58 59 60 62 63 66 66 64 66 64 66 75 79 81 81 82 86 86 91 95 92 90 92 87 83 80 78 79 79 84 90 93 92 91
38 34 35 37 36 36 41 42 45 47 52 59 62 63 65 67 68 67 68 69 70 74 77 79 77 81 84 88 92 87 86 87 88 88 91 93 95 94 90 93 94 98 96
46 41 38 38 40 42 44 46 47 49 49 49 51 56 60 62 61 60 63 66 70 73 76 80 82 86 89 89 88 84 83 83 84 89 92 96 95 95 94 91 96 97 97
52 46 43 42 43 45 48 50 51 53 54 51 49 49 54 58 58 58 59 61 66 67 72 77 78 83 89 91 92 92 89 87 92 93 96 93 93 91 94 95 94 91 93
58 56 50 52 55 53 52 53 54 54 53 57 56 50 49 51 53 55 57 58 61 68 73 77 80 83 90 92 93 95 93 95 92 95 94 91 90 94 93 98 93 90 95
58 58 60 58 59 57 55 56 56 51 48 53 52 54 55 51 49 52 55 59 63 66 69 74 80 87 82 91 91 92 92 94 93 97 98 94 95 95 97 95 94 89 92
58 57 61 62 61 60 58 60 58 54 54 52 55 57 55 53 53 56 54 60 64 63 64 69 75 83 88 93 89 88 90 96 98 98 98 98 99 95 95 97 98 98 96
70 67 63 64 62 61 61 59 58 58 58 59 59 58 58 57 56 55 61 62 62 65 67 69 76 78 81 87 92 97 96 98 93 98 97 97 98 98 94 97 97 94 91
60 66 70 70 71 71 67 64 64 65 63 60 63 63 64 67 64 62 66 65 61 62 69 72 76 75 80 86 90 88 91 90 93 86 90 86 86 88 86 88 96 95 93
58 57 60 67 66 69 70 71 70 69 69 68 68 68 72 72 70 68 68 67 71 70 65 66 69 75 77 80 82 83 84 82 81 78 80 77 87 86 84 88 90 85 78
65 64 63 67 71 70 68 73 76 77 72 71 71 73 74 76 75 78 81 82 82 81 80 79 82 80 80 80 79 80 81 81 82 81 81 79 83 79 88 84 80 79 81
66 66 68 70 74 77 75 76 80 79 81 80 81 78 80 78 79 83 88 92 93 94 92 92 91 92 94 90 86 83 82 86 87 84 93 93 90 87 86 91 95 94 92
71 67 74 78 81 80 81 80 81 80 86 85 88 90 92 89 87 89 92 97 97 98 98 98 97 95 96 97 92 91 90 94 96 96 94 91 92 96 96 96 95 95 94
71 80 81 81 83 87 88 89 89 92 91 93 95 94 95 97 97 98 99 99 99 99 98 99 99 98 98 90 91 95 96 94 94 96 97 96 96 95 94 93 94 92 87
69 78 90 91 94 93 94 92 94 92 93 96 95 95 99 91 97 95 96 98 99 99 98 98 98 98 98 95 94 97 97 97 97 96 97 96 96 95 92 89 86 82 80
76 85 92 97 98 97 96 97 98 97 96 98 99 97 98 98 97 98 98 98 97 97 97 97 97 97 97 96 96 96 96 96 96 96 95 94 92 89 87 84 82 81 74
72 84 91 96 95 95 98 99 93 94 95 92 91 93 96 99 95 96 97 95 96 96 97 97 96 96 96 96 96 96 96 95 95 94 91 90 88 85 76 66 59 55 53
74 85 91 97 95 95 95 97 94 97 98 94 98 97 96 97 97 97 98 96 97 96 96 97 96 96 95 96 95 96 95 93 91 88 81 71 63 59 56 52 50 47 47
89 91 93 95 97 95 93 97 97 96 97 95 95 96 97 97 97 96 96 97 97 96 96 96 96 97 95 96 96 95 91 84 71 63 60 57 54 50 46 44 43 39 36
90 93 97 97 96 97 96 96 98 95 97 95 97 98 97 96 96 96 96 96 96 97 96 96 96 96 96 94 83 72 64 61 57 53 49 45 43 41 38 34 34 34 34
92 94 94 95 96 97 98 97 95 93 94 96 96 96 96 96 96 97 96 97 96 96 96 95 89 75 66 62 58 53 49 47 44 41 39 35 32 31 30 30 30 32 35
92 91 91 93 94 93 94 94 93 91 96 96 95 96 96 95 96 96 97 95 87 74 65 60 56 50 46 43 39 35 35 34 32 30 29 27 26 27 29 30 32 35 37
94 92 92 92 92 92 93 95 95 94 95 95 94 93 89 83 74 63 56 52 47 42 39 36 32 29 27 25 24 24 25 24 21 20 21 22 25 29 31 34 36 39 42
82 81 79 77 76 74 73 70 65 61 56 49 44 39 37 35 32 28 26 26 26 25 24 23 21 20 18 18 18 19 19 20 20 22 23 24 27 32 35 38 41 46 50
49 47 46 45 42 39 37 35 33 32 31 31 31 31 31 31 31 29 24 20 18 17 16 17 18 18 18 19 19 20 21 22 23 25 26 29 32 34 38 43 48 53 57
36 35 34 32 31 31 31 30 30 29 30 29 29 28 27 24 22 22 18 18 18 18 19 19 19 19 20 21 23 23 24 26 28 30 32 34 37 41 45 49 53 59 64

GFSGL_prec_cthk_081.txt.gz
RH
33 32 31 35 36 37 40 44 48 51 58 66 67 64 60 58 63 65 64 63 61 65 70 76 80 83 82 84 87 89 91 91 92 89 90 90 89 86 88 89 90 94 94
45 40 36 35 36 38 38 40 44 47 49 51 57 66 68 66 66 67 67 64 65 66 68 75 78 83 83 83 84 82 84 88 89 95 95 90 86 85 87 91 91 96 97
48 49 44 38 39 38 40 43 44 46 49 52 52 53 55 59 65 65 66 66 65 65 69 69 70 74 77 82 84 86 87 86 87 88 91 87 87 88 95 98 97 95 94
55 53 51 45 43 44 44 45 47 48 51 52 54 55 53 52 51 58 62 62 61 60 62 65 69 70 70 73 76 81 88 91 95 96 95 96 95 95 98 97 98 98 97
64 59 55 55 49 50 52 52 53 52 53 54 56 53 54 54 50 49 52 55 58 58 59 58 59 63 67 73 80 80 89 90 96 94 97 98 95 96 94 97 97 98 99
68 63 62 60 60 59 58 59 62 59 56 59 58 54 53 54 54 55 56 57 56 56 55 55 58 60 60 67 75 80 90 90 95 96 96 96 94 93 97 98 98 99 98
74 74 72 68 64 61 65 68 68 66 62 62 63 62 59 58 57 58 60 61 63 61 62 61 56 56 61 65 73 78 86 91 94 97 93 91 90 92 96 94 92 93 94
67 68 75 77 75 69 67 65 64 67 67 66 67 66 66 63 64 66 67 68 68 66 62 62 63 60 62 67 73 80 84 84 84 87 86 86 86 98 86 96 86 92 78
60 64 63 66 76 79 77 72 69 71 71 69 69 70 67 67 67 71 75 74 74 75 70 65 67 70 72 68 72 77 77 80 81 80 89 88 81 91 93 87 81 90 77
55 59 59 57 61 66 75 80 77 80 75 75 75 72 71 69 73 71 76 81 80 82 83 80 83 83 85 83 81 79 81 82 83 81 79 80 81 79 86 89 77 86 88
43 50 58 61 59 59 63 71 78 79 79 81 81 81 82 79 77 72 78 85 84 84 85 86 88 91 93 93 91 90 89 87 88 85 87 81 90 91 86 87 90 89 93
36 39 43 52 59 62 60 63 70 78 83 82 83 86 88 86 82 81 83 89 88 90 86 88 90 90 94 95 97 97 98 99 96 97 94 94 90 98 91 95 95 91 95
34 34 33 43 53 63 65 66 71 78 84 89 90 90 90 93 92 94 95 95 93 97 95 91 88 88 93 94 99 99 98 98 98 97 97 98 97 92 95 96 97 96 96
36 37 40 37 43 56 69 73 76 80 86 93 96 98 95 96 93 92 98 96 93 96 98 97 97 98 94 98 97 98 97 97 97 97 96 97 96 96 96 96 96 96 94
41 41 44 45 47 47 57 71 82 87 90 92 92 98 98 94 96 95 90 99 92 99 97 98 96 97 98 97 97 97 96 97 97 96 96 96 96 97 96 95 95 92 89
50 51 50 51 55 57 58 62 74 83 89 98 97 98 98 96 98 94 95 95 95 97 97 97 97 95 96 97 97 97 96 96 97 96 96 96 96 96 95 92 86 80 70
62 65 68 68 67 71 69 72 76 82 88 91 94 94 95 92 98 92 97 95 96 96 97 96 96 97 96 96 96 96 96 96 97 95 96 94 91 85 76 63 56 51 47
77 89 92 91 88 86 80 80 84 85 87 96 96 98 92 97 95 96 98 95 94 97 96 96 96 96 96 96 96 96 96 96 94 90 82 72 63 58 53 48 46 44 40
89 91 93 92 94 95 97 96 93 93 96 95 96 96 99 92 97 95 98 97 96 95 94 95 96 97 97 96 95 96 93 84 72 64 58 53 48 45 42 39 37 34 33
91 92 94 94 95 96 97 96 97 95 95 96 97 97 97 96 94 96 97 97 97 96 96 96 97 96 96 93 82 70 62 58 52 48 45 41 38 35 33 31 30 29 30
92 93 93 93 93 93 93 92 94 96 96 96 96 95 94 96 95 96 96 97 97 97 96 94 80 67 60 54 49 45 41 38 35 32 30 27 25 26 26 27 27 27 27
93 94 95 94 95 94 92 90 90 90 90 94 94 95 96 96 96 93 86 76 63 56 50 47 43 39 34 31 28 26 26 24 24 24 24 23 21 21 23 26 27 28 30
91 90 90 92 90 87 85 84 81 79 75 70 67 63 57 48 42 38 35 32 30 28 26 25 25 24 24 23 22 21 21 21 20 19 19 19 20 22 23 25 28 31 34
59 58 58 58 57 56 54 52 49 46 42 38 36 34 32 30 28 27 26 25 24 23 22 21 21 20 19 18 17 16 17 17 18 19 19 21 23 25 27 30 33 37 39
48 47 45 43 41 39 38 36 33 31 31 31 30 30 29 27 25 24 22 20 18 17 17 16 16 16 16 17 17 18 19 19 20 21 23 25 27 29 31 34 37 41 45
40 39 38 38 37 36 34 32 32 32 31 30 27 26 25 21 18 18 17 16 16 16 16 17 17 17 18 19 19 20 21 22 24 26 28 30 32 35 37 40 43 47 50

GFSGL_prec_cthk_084.txt.gz
RH
36 29 27 32 36 38 41 45 47 52 56 61 64 61 57 59 61 62 66 67 67 70 76 82 85 86 87 89 89 88 86 87 85 82 88 88 89 89 89 91 91 94 92
50 45 36 31 34 37 39 40 44 48 50 53 56 59 61 64 65 66 67 69 69 65 68 68 68 74 78 81 82 84 84 84 84 83 83 84 85 87 90 94 94 91 88
54 55 54 47 36 36 39 42 43 47 52 55 57 60 61 60 57 60 64 68 70 67 66 67 70 71 68 70 74 79 84 86 87 87 86 84 82 83 87 90 87 89 92
60 58 59 58 56 46 42 43 45 48 49 52 54 56 59 64 63 63 62 61 64 66 65 61 60 61 62 67 69 70 73 77 78 78 77 80 85 85 90 86 89 94 93
72 67 64 67 64 64 56 51 49 48 49 51 55 58 60 61 59 61 64 64 63 65 65 63 62 61 62 63 67 67 74 75 77 77 75 82 85 84 89 89 89 94 94
82 83 80 78 74 71 68 60 59 58 58 58 57 56 58 60 60 58 62 65 66 67 66 67 65 65 61 64 65 67 68 70 72 76 73 76 79 81 89 94 95 95 93
68 71 78 82 80 76 76 75 72 68 68 67 67 67 61 61 61 62 63 65 67 66 66 65 65 65 66 65 67 69 70 68 67 70 73 76 81 86 88 89 93 95 95
66 68 70 71 78 82 82 78 74 76 74 73 73 71 71 67 71 72 72 74 71 68 68 69 68 70 71 67 66 68 70 68 66 69 71 75 80 84 86 90 88 95 96
51 57 61 60 65 71 77 78 80 83 80 78 76 78 77 75 74 75 77 77 74 74 73 75 77 77 78 79 78 74 72 75 78 78 77 76 74 78 83 85 85 94 89
33 36 41 49 55 57 61 65 66 71 74 79 82 83 84 84 83 80 81 83 80 77 77 76 76 80 83 84 88 88 88 92 92 93 94 92 93 93 93 94 94 89 99
32 33 34 34 35 38 46 52 56 59 64 70 77 81 83 88 88 87 89 91 88 86 79 81 80 79 86 88 93 96 97 92 95 97 92 94 94 99 99 99 96 97 95
29 29 30 29 27 27 29 36 43 49 54 59 67 73 77 85 90 89 92 94 92 92 91 88 86 84 90 94 94 96 96 96 94 92 93 96 97 98 98 97 97 98 97
31 30 30 29 29 28 26 25 30 38 49 55 62 68 73 81 87 89 91 93 92 98 93 88 88 90 91 95 98 99 99 99 98 98 97 97 97 98 96 96 96 97 97
34 34 34 33 31 30 30 31 30 33 39 52 60 69 76 79 84 92 92 88 94 91 98 97 95 94 97 99 98 97 94 96 98 97 97 96 97 96 97 96 97 95 97
37 37 37 38 37 37 35 36 37 39 42 49 57 66 72 79 84 95 86 98 81 96 91 96 98 98 98 97 97 96 97 96 96 96 96 95 97 95 95 97 96 96 96
41 44 44 45 47 46 45 47 48 49 53 56 60 65 71 77 80 76 92 96 79 86 89 97 96 97 97 97 97 96 95 97 97 96 96 95 96 95 96 94 89 81 71
48 49 52 53 54 56 58 59 60 62 67 72 72 73 73 74 82 84 93 95 93 84 97 95 96 97 96 92 94 96 97 96 96 96 97 95 96 89 77 67 62 56 53
54 55 57 61 66 67 69 71 76 79 81 89 86 85 85 87 88 96 88 90 95 95 100 95 91 94 95 98 95 98 97 96 96 95 87 76 68 63 56 54 53 48 44
62 64 67 70 75 81 84 84 82 83 86 91 95 96 96 91 94 96 97 97 97 92 97 97 96 97 96 95 97 96 93 83 73 68 63 59 55 50 43 38 34 31 29
69 72 75 79 82 86 88 88 88 88 87 89 92 94 95 96 96 96 96 97 96 97 97 96 97 97 97 92 80 70 62 58 54 48 43 38 33 30 27 25 23 22 23
78 80 83 86 92 94 93 94 94 93 91 90 90 90 91 92 94 96 96 95 96 96 94 87 71 61 55 49 45 41 36 32 29 27 26 24 22 21 20 20 21 22 22
88 89 90 92 93 93 92 92 91 91 90 88 86 83 79 74 67 59 50 45 42 40 37 34 30 28 27 26 26 25 24 23 22 21 20 19 20 21 21 21 21 21 23
76 75 75 75 73 71 69 67 65 62 58 53 47 41 36 33 31 30 27 26 26 26 26 26 26 26 25 24 23 22 21 21 21 21 20 19 19 19 21 21 23 26 28
55 53 53 55 55 55 53 48 44 41 38 36 34 32 30 28 26 26 25 25 24 24 24 24 23 21 20 19 19 18 18 18 18 18 19 19 20 23 24 26 28 31 33
48 47 46 45 44 42 41 40 39 38 37 34 32 31 30 29 27 25 24 23 21 20 20 19 19 18 18 18 18 18 18 19 19 20 22 24 25 25 28 30 33 34 36
47 46 43 42 40 39 38 38 37 36 35 34 32 29 28 26 25 24 22 21 21 20 18 18 18 19 19 19 20 21 22 22 23 24 26 27 28 29 32 35 36 38 41

GFSGL_prec_cthk_087.txt.gz
RH
42 34 29 29 34 36 38 42 45 49 55 58 60 62 62 63 65 65 67 69 70 71 78 85 87 89 90 90 91 93 95 94 87 89 89 88 89 87 89 91 92 91 89
53 51 45 38 35 36 38 40 44 48 49 52 55 60 63 68 69 71 70 68 68 70 74 71 68 70 70 76 81 83 88 88 88 87 84 85 87 88 91 90 91 89 88
60 60 58 54 48 43 40 41 44 46 49 52 54 56 58 59 59 58 60 62 64 69 71 70 71 72 69 71 70 73 78 83 83 83 80 82 77 80 84 85 85 84 83
66 67 66 67 68 64 55 48 47 48 47 51 56 57 59 62 63 63 62 59 57 56 61 64 69 67 63 63 64 64 68 73 75 77 74 69 70 69 71 71 74 83 81
78 79 78 78 76 77 72 67 59 55 54 55 56 56 58 59 59 62 67 68 67 65 62 60 60 62 62 62 65 62 66 69 71 71 70 69 69 71 72 73 73 84 79
81 83 83 82 82 81 83 81 78 70 65 65 62 64 63 60 60 62 65 67 67 66 65 66 66 67 66 69 72 71 70 69 67 69 68 70 69 72 77 78 79 78 77
70 73 77 81 81 81 80 82 83 84 82 75 74 76 76 74 72 70 71 75 72 68 67 67 68 67 67 67 67 69 74 74 73 73 71 69 68 69 72 72 73 79 79
67 69 71 72 70 74 77 79 83 85 86 85 83 83 84 81 79 83 86 88 88 83 80 76 73 71 70 71 74 74 73 77 79 78 76 74 71 70 71 70 71 74 70
51 52 54 56 60 61 65 67 68 74 81 85 85 85 87 84 86 88 90 94 92 91 89 87 84 80 78 80 80 80 80 79 84 83 83 80 79 78 78 84 85 88 88
39 38 38 38 37 38 44 47 49 52 61 71 75 80 82 82 84 85 88 89 89 89 90 90 88 82 81 82 85 82 85 87 91 89 92 89 87 90 93 94 92 97 99
34 33 34 35 34 32 28 28 31 34 38 44 52 59 65 68 71 75 83 90 94 94 92 92 92 90 90 87 90 91 90 90 91 95 92 93 92 93 96 97 98 94 95
33 31 29 27 24 23 22 22 22 22 24 24 26 33 42 47 53 59 65 73 83 89 95 96 90 92 91 93 95 94 95 97 91 94 95 95 93 92 92 92 94 94 97
30 29 29 28 28 26 24 24 24 23 24 26 27 28 31 37 45 49 53 62 70 81 87 85 88 88 91 93 94 98 98 98 98 98 98 95 98 94 98 96 92 95 97
34 34 33 33 32 30 30 30 29 30 31 32 34 36 38 38 37 49 53 58 63 70 79 86 84 96 99 94 99 97 95 97 97 97 97 96 98 96 95 96 97 96 96
38 37 37 35 34 34 35 36 36 38 38 39 40 42 44 45 49 50 50 62 65 72 86 71 95 85 98 94 95 96 96 95 98 96 96 95 97 97 97 95 97 97 94
42 43 42 41 41 41 42 42 42 44 44 44 45 48 50 53 56 60 64 64 67 77 74 75 81 81 78 88 93 97 96 94 94 96 97 96 97 96 95 94 96 90 82
46 47 47 47 47 47 48 48 50 52 50 50 51 53 56 58 62 67 74 80 81 80 77 77 87 80 86 83 91 93 96 95 96 97 96 96 96 93 86 81 74 70 64
51 52 53 53 54 55 55 56 56 57 58 59 61 64 66 71 73 78 83 91 95 96 93 88 88 96 94 92 94 95 93 96 97 94 89 82 77 73 67 62 56 51 46
57 57 58 59 60 62 63 64 64 64 65 66 68 70 76 79 82 84 89 93 93 95 96 96 96 95 95 96 96 96 92 86 80 74 68 63 57 54 49 44 39 33 30
63 64 66 67 69 70 71 71 72 73 74 75 77 81 85 87 89 91 93 94 94 95 97 97 96 96 95 86 77 70 65 59 54 49 43 38 34 30 27 27 25 23 22
68 70 72 75 77 77 78 78 79 80 81 84 88 89 90 91 92 92 92 89 82 71 59 50 44 40 36 35 33 30 28 27 26 26 26 25 24 23 23 22 22 21 22
70 70 69 70 71 71 74 76 76 75 74 72 69 63 58 54 49 43 39 36 35 33 31 28 26 25 24 24 24 25 25 26 26 25 24 23 22 22 22 22 22 22 21
58 58 58 58 62 64 62 62 60 55 51 48 45 43 42 40 39 36 33 33 30 28 28 27 27 27 26 26 26 26 25 23 23 22 22 21 21 21 21 20 20 20 20
52 53 54 54 55 54 51 48 45 43 41 40 39 38 37 35 34 34 33 31 30 30 29 28 27 25 24 24 22 22 22 21 21 20 19 18 19 19 20 20 21 23 26
55 53 51 50 49 48 47 46 43 41 39 38 37 36 35 34 33 31 29 27 27 26 26 25 24 23 22 21 20 19 18 18 18 19 19 20 20 22 23 24 27 29 32
53 50 49 48 47 46 43 41 39 38 36 35 34 32 30 28 27 26 25 24 23 23 22 21 21 20 20 20 20 20 20 20 20 21 23 24 25 26 28 30 32 35 37

GFSGL_prec_cthk_090.txt.gz
RH
46 36 26 29 32 36 39 44 47 51 52 54 58 61 63 66 70 76 77 79 80 80 79 76 78 90 91 91 93 93 93 91 89 88 91 92 93 92 93 90 90 89 88
51 48 40 32 31 36 37 41 44 47 52 55 57 58 61 66 68 70 70 69 71 72 75 76 76 78 76 81 81 82 85 84 88 83 83 86 90 91 90 87 88 87 87
61 55 54 49 44 41 41 40 42 45 47 49 52 55 58 61 64 65 65 65 66 67 69 69 71 71 70 72 73 72 74 75 75 79 74 75 77 79 80 81 80 83 82
81 68 59 64 65 62 55 51 47 46 47 49 49 50 54 57 59 62 65 67 67 65 65 64 64 65 66 70 72 70 72 72 72 73 70 66 69 68 71 69 69 71 69
89 85 78 77 75 78 77 73 68 60 57 58 54 54 55 56 54 55 58 61 65 67 69 70 69 67 64 64 67 65 68 69 70 70 69 66 64 64 62 60 60 61 63
88 87 85 83 82 83 83 82 80 81 80 71 66 64 60 59 62 65 67 68 69 68 68 69 69 71 71 72 73 73 77 77 75 76 74 73 70 70 71 70 66 66 61
88 88 89 87 86 85 85 84 83 82 81 85 83 80 76 75 74 76 79 83 81 80 80 78 76 74 71 69 71 74 76 78 78 76 73 71 72 76 79 78 76 73 69
77 78 77 77 77 79 79 79 80 83 86 86 85 86 85 84 84 82 83 85 88 89 89 88 88 87 85 81 79 78 76 77 80 81 79 77 76 78 80 82 82 84 79
64 66 64 64 65 65 66 69 70 71 73 78 78 79 82 85 84 84 84 89 92 90 91 93 94 94 91 93 93 91 88 86 86 86 87 84 80 84 87 87 86 91 88
52 52 52 52 50 49 47 45 44 46 49 52 57 59 61 64 69 74 79 85 87 88 91 93 95 90 85 88 93 96 96 94 91 91 95 88 86 84 85 90 93 97 98
49 48 46 44 41 37 35 35 34 31 30 30 32 35 35 37 40 44 50 57 66 73 76 78 79 79 83 88 92 95 94 95 95 97 97 99 93 86 88 92 95 97 99
53 47 42 38 36 33 30 27 25 24 24 24 25 24 25 26 27 28 28 31 34 45 52 58 64 65 68 74 82 85 86 98 98 97 95 95 97 98 97 98 98 97 99
47 43 38 34 30 30 28 26 25 25 25 26 26 27 28 29 29 29 30 33 35 35 38 44 54 59 62 70 70 71 81 98 88 89 88 91 96 97 97 97 98 97 96
40 38 37 37 35 32 31 31 30 30 31 31 32 33 34 33 34 35 36 37 39 41 45 46 46 53 59 63 75 74 78 74 77 98 95 97 97 94 97 96 97 96 96
45 44 42 41 39 38 37 37 37 38 38 37 37 37 37 38 39 40 41 42 44 47 50 54 56 56 54 60 65 84 83 91 84 85 96 91 84 90 93 96 96 97 96
49 47 47 47 45 45 45 45 45 44 45 45 46 46 46 47 47 48 49 51 53 55 55 56 58 61 67 68 70 81 81 88 82 82 81 79 85 89 94 95 93 89 85
56 54 53 52 53 52 52 52 51 52 53 53 52 53 54 55 56 57 59 61 62 62 63 64 65 66 69 73 83 86 85 86 90 94 92 91 91 87 86 82 77 75 72
59 59 58 60 60 59 58 58 59 58 58 58 58 59 61 63 64 64 66 67 67 67 68 70 74 78 80 84 85 89 93 93 91 87 84 80 76 73 69 65 62 58 54
65 65 65 63 63 63 64 64 63 64 64 65 67 68 69 71 73 73 74 73 73 74 77 79 82 84 86 88 86 85 82 79 75 71 66 61 57 53 49 45 43 40 37
69 68 68 67 67 68 68 67 68 70 71 72 72 74 75 77 77 76 78 78 79 80 80 72 65 59 56 53 50 47 44 41 37 35 33 31 29 27 27 26 25 24 23
70 69 69 69 69 68 68 68 68 67 66 64 63 62 60 60 59 57 53 47 42 40 37 36 34 34 33 32 31 29 28 27 26 25 25 26 26 25 24 22 21 21 21
62 62 61 60 58 56 55 54 53 52 50 48 47 48 48 45 42 40 40 41 40 39 39 37 36 36 35 34 33 32 31 30 28 27 25 23 23 22 22 22 22 21 21
60 59 57 57 56 53 52 49 46 42 40 41 41 40 40 41 41 39 38 37 36 35 34 33 33 33 32 31 30 29 28 26 25 25 25 24 24 23 23 22 21 21 21
61 59 57 56 54 53 51 49 48 47 45 45 44 42 41 39 37 35 35 34 33 32 31 30 29 28 27 26 26 25 25 25 24 22 21 20 20 19 20 20 21 22 24
58 58 58 57 55 53 51 49 47 46 45 44 42 41 39 37 35 35 34 34 33 31 30 28 27 26 26 25 24 22 20 19 19 19 19 20 20 22 23 24 25 27 27
59 57 55 52 50 49 48 47 45 44 43 41 39 37 36 35 35 33 32 30 29 28 27 27 26 24 22 21 21 21 21 21 21 21 22 24 25 26 27 28 29 29 30

GFSGL_prec_cthk_093.txt.gz
RH
57 49 38 24 28 35 36 39 43 47 49 51 54 61 67 69 72 75 75 69 70 75 79 84 83 74 71 76 84 94 91 94 92 89 91 92 91 89 88 88 89 90 89
62 57 43 27 28 35 36 38 41 46 50 52 55 56 58 62 64 64 65 62 66 67 69 69 71 75 75 78 82 87 86 89 88 79 82 85 86 86 83 83 83 84 85
71 71 51 42 32 34 36 38 40 42 44 48 51 53 57 60 63 64 65 66 68 71 73 74 76 78 77 78 78 77 76 77 80 79 73 77 77 76 74 74 75 77 78
77 77 72 58 53 46 46 45 42 42 44 45 48 49 51 53 56 59 61 64 65 67 69 70 69 68 68 70 71 69 71 73 73 74 71 67 70 66 70 65 67 69 66
86 89 89 77 71 68 62 61 59 55 53 54 53 50 51 52 53 56 60 62 64 66 67 68 69 70 71 71 72 70 73 73 73 71 70 67 66 67 67 68 67 65 65
90 95 96 93 86 81 80 85 84 82 82 81 75 72 67 61 62 64 64 64 64 64 64 66 66 68 68 71 74 75 78 79 77 77 76 78 76 77 78 79 77 75 70
92 99 96 91 92 88 87 87 87 86 85 83 84 85 83 83 77 76 78 76 77 79 80 80 80 80 81 82 82 82 82 83 84 83 77 75 78 81 82 80 78 77 74
95 98 98 97 97 96 95 92 90 87 85 83 82 85 84 84 87 86 85 86 86 87 86 87 88 91 92 92 93 93 93 95 95 95 95 95 93 87 84 83 83 81 81
86 87 89 84 82 86 88 86 83 81 81 80 80 80 81 80 80 82 82 85 86 90 93 93 89 89 89 93 94 90 91 94 95 98 98 96 96 97 96 98 98 95 89
71 67 70 69 64 62 60 60 61 62 63 61 60 62 65 67 68 68 68 71 74 77 80 75 73 76 80 81 82 83 85 89 88 91 96 94 94 94 99 99 98 99 99
66 59 56 51 49 49 47 46 43 42 41 42 41 39 38 36 34 31 29 28 31 37 41 45 51 55 57 60 65 69 72 77 80 84 81 87 95 89 94 94 98 99 99
69 66 59 48 45 43 42 41 42 42 42 39 36 33 31 29 26 24 24 24 26 30 32 34 34 34 34 36 41 49 55 60 65 74 86 76 76 73 94 86 97 96 91
61 60 57 56 55 55 53 47 40 37 34 30 29 29 27 27 27 27 28 29 29 31 34 35 36 37 39 40 41 42 45 50 51 64 65 66 76 79 86 75 78 96 89
55 56 51 47 45 43 41 39 36 35 34 34 33 33 32 33 33 33 34 34 35 36 38 39 39 41 42 43 45 47 50 54 55 56 59 61 64 69 79 79 79 86 78
53 49 47 49 46 42 39 38 38 38 39 39 39 39 40 39 39 40 39 39 40 42 43 44 44 45 45 46 48 50 52 54 57 61 65 67 68 73 75 79 89 87 88
57 54 52 50 47 45 44 43 43 44 44 45 45 46 46 45 45 46 46 46 47 49 48 48 49 51 52 54 55 57 59 61 63 64 68 71 75 79 80 77 77 74 77
55 55 54 53 52 51 50 50 50 51 52 51 52 53 52 51 54 53 53 55 56 56 56 58 59 60 62 64 65 68 69 71 72 72 71 70 69 67 67 69 70 70 66
58 58 57 55 55 54 54 55 55 55 56 56 57 58 59 60 60 60 62 64 66 66 66 67 68 70 72 72 73 74 73 72 71 71 69 69 67 63 60 58 56 54 50
61 60 59 58 57 56 57 57 57 59 60 61 61 62 63 64 65 65 67 70 71 71 72 72 70 65 59 53 49 47 48 47 45 43 41 40 39 36 35 34 33 32 31
62 61 61 62 62 63 64 64 62 62 63 64 63 63 63 62 60 59 59 56 51 43 38 36 35 37 40 40 36 34 32 31 31 31 31 32 32 32 32 33 33 32 30
66 66 66 66 64 63 63 61 59 57 55 52 49 47 43 40 38 33 31 31 31 30 36 40 40 39 38 38 38 38 39 39 38 37 36 34 32 32 29 27 27 26 26
58 58 57 57 57 56 55 53 51 49 45 41 38 36 33 32 33 33 34 35 37 37 37 36 36 36 36 36 35 34 33 32 31 30 28 27 26 26 25 25 25 25 25
57 58 56 55 55 55 55 51 49 47 46 44 42 41 41 40 40 40 39 38 36 36 34 33 34 33 33 33 32 31 30 29 28 27 26 25 25 25 24 23 22 22 21
67 67 65 62 60 59 57 56 54 53 51 48 46 45 44 44 42 40 38 37 36 35 33 33 32 32 31 31 31 29 27 26 25 25 24 23 23 22 22 21 21 22 22
64 64 63 62 61 60 59 57 54 52 50 49 47 46 44 42 40 39 38 36 35 35 35 34 33 32 31 29 28 27 27 26 24 22 20 20 21 22 22 23 24 24 25
56 54 52 51 50 49 48 46 45 45 46 46 46 46 44 41 40 39 38 37 36 35 33 32 31 30 29 28 26 23 22 22 22 22 22 22 23 24 25 26 27 28 29

GFSGL_prec_cthk_096.txt.gz
RH
63 70 66 49 35 33 36 35 39 42 44 48 52 60 65 68 75 80 83 86 86 84 78 78 78 79 75 81 78 73 70 77 82 88 89 85 86 89 87 87 85 84 84
67 74 68 54 38 33 38 38 39 43 45 48 50 54 62 66 72 74 73 75 78 73 71 69 70 65 65 66 68 68 65 71 75 76 82 85 82 77 76 79 79 80 79
75 78 73 62 42 34 39 41 40 43 46 49 51 52 56 60 62 63 64 66 67 65 63 62 64 66 67 69 69 68 68 70 75 76 71 73 72 76 76 74 72 73 72
81 84 79 70 60 42 41 41 42 45 48 49 52 54 56 57 60 64 66 67 68 67 66 65 68 68 66 69 69 72 76 77 78 75 70 66 68 64 68 64 65 65 63
86 87 86 81 77 62 49 49 49 49 51 52 52 54 56 59 62 61 61 62 62 63 63 64 65 68 71 73 75 74 78 80 80 80 80 74 70 71 69 70 70 69 70
89 91 89 87 88 82 70 57 54 53 55 58 59 60 67 67 66 64 61 61 63 63 63 64 66 68 71 75 77 78 80 82 83 83 83 83 78 78 78 79 79 79 74
98 97 97 94 94 96 91 85 77 74 75 79 84 84 79 78 76 75 74 74 75 76 78 79 79 82 84 84 83 85 86 88 90 90 89 88 89 92 95 94 94 93 87
99 99 99 99 96 97 98 96 96 94 93 93 93 91 89 88 87 89 90 89 91 93 90 86 88 90 91 90 91 92 95 98 97 98 99 99 98 97 98 96 97 96 98
94 96 96 96 97 98 99 96 95 96 97 95 93 93 90 87 86 88 92 93 90 89 88 86 86 85 83 85 93 92 94 93 92 86 90 92 90 90 93 97 97 98 97
93 90 91 89 88 93 96 94 97 96 95 95 91 87 83 82 79 76 76 76 76 77 76 78 75 74 73 70 68 67 68 70 70 69 71 78 77 75 76 71 73 94 91
82 79 80 80 81 77 74 70 71 70 69 68 68 66 61 55 52 49 47 46 46 46 42 40 38 36 34 35 37 40 43 48 53 57 62 62 63 64 65 64 69 69 78
84 84 73 68 64 59 58 62 60 57 56 51 47 46 43 41 38 36 34 33 31 32 33 34 34 33 33 33 34 36 38 40 43 43 44 48 51 51 54 56 59 60 65
69 69 71 77 77 74 69 64 57 51 46 44 43 44 45 42 41 38 35 31 29 29 30 31 32 32 33 34 36 36 39 42 45 49 51 52 52 52 53 54 55 56 59
66 65 62 62 58 55 57 61 57 56 56 54 49 46 44 40 37 35 34 34 33 33 33 34 35 35 35 37 38 38 40 41 43 45 49 51 52 53 53 55 57 59 61
59 59 57 53 54 55 57 55 55 53 53 52 51 50 46 42 42 41 40 38 38 38 38 39 39 39 40 41 41 43 44 45 47 49 51 54 57 58 58 59 60 62 63
60 59 57 56 56 55 52 49 48 48 48 47 45 46 46 45 46 44 43 42 42 43 44 44 46 47 47 49 50 50 50 51 54 56 58 60 61 62 66 64 64 64 63
60 61 61 61 60 57 55 55 55 53 52 51 51 51 52 52 51 50 49 50 50 50 50 51 53 55 56 58 58 60 57 57 58 57 57 59 62 63 65 66 66 64 63
67 66 65 63 61 58 57 57 56 56 54 54 54 53 53 53 52 52 52 52 52 53 56 58 58 59 60 60 57 54 53 52 48 48 46 45 50 49 47 47 46 44 40
63 63 61 60 59 58 57 57 56 56 55 55 55 54 53 53 53 53 54 53 55 55 54 50 46 43 38 35 33 33 29 28 28 30 33 35 37 38 37 40 39 33 43
66 65 63 62 62 62 61 60 59 60 60 58 55 53 50 48 45 43 39 35 30 28 28 29 30 28 28 29 29 31 35 35 36 36 37 39 41 42 44 42 40 40 39
67 66 65 64 63 62 59 57 54 52 48 44 40 37 36 31 29 29 28 28 28 29 29 28 28 29 30 30 32 33 32 32 30 31 32 35 30 38 36 36 36 34 29
60 58 56 55 54 53 53 50 46 43 39 37 36 34 33 33 34 34 34 34 33 32 32 33 32 32 31 29 28 28 29 28 28 28 30 29 35 36 36 35 33 32 32
56 57 56 54 52 52 51 51 49 48 45 44 44 44 42 41 41 40 39 38 37 36 35 34 34 33 32 32 31 30 30 30 29 29 28 29 33 34 33 32 32 31 29
60 63 61 60 60 62 62 60 55 53 53 53 50 48 46 44 43 43 43 42 41 40 39 38 38 37 35 34 33 33 33 32 31 30 28 28 30 32 32 29 28 25 27
51 50 49 51 51 50 49 46 45 44 44 45 45 44 42 40 39 39 40 41 41 41 40 40 39 38 37 36 35 34 33 31 30 28 25 23 23 23 24 28 25 29 29
46 46 47 47 45 45 46 47 46 45 44 43 42 41 39 39 39 39 38 38 37 37 36 36 36 36 34 32 29 26 25 25 24 24 24 24 25 28 30 31 31 33 33

GFSGL_prec_cthk_099.txt.gz
RH
56 62 67 68 66 58 44 39 40 42 42 42 50 56 61 68 78 80 97 96 95 91 90 94 90 88 88 83 81 82 83 84 74 74 77 75 82 92 93 90 87 81 79
60 66 70 72 70 60 48 42 41 42 44 42 49 54 60 65 70 77 81 85 88 87 86 87 83 76 75 75 81 79 71 68 68 67 68 66 69 71 73 73 72 74 72
66 69 73 76 72 62 55 42 40 41 44 46 48 51 57 63 68 76 76 79 80 77 77 79 73 70 68 66 70 68 69 68 65 64 60 66 64 65 68 67 66 67 68
73 74 78 79 74 65 59 47 45 45 46 48 50 51 54 58 62 64 68 69 68 68 67 67 68 68 70 70 70 68 69 69 71 72 70 72 75 74 75 73 73 73 72
76 76 81 84 80 69 66 58 47 49 50 51 53 55 57 57 55 57 60 63 64 66 67 69 70 71 68 68 70 73 73 76 81 83 83 84 81 82 84 87 87 85 84
84 84 84 84 81 76 73 68 61 49 52 53 53 57 57 56 58 59 63 65 66 67 69 72 72 72 73 74 74 74 77 81 84 84 84 85 82 84 86 87 89 91 89
90 89 90 87 89 88 84 83 76 64 52 55 58 58 61 59 60 66 74 77 80 78 74 72 75 73 73 76 79 82 85 86 87 87 86 88 89 91 95 97 98 94 96
94 94 96 93 94 96 93 92 89 84 76 67 60 62 64 70 84 86 84 84 82 83 83 84 85 85 88 92 93 96 98 95 96 97 98 98 98 96 97 99 90 89 98
94 95 99 99 96 97 97 96 97 95 96 92 86 84 80 90 96 96 96 95 94 94 94 95 94 93 93 92 92 93 88 86 83 84 86 84 80 77 73 74 70 73 85
98 97 97 97 98 98 98 95 98 96 99 99 95 97 96 97 99 97 99 96 94 91 94 93 92 90 88 85 83 77 72 71 68 65 63 59 55 53 51 54 52 59 62
95 94 97 96 98 97 93 93 98 95 96 98 97 96 96 96 95 91 86 82 80 77 73 69 67 64 60 54 46 41 38 38 39 40 41 41 41 41 41 42 44 44 46
94 98 98 91 89 87 89 92 87 85 86 77 75 75 73 70 69 64 61 57 53 50 48 47 45 42 39 37 36 37 35 35 37 39 40 41 42 42 43 43 44 44 44
85 87 89 92 92 85 84 77 71 72 72 74 68 71 70 65 57 52 47 45 43 41 42 43 43 40 37 35 35 34 34 36 37 38 38 40 41 42 42 43 44 44 44
77 75 72 71 72 76 79 82 85 87 83 80 77 70 63 59 55 56 55 53 54 49 46 41 38 36 35 35 35 35 36 37 37 38 39 40 42 42 43 45 46 47 49
65 64 65 70 69 66 68 72 69 69 70 68 68 67 67 64 62 57 53 51 51 50 49 47 45 43 41 41 40 41 41 42 42 44 46 48 49 50 50 50 51 54 54
64 63 60 58 58 58 58 59 59 59 58 58 59 60 58 57 54 52 50 48 46 48 47 46 46 46 47 47 48 50 49 48 50 51 52 53 54 53 54 54 54 52 51
66 66 66 65 63 63 62 61 58 57 56 55 54 52 51 50 50 50 51 51 50 50 51 53 53 53 53 52 52 53 52 48 48 48 48 46 44 40 37 36 35 33 32
70 68 68 68 68 67 66 65 63 63 61 58 58 56 55 55 55 54 53 54 52 52 53 53 52 51 49 46 43 38 34 32 31 30 30 30 29 30 32 32 28 32 35
75 75 73 71 70 68 66 64 63 62 60 58 57 56 54 53 52 51 51 51 52 50 46 42 37 34 33 32 32 32 32 31 31 31 30 31 31 33 35 37 37 35 36
75 74 74 72 70 68 66 64 63 61 60 58 54 52 52 49 46 40 38 39 38 37 36 35 35 34 34 34 34 34 35 35 34 34 34 34 35 34 34 34 34 33 33
70 70 69 68 67 65 64 61 59 56 54 52 41 38 36 42 41 39 38 37 37 37 36 37 37 36 37 36 37 37 36 36 36 37 36 35 34 34 34 34 34 34 33
67 65 63 60 58 57 57 56 54 53 51 49 48 42 42 45 44 44 44 42 42 43 44 44 44 40 35 37 37 40 41 35 33 32 37 39 39 38 38 38 37 36 37
60 60 61 61 60 60 59 58 57 57 56 55 55 54 54 54 53 53 54 53 51 46 42 42 41 41 40 41 41 40 38 37 36 35 34 34 40 40 38 38 37 34 33
49 49 49 50 50 51 52 52 51 49 51 51 50 50 51 52 52 52 46 42 45 41 38 38 37 37 37 37 38 38 37 36 36 35 34 34 37 39 37 34 31 31 29
53 53 52 52 52 52 52 52 52 51 50 49 49 49 49 49 48 48 46 41 38 39 39 37 36 36 36 36 35 33 33 33 32 32 30 27 29 24 29 28 29 29 31
45 46 46 47 48 47 48 48 47 47 47 46 46 45 45 44 44 43 40 37 35 34 34 35 33 32 30 30 27 26 25 24 23 23 23 23 26 31 31 31 32 32 33

GFSGL_prec_cthk_102.txt.gz
RH
50 52 50 61 64 61 63 59 53 45 36 37 43 50 57 60 68 83 87 91 89 94 95 94 96 95 89 88 88 87 91 92 85 86 80 72 72 74 76 77 82 89 83
53 52 59 64 66 66 67 61 56 49 38 37 40 48 56 61 66 76 81 94 94 97 97 96 93 92 92 86 83 82 81 81 79 76 73 69 65 68 67 66 68 69 68
58 60 63 71 70 73 74 64 61 59 45 39 41 47 57 61 66 67 73 76 88 90 92 89 96 88 85 83 80 79 75 73 70 69 68 64 61 68 70 71 71 71 68
67 70 68 75 76 81 82 70 66 62 55 43 44 50 56 59 65 72 70 76 78 80 85 78 81 81 85 76 72 69 68 69 67 65 64 68 72 79 80 80 81 83 84
68 69 73 76 80 83 83 75 65 66 62 50 48 51 52 55 58 63 67 70 73 74 75 74 74 70 70 70 70 70 67 66 66 69 70 73 76 84 89 89 89 90 91
72 76 78 81 83 85 85 79 74 73 69 61 52 52 51 52 56 60 63 65 67 71 72 70 71 73 72 72 70 70 71 73 75 79 79 80 83 85 83 86 88 89 89
82 82 84 84 86 89 88 80 81 82 80 77 68 57 56 55 57 60 63 66 67 66 67 70 71 71 71 72 75 74 76 77 77 78 82 85 86 87 89 96 97 96 98
89 88 92 94 94 93 91 90 86 86 84 83 79 73 61 61 62 64 65 66 67 69 74 79 79 78 75 75 76 78 85 90 92 93 92 91 95 94 95 91 95 95 95
92 95 98 99 97 97 95 94 95 92 91 90 85 80 79 70 68 67 67 71 73 77 82 82 83 84 85 90 93 93 93 93 93 96 94 90 86 83 78 74 73 71 62
96 99 97 95 95 97 97 97 99 98 98 99 98 89 86 86 80 82 83 85 86 95 96 93 94 99 98 99 99 97 99 94 95 96 85 73 68 64 57 54 49 45 43
98 97 96 96 96 96 97 97 99 98 96 98 97 98 98 99 93 92 95 93 94 94 98 98 99 93 92 90 83 82 77 65 57 50 46 43 42 42 41 41 40 39 38
96 96 98 95 98 97 96 95 98 97 97 98 98 98 98 95 93 97 96 95 89 92 83 79 72 66 61 56 50 47 44 43 43 45 44 43 43 41 39 38 36 36 37
85 90 91 92 94 95 97 96 98 98 92 95 96 95 91 89 85 82 78 75 73 65 63 65 60 54 48 46 44 42 41 44 45 40 37 37 37 38 38 37 38 39 40
66 70 78 84 85 87 92 95 95 95 96 98 95 95 90 83 79 74 71 71 69 64 64 62 56 52 51 47 48 48 46 42 39 41 41 42 43 40 40 42 42 43 43
67 65 64 66 69 75 77 81 83 86 88 88 88 90 91 93 93 91 89 86 83 80 76 71 66 62 59 55 53 52 52 51 50 46 44 44 44 46 44 43 43 44 40
73 69 66 65 65 65 66 64 66 67 68 68 69 71 71 71 69 72 73 73 73 72 67 62 59 55 52 49 45 43 43 44 45 48 48 47 46 43 43 40 35 30 26
74 72 71 71 70 69 67 66 64 63 61 61 61 63 64 60 59 60 63 63 64 61 58 56 54 52 51 49 47 46 43 40 37 32 29 27 26 25 22 21 23 25 25
78 78 77 74 73 71 71 72 69 69 68 66 66 65 64 63 61 61 61 59 59 56 54 52 50 47 43 38 33 28 25 24 25 24 23 23 26 25 25 27 24 20 25
80 79 78 76 77 75 74 72 73 72 71 69 68 67 65 62 60 58 56 54 50 45 40 36 34 33 32 30 31 31 27 28 29 27 26 26 28 31 29 28 29 30 29
75 77 77 78 78 79 79 78 77 76 72 66 61 59 56 50 44 40 38 37 36 36 36 33 31 31 32 33 31 32 31 28 30 31 31 30 32 34 35 34 35 36 35
68 66 65 65 65 64 63 62 62 60 57 51 44 44 47 44 43 40 37 37 38 38 38 36 33 33 32 34 35 33 31 31 32 32 34 38 40 40 41 42 40 41 40
61 63 60 59 58 57 59 57 56 54 53 52 49 45 47 46 45 44 41 41 40 40 40 40 38 36 35 35 36 37 37 36 35 35 36 38 41 43 42 43 42 41 41
53 53 55 53 52 51 50 49 49 50 50 49 50 50 49 48 49 50 48 48 45 42 41 40 40 40 39 37 36 35 34 33 32 32 33 33 37 38 39 42 41 40 39
56 56 55 54 53 54 53 52 51 49 49 49 48 48 47 47 46 45 40 38 39 36 35 34 33 33 33 32 32 33 34 34 34 34 34 33 33 34 35 34 34 32 31
48 50 50 50 51 51 52 51 51 51 50 48 47 46 45 45 45 45 41 37 36 36 35 33 33 32 32 31 31 31 32 32 32 30 28 27 26 26 28 30 30 30 29
41 42 43 45 45 45 45 46 46 46 46 46 46 46 45 44 43 42 41 35 34 33 34 33 29 29 28 26 25 24 23 22 21 21 21 22 22 22 24 26 29 31 32

GFSGL_prec_cthk_108.txt.gz
RH
49 47 48 51 59 62 66 64 60 61 55 56 62 53 54 49 45 47 52 58 69 86 96 99 98 98 98 97 98 96 96 93 90 87 90 92 93 92 91 88 84 84 81
59 55 60 64 66 73 73 70 74 76 63 60 65 54 59 56 47 50 52 58 68 89 97 98 97 99 99 97 96 95 96 96 92 93 91 92 92 93 94 91 88 81 78
66 64 67 69 69 80 82 77 80 84 67 65 67 58 65 63 51 52 54 58 66 80 95 98 97 98 99 99 96 95 96 97 97 93 90 90 92 94 95 91 86 76 73
72 75 75 66 65 81 80 80 82 85 66 68 69 63 69 69 59 56 56 57 62 72 82 94 96 97 95 96 96 97 97 95 93 90 86 90 91 88 89 85 77 72 70
73 78 83 78 75 71 85 80 89 75 74 71 72 67 72 74 68 61 61 60 67 67 77 84 92 96 98 98 98 97 95 99 94 86 84 86 86 87 80 76 69 72 76
83 81 78 91 79 77 68 71 73 79 83 74 74 68 74 76 73 68 66 62 65 64 74 78 83 88 94 98 99 92 98 98 92 86 78 79 78 78 76 72 70 77 81
80 82 84 90 94 83 82 98 95 98 93 84 77 79 76 77 75 75 71 65 63 62 69 73 80 82 84 87 95 91 86 85 80 82 74 76 74 71 71 73 78 83 84
85 89 88 87 87 88 80 80 97 95 83 87 84 86 86 84 80 78 77 76 73 67 69 66 72 74 80 83 85 82 79 78 77 78 77 75 75 76 81 83 85 82 85
84 82 90 96 94 90 82 77 93 82 99 93 89 92 91 87 86 83 82 84 82 81 73 75 68 72 77 69 82 81 75 77 77 77 79 81 77 81 84 82 88 96 98
83 84 90 94 97 95 98 92 97 92 99 93 99 91 96 93 94 92 91 91 89 86 84 84 78 74 73 77 74 78 81 81 81 83 85 90 93 95 93 92 94 99 98
67 80 86 92 97 97 97 94 98 99 99 94 98 98 97 92 95 94 98 96 94 93 92 89 90 86 89 91 93 93 90 87 85 89 95 96 98 97 98 97 97 90 77
57 60 68 87 93 95 96 98 97 96 98 98 98 98 98 97 96 94 99 99 99 98 97 98 98 99 92 95 94 92 93 94 93 95 98 98 94 90 90 71 64 57 53
59 60 62 64 67 78 94 98 96 96 97 97 97 96 98 98 88 95 94 98 97 98 98 98 98 98 98 98 98 99 96 95 94 91 90 83 76 65 57 56 53 48 46
64 61 58 63 65 67 67 73 83 91 96 98 97 96 96 96 97 97 97 96 98 97 97 97 95 96 97 96 96 96 90 91 88 79 77 74 68 63 63 67 70 67 63
60 62 63 63 65 67 66 67 67 68 72 73 80 89 94 95 95 96 95 96 97 97 97 96 96 95 91 92 91 89 87 87 84 83 83 82 81 79 76 73 70 64 57
56 56 56 57 58 64 68 70 69 68 70 67 66 68 72 76 79 85 89 92 95 96 96 96 96 96 95 97 97 97 96 94 92 88 84 81 77 72 65 58 51 44 38
59 58 57 57 57 58 60 63 66 70 70 70 73 73 71 69 68 68 69 74 78 79 79 81 83 84 84 82 84 84 80 78 76 70 63 54 49 45 43 42 39 35 31
63 63 63 63 63 63 62 62 64 66 71 74 75 75 75 74 73 72 71 70 69 68 69 70 70 69 68 63 58 54 50 48 46 45 43 42 39 38 35 33 32 31 30
63 64 64 65 66 68 69 69 69 68 69 71 73 75 76 78 80 78 76 71 65 60 56 51 48 46 44 44 43 42 42 41 39 38 36 34 32 31 29 28 29 30 30
51 52 54 56 61 63 64 65 65 64 62 62 64 64 60 58 59 59 58 56 53 50 50 50 48 47 45 43 41 39 38 37 36 35 34 34 33 33 33 34 34 32 30
49 50 49 49 51 51 52 53 53 52 51 51 55 56 52 48 46 46 46 46 45 45 45 45 45 44 43 41 41 40 40 38 38 37 36 35 35 34 34 33 31 28 28
46 48 49 50 49 52 52 52 53 52 50 48 47 45 44 43 42 42 42 43 43 43 42 41 40 39 38 37 36 35 35 33 32 31 31 31 31 31 30 30 31 30 29
40 42 44 46 49 51 54 54 55 56 55 53 51 51 50 48 45 42 40 39 38 37 35 34 34 33 33 33 33 32 31 31 30 30 30 30 30 30 29 28 29 29 28
34 36 39 41 45 47 48 48 48 50 51 52 51 50 50 49 47 46 43 40 39 38 36 35 34 34 34 33 33 32 32 32 31 30 29 28 27 26 26 25 24 24 24
28 29 31 34 39 41 43 46 47 47 47 47 47 46 45 45 44 44 42 40 37 36 34 34 35 34 33 32 32 32 31 29 28 26 24 23 22 21 20 20 20 21 22
28 29 30 32 34 38 41 42 43 46 46 45 44 43 42 42 42 42 41 40 39 37 34 32 31 30 29 28 26 25 23 21 21 20 20 20 20 20 20 21 21 21 22

GFSGL_prec_cthk_111.txt.gz
RH
69 66 61 54 53 60 62 61 61 67 70 74 73 60 54 61 56 53 53 42 45 54 61 69 85 98 97 97 97 97 96 95 94 92 92 92 88 87 89 90 87 85 85
71 71 66 59 57 60 57 61 63 69 81 79 84 67 60 63 55 58 56 44 47 54 60 72 92 98 98 98 99 98 97 97 97 97 94 93 92 94 92 95 91 92 91
58 62 69 71 70 62 62 63 67 74 82 85 88 79 69 66 57 61 58 49 48 54 63 72 85 96 98 98 98 98 98 97 96 96 93 94 93 94 95 92 93 94 95
69 77 75 80 83 75 68 64 75 83 86 88 88 92 75 70 63 63 63 57 50 55 65 73 78 89 96 98 98 99 97 97 97 97 97 97 96 97 97 95 95 96 94
70 78 78 75 74 81 78 71 73 77 84 87 90 96 76 73 62 68 68 65 55 55 63 69 76 82 89 98 98 98 98 97 97 97 98 97 96 95 92 95 95 95 97
70 78 81 79 78 78 77 73 70 72 76 87 87 96 79 77 71 71 73 70 67 59 61 64 69 76 80 90 96 97 97 98 97 97 99 98 97 93 92 91 93 94 95
71 71 80 80 79 81 84 93 86 89 93 99 98 97 78 78 80 77 79 77 73 72 67 70 71 78 78 81 92 93 94 99 99 97 99 99 98 91 89 84 82 82 81
77 78 78 80 84 85 88 89 95 80 84 96 92 85 84 90 85 85 84 83 78 81 77 73 69 70 70 80 83 87 94 95 95 95 95 89 88 86 87 78 80 81 82
77 78 80 83 85 86 85 95 96 91 97 98 98 99 96 95 97 94 89 88 84 81 81 83 82 75 82 70 77 78 92 84 88 92 91 85 81 77 78 81 83 82 83
57 72 80 82 81 83 87 94 94 92 89 97 99 99 93 98 97 97 99 98 93 89 83 80 87 94 86 85 87 71 73 80 75 79 83 88 81 79 81 84 85 84 87
50 50 54 68 78 81 85 90 93 94 92 96 95 94 99 98 98 98 95 93 98 98 93 91 92 92 90 93 93 90 91 81 81 75 78 86 92 89 86 90 93 96 98
50 53 54 53 54 63 78 86 91 94 95 95 97 97 98 98 98 98 97 99 94 96 99 99 98 98 97 97 97 97 94 97 94 89 91 90 93 96 95 97 96 98 97
53 53 53 54 55 56 59 63 70 83 91 93 95 98 98 95 97 98 97 98 98 98 98 98 93 96 95 94 98 97 98 98 99 96 98 97 98 98 96 92 91 87 82
50 49 48 50 52 55 58 60 61 64 67 78 88 91 95 94 97 98 98 97 96 98 96 98 95 97 96 93 97 97 97 97 98 97 97 96 93 89 86 82 78 77 73
47 46 46 47 47 49 51 56 60 64 69 71 69 73 81 81 86 92 94 95 97 96 97 98 96 96 94 93 95 96 96 97 97 96 93 92 89 87 86 88 86 83 79
51 51 50 50 50 50 50 51 53 55 58 64 69 71 73 75 76 77 80 84 90 96 95 93 95 96 97 94 94 95 96 97 97 97 97 97 96 95 91 86 80 73 65
54 54 54 55 55 55 55 55 55 56 57 58 59 62 65 67 69 70 72 70 71 75 74 80 86 90 92 93 93 93 92 92 91 90 88 84 78 72 69 63 60 58 54
54 54 55 56 57 58 59 60 62 63 63 63 64 65 65 65 66 68 71 71 70 70 69 66 69 67 67 67 68 67 66 64 63 61 60 58 55 52 50 49 47 44 41
40 42 45 47 49 51 53 55 59 61 62 64 66 67 66 65 66 65 66 65 65 63 61 58 56 54 52 49 47 46 46 45 45 46 47 47 46 45 44 44 42 40 38
38 39 40 40 41 44 45 46 48 49 49 50 53 55 55 54 53 52 50 49 49 49 50 52 53 52 52 52 52 51 49 47 46 45 44 42 40 40 40 38 37 34 32
34 34 36 37 38 39 42 43 44 44 44 44 45 46 44 44 45 46 47 47 47 46 45 45 46 46 45 44 44 42 42 42 41 41 41 40 38 37 36 34 34 34 32
32 33 34 35 36 39 40 42 44 45 45 46 47 48 48 46 46 44 43 42 44 45 45 45 43 42 40 39 39 38 37 37 36 35 35 34 34 33 32 32 32 32 30
29 30 30 31 32 35 38 40 41 44 47 49 50 51 52 51 49 47 46 44 43 42 40 39 37 37 36 35 34 34 34 34 34 33 33 33 32 32 31 30 30 29 27
25 25 25 27 28 31 34 36 38 40 42 46 48 48 48 50 52 51 50 49 47 45 43 42 42 41 41 39 38 38 37 36 35 35 34 33 32 31 30 28 27 25 23
28 28 28 28 29 30 33 35 37 38 38 39 41 43 45 45 46 46 46 45 43 43 42 41 40 38 37 37 36 35 35 34 33 32 32 30 28 25 23 21 20 20 19
29 29 31 32 33 34 36 39 41 40 39 39 39 40 42 43 42 42 42 42 41 39 38 37 36 36 35 34 32 31 30 28 27 26 24 22 21 20 20 20 20 20 20

GFSGL_prec_cthk_114.txt.gz
RH
71 68 66 65 63 63 66 70 69 70 66 63 66 68 69 71 72 67 59 61 60 57 54 47 48 56 66 79 91 98 97 97 97 97 94 91 91 88 82 79 74 71 71
75 71 70 69 66 63 62 65 68 68 63 65 66 66 67 72 81 77 63 60 58 58 57 49 47 54 70 83 92 96 99 97 97 95 94 95 94 89 88 81 81 82 81
76 78 80 77 73 68 66 68 68 69 69 68 69 69 71 81 89 84 74 64 59 61 58 53 51 57 68 80 95 98 96 98 97 96 96 96 97 93 90 90 90 87 91
74 78 80 75 75 69 66 65 66 68 68 66 66 74 82 88 92 88 81 72 63 64 61 58 54 59 64 76 91 97 94 98 98 98 97 96 97 96 94 95 96 95 95
71 74 77 76 71 70 75 81 80 78 79 76 74 80 90 93 95 98 87 79 71 70 66 63 61 59 62 70 85 93 95 98 98 97 98 98 96 96 96 95 95 95 97
71 72 73 75 76 73 79 73 81 83 83 81 80 84 86 86 96 93 94 89 73 75 72 67 67 63 64 73 78 85 89 96 98 97 97 98 96 96 94 97 98 98 95
78 79 76 74 79 83 84 78 72 78 77 74 77 75 78 93 93 92 99 93 78 73 76 72 74 71 66 62 83 86 88 92 99 97 96 97 97 97 98 99 97 97 88
78 79 80 79 79 80 83 83 83 83 87 93 95 88 96 98 99 94 99 94 85 80 80 80 77 81 78 66 77 76 85 87 92 98 97 95 93 95 94 96 98 98 97
57 64 74 79 82 82 81 84 89 88 89 96 97 92 93 97 93 96 99 94 90 86 84 82 84 83 88 83 75 67 76 97 90 89 98 99 98 99 98 98 96 90 83
51 51 54 59 69 78 83 85 87 88 86 99 95 96 96 97 96 97 98 99 96 91 93 89 90 86 90 86 89 88 85 83 79 94 82 95 99 88 91 97 94 93 86
49 52 52 51 51 53 63 75 82 85 86 88 92 91 94 98 98 99 99 97 98 97 95 95 97 96 92 92 90 86 96 93 89 89 86 79 85 86 82 84 89 85 81
52 51 49 49 49 50 51 54 59 69 78 82 84 84 88 92 96 95 97 97 98 98 97 95 96 96 98 98 96 96 96 99 95 94 94 95 96 92 96 93 99 93 95
49 47 46 46 47 48 49 51 54 55 58 62 68 77 86 88 88 90 94 94 95 97 97 97 97 96 96 97 98 97 99 97 98 98 97 97 96 95 98 97 99 98 98
47 46 45 44 43 42 43 44 47 51 54 57 58 61 67 73 82 89 88 91 94 96 97 96 97 97 97 96 98 98 96 98 98 98 97 97 97 97 98 97 97 97 97
48 47 47 47 46 46 46 46 47 48 48 50 52 55 58 61 65 66 74 84 87 93 96 96 97 96 96 97 98 97 96 98 97 97 96 96 97 97 97 95 93 91 88
52 51 50 49 49 49 50 50 51 51 51 50 49 49 51 52 55 59 65 68 69 76 81 86 93 96 96 96 96 96 97 96 96 97 96 97 96 96 96 96 95 91 87
40 41 42 43 45 47 49 50 50 51 51 53 54 54 54 53 54 54 55 58 59 64 70 73 72 74 81 87 92 93 94 95 96 95 96 94 93 91 86 80 78 76 72
34 33 32 32 34 37 38 39 41 45 47 49 52 55 56 57 58 57 58 60 60 61 61 61 61 64 66 63 63 66 68 67 68 68 68 66 64 62 61 59 58 57 55
32 32 32 32 32 34 35 35 35 35 36 38 42 44 45 47 49 53 54 55 53 51 51 49 48 48 48 49 50 51 50 50 51 50 48 49 49 48 48 48 48 48 46
28 29 30 30 31 31 31 32 32 33 33 33 33 32 32 34 37 41 43 44 45 47 47 48 48 48 47 48 49 49 50 50 50 50 49 49 49 49 47 46 45 44 42
28 29 29 29 31 32 33 33 34 35 37 36 34 34 35 35 35 35 38 41 43 44 44 45 46 47 47 47 46 46 45 45 45 45 45 45 44 44 43 42 41 40 40
24 26 27 27 28 29 31 32 33 34 36 38 39 40 39 38 38 39 39 40 41 42 43 43 43 43 44 44 44 44 45 44 43 44 43 42 42 40 39 37 35 33 31
24 26 27 26 27 27 28 29 31 32 34 36 38 39 39 39 41 42 43 43 43 44 43 43 43 43 43 42 41 40 40 38 37 36 36 35 35 35 35 34 33 33 33
24 27 28 27 27 28 28 30 32 33 35 35 37 38 37 37 39 41 42 42 43 43 43 44 45 46 45 44 43 42 42 42 41 40 39 39 39 38 38 37 35 34 32
26 27 27 27 28 29 30 31 34 36 36 37 37 37 37 36 37 39 42 42 40 39 39 41 41 42 43 43 42 42 41 41 41 40 39 38 37 36 34 32 29 26 24
28 28 28 29 31 32 33 35 37 39 40 41 40 40 39 38 38 38 37 38 38 39 39 38 38 38 38 38 38 38 37 35 35 34 32 31 29 27 25 24 23 22 22

GFSGL_prec_cthk_117.txt.gz
RH
76 74 73 71 68 71 70 72 74 76 76 77 76 75 77 80 79 81 79 75 70 70 61 64 61 61 58 54 55 58 73 87 93 96 95 97 97 95 98 93 82 79 77
69 67 66 63 62 65 65 67 66 72 76 79 79 80 81 81 78 76 77 75 77 80 72 68 63 63 61 56 55 58 70 92 96 98 96 99 98 98 95 93 91 91 85
76 77 79 75 73 74 70 69 69 70 73 77 78 79 81 80 77 74 74 76 80 85 85 75 65 65 62 59 58 62 70 86 98 97 98 97 99 98 94 93 94 92 87
85 87 88 85 83 83 81 76 75 74 74 75 79 80 81 82 82 79 76 78 88 90 92 82 66 66 64 61 62 62 68 82 94 96 95 97 98 97 97 95 93 92 89
81 81 80 80 78 80 77 78 87 80 71 73 77 73 72 73 73 72 72 85 92 94 93 87 75 69 68 67 65 64 68 81 91 94 93 98 97 97 97 97 95 94 95
81 77 78 80 83 79 79 79 78 76 74 76 77 79 82 80 78 74 79 86 97 98 93 90 84 75 73 70 70 69 68 72 87 92 94 95 96 96 98 98 96 96 96
77 79 77 76 75 75 78 82 80 80 80 86 86 82 85 84 79 80 85 91 85 98 97 96 91 81 79 75 73 75 72 70 78 76 84 94 94 95 96 98 97 97 96
66 72 76 77 79 81 80 82 81 83 86 84 81 81 81 81 80 85 87 85 92 97 98 95 93 86 79 83 78 78 75 74 77 78 80 90 97 96 97 98 97 98 98
52 52 54 59 68 77 81 83 81 83 82 84 85 85 89 86 90 90 91 94 96 97 99 99 94 90 82 86 83 83 82 84 75 76 82 82 96 97 99 99 98 99 99
50 51 49 50 50 52 57 66 77 83 84 86 89 88 90 90 95 95 94 97 97 97 98 98 98 94 92 92 93 93 90 88 89 85 75 91 95 89 92 99 98 99 99
47 47 47 48 48 49 50 51 53 60 70 81 83 83 85 86 92 92 94 94 97 96 98 99 98 99 96 91 96 96 96 95 90 89 87 88 87 81 88 83 83 97 98
46 46 45 45 46 48 50 51 52 52 52 54 59 69 77 81 82 87 92 96 97 98 98 98 98 98 98 99 99 98 97 95 96 97 88 91 99 95 88 91 94 92 89
48 48 46 46 44 43 43 43 43 44 46 48 50 51 54 61 68 78 82 84 87 91 93 95 96 97 97 98 98 99 98 98 98 98 98 96 98 99 98 98 98 97 98
46 46 45 44 43 42 43 44 44 44 43 42 42 45 47 50 53 57 63 67 77 82 86 88 90 94 96 96 98 97 97 97 98 98 98 97 97 98 98 98 98 98 98
44 43 42 43 43 44 44 44 45 46 46 45 45 45 44 42 43 44 47 52 58 64 69 77 83 88 92 93 96 96 97 96 97 96 97 97 96 97 97 97 97 97 97
33 32 32 33 35 37 39 40 42 43 44 45 45 45 46 47 47 46 46 46 46 50 54 60 65 70 77 86 93 95 96 97 96 96 96 96 96 96 97 97 96 96 97
27 27 27 26 27 28 28 28 29 31 34 38 40 43 45 46 47 48 49 50 50 51 52 52 53 55 59 64 71 80 85 94 95 95 96 96 96 95 93 89 87 83 81
24 24 24 24 24 25 25 26 26 26 25 26 27 29 32 36 39 43 44 48 50 49 49 48 48 48 48 49 51 52 53 59 62 65 71 72 72 72 71 68 67 65 64
23 24 24 24 25 25 26 27 27 27 27 26 25 24 24 25 28 32 34 35 36 38 40 40 40 41 42 42 42 42 43 43 44 47 48 48 49 52 53 53 53 53 51
26 28 28 28 28 29 30 30 31 31 31 31 30 28 27 27 27 27 28 29 30 31 33 37 40 40 39 40 42 43 42 42 43 44 45 46 48 48 47 47 46 46 47
24 25 26 26 26 27 28 29 29 29 30 30 30 30 30 30 30 31 32 33 34 34 33 34 35 37 37 39 40 42 42 41 42 44 45 45 46 46 47 48 48 48 46
24 25 26 26 26 27 28 28 29 30 30 31 31 31 31 31 32 32 33 33 33 36 37 38 38 38 37 37 36 37 41 44 45 45 46 47 48 48 47 46 46 45 44
25 26 27 26 26 26 27 29 31 32 33 33 33 33 33 32 32 33 32 32 34 36 37 38 39 39 38 38 38 38 38 39 41 43 45 44 43 42 41 40 39 38 37
25 25 25 25 26 27 27 29 31 34 35 35 35 35 35 35 34 34 34 33 33 35 36 37 36 36 38 40 42 43 44 44 44 45 45 45 46 45 44 43 42 41 40
26 26 26 25 26 27 29 31 32 35 38 39 39 39 39 39 38 37 36 35 34 35 36 37 36 37 37 38 38 39 41 42 44 46 47 46 46 45 44 42 41 39 37
28 29 30 32 33 34 35 36 37 38 39 40 41 41 41 41 40 40 39 38 37 36 35 35 36 36 36 37 38 38 38 37 38 39 39 40 39 38 37 36 34 31 29

GFSGL_prec_cthk_123.txt.gz
RH
98 98 98 98 97 92 86 85 91 82 76 76 74 74 71 68 69 71 74 79 84 84 89 94 87 89 87 82 76 74 74 73 75 62 61 52 52 54 70 82 92 98 93
96 91 86 91 91 94 97 94 89 83 78 79 77 77 77 77 72 73 78 78 77 80 85 86 86 86 88 87 89 84 82 83 83 76 71 66 53 55 63 79 92 97 98
90 95 91 91 96 97 93 88 84 81 78 73 75 78 76 73 73 76 80 79 84 87 88 91 88 88 86 90 93 87 80 82 84 83 75 78 61 58 64 70 91 97 98
98 98 95 90 90 83 86 85 83 80 78 74 77 78 76 75 77 81 81 81 83 83 84 88 88 88 88 90 90 89 86 84 88 80 78 80 65 63 67 76 85 96 97
94 87 83 84 79 80 86 83 73 72 72 79 82 75 70 71 76 80 83 83 82 83 84 85 86 87 88 90 90 90 88 99 96 90 83 83 72 68 65 80 88 93 93
75 74 71 70 74 75 71 71 72 82 81 81 79 78 79 80 83 82 84 82 80 79 77 81 83 84 90 89 89 85 89 88 94 94 90 85 81 76 71 79 86 91 91
72 72 65 66 71 67 75 78 77 79 79 78 82 84 86 83 87 87 89 88 89 89 88 86 86 78 83 89 88 86 86 87 87 92 91 87 89 83 78 73 71 83 87
55 54 62 66 68 73 74 72 74 79 78 76 76 78 81 83 86 86 86 88 86 83 87 90 80 80 86 89 89 99 89 92 92 91 94 93 88 88 82 78 78 81 80
64 64 59 57 53 49 47 50 58 68 73 77 77 75 77 79 80 79 81 84 83 83 85 82 83 81 89 91 89 89 89 93 92 98 98 94 93 91 96 84 84 82 77
48 46 47 47 43 42 42 45 46 45 47 49 51 60 68 72 74 73 74 77 82 85 85 83 84 87 88 87 87 97 90 94 96 98 98 97 98 96 98 96 92 85 82
38 36 35 34 33 34 35 36 37 38 39 40 42 43 43 45 48 54 62 69 73 76 80 86 90 97 97 97 95 98 98 99 98 99 98 98 98 95 98 94 91 93 87
38 37 37 36 36 36 36 34 32 32 33 33 33 34 34 34 35 38 42 48 54 62 72 81 84 87 94 93 94 95 98 98 98 98 99 99 98 98 99 98 99 96 97
28 27 27 27 27 28 28 29 26 26 29 30 31 33 33 34 34 35 35 37 39 42 47 54 62 70 78 81 91 97 97 97 98 98 98 98 98 98 99 97 98 98 98
24 23 22 22 21 20 21 22 23 19 23 26 24 26 27 30 31 33 35 36 37 39 40 42 44 47 53 59 67 75 84 94 97 97 97 97 97 97 97 97 98 97 98
19 19 19 20 20 20 22 20 22 19 16 16 16 21 22 20 22 25 29 31 34 37 41 43 43 45 47 48 51 55 63 69 77 86 92 96 96 96 96 97 97 97 96
20 20 20 21 21 21 22 27 27 23 23 22 19 16 16 16 17 19 21 25 29 33 38 40 43 45 46 48 51 53 55 58 62 65 70 78 83 91 95 97 95 95 95
24 24 24 28 29 28 28 29 28 32 32 27 26 24 20 19 18 18 19 23 28 28 32 34 38 42 45 47 48 50 53 56 58 60 62 64 68 74 79 83 88 93 94
20 27 27 27 28 28 28 30 34 34 34 33 30 26 23 24 23 21 19 26 30 31 32 33 34 35 37 39 40 42 46 49 50 50 51 53 57 61 66 69 72 76 85
28 28 28 28 31 32 37 38 38 38 37 37 36 32 24 24 27 27 28 29 30 31 32 34 32 33 35 37 37 37 37 37 38 40 42 43 44 45 45 44 43 45 49
29 29 30 30 39 39 39 39 38 38 37 37 36 33 26 25 31 31 29 28 30 31 31 33 32 32 32 34 35 37 40 40 41 43 42 42 42 45 43 42 42 42 42
32 37 35 40 40 39 38 38 37 37 36 36 36 34 29 26 33 34 32 28 28 29 30 31 33 33 33 34 34 35 36 37 40 42 44 44 43 46 47 45 44 44 43
35 38 38 37 36 35 34 34 34 34 35 36 35 35 33 34 34 35 34 28 27 28 28 29 31 33 34 34 34 35 37 38 39 40 42 43 48 50 51 50 51 49 47
35 37 37 34 34 34 34 34 35 36 36 37 38 37 37 37 37 36 34 31 30 29 29 30 31 32 33 34 36 38 36 34 35 34 40 45 48 50 54 57 54 56 51
38 37 36 35 36 37 38 38 39 40 40 41 41 43 42 42 41 40 40 39 34 34 33 33 33 30 28 28 30 32 34 35 36 37 38 45 50 52 54 53 53 50 52
37 37 37 38 40 42 44 46 47 48 48 48 47 47 47 47 46 46 45 44 40 38 37 36 35 35 34 30 30 32 34 34 35 36 39 50 49 52 48 52 52 54 51
38 40 42 45 49 51 53 54 55 56 56 56 56 55 53 52 52 51 50 49 48 45 42 41 39 38 34 38 35 33 33 34 35 37 40 49 51 51 51 51 47 52 52

GFSGL_prec_cthk_126.txt.gz
RH
90 68 45 61 79 89 91 92 96 97 86 87 88 92 85 96 80 85 81 81 79 80 86 85 80 82 87 82 88 89 89 96 85 71 75 78 79 75 75 68 66 63 68
92 76 63 64 85 99 99 96 98 89 90 92 87 91 91 84 85 81 78 84 85 85 84 88 86 91 90 82 78 80 81 83 84 84 83 81 82 84 81 70 76 69 63
90 74 88 81 83 89 98 97 97 90 94 96 90 88 88 85 86 84 84 86 86 84 87 88 90 93 93 85 82 80 80 79 80 87 92 87 84 81 85 76 75 74 68
89 94 80 89 93 96 95 93 94 89 93 92 94 93 90 88 86 90 90 89 86 84 86 83 86 88 87 86 83 82 81 79 82 85 96 88 84 92 87 80 78 76 67
91 91 85 95 98 95 84 91 98 98 96 98 92 91 92 98 97 98 96 91 87 88 89 89 87 88 86 81 77 77 78 81 81 82 97 91 94 86 94 88 81 81 72
88 89 91 85 96 98 98 98 98 96 90 93 96 94 96 96 93 87 83 81 83 86 87 86 85 84 83 81 79 80 81 78 98 96 84 87 78 87 90 92 89 85 79
71 71 70 74 86 85 94 94 94 90 90 88 87 84 84 85 81 85 85 84 87 87 86 84 88 85 81 80 84 84 84 84 80 77 82 80 81 84 85 89 93 90 83
58 57 63 69 65 63 67 71 73 79 82 79 75 78 76 76 78 80 80 87 91 93 90 89 91 90 87 84 82 87 94 88 75 77 83 89 88 88 88 90 94 95 92
58 58 61 59 54 55 53 52 51 47 48 49 53 61 67 72 74 74 74 77 79 81 84 85 85 85 79 77 85 83 86 80 81 80 81 84 88 89 93 93 98 97 89
33 36 37 36 35 35 36 36 36 36 37 37 37 37 38 39 44 50 55 59 65 70 73 74 77 81 82 86 87 87 84 84 80 86 82 94 95 93 97 98 97 99 95
34 32 30 29 28 28 28 28 29 30 31 29 29 30 30 29 30 30 32 35 40 45 52 59 66 71 73 79 87 86 85 85 86 89 88 90 92 93 98 99 99 99 98
25 25 24 24 23 21 17 15 15 17 19 19 22 24 26 28 29 29 30 33 35 36 36 39 41 48 55 64 70 75 80 90 97 97 97 95 96 97 98 99 99 99 98
18 17 18 16 16 16 14 13 11 10 10 10 11 12 13 16 19 24 27 28 31 34 36 36 37 39 41 42 47 56 64 68 76 86 97 93 94 96 97 98 98 98 99
16 17 15 16 16 16 15 15 13 12 12 13 12 10 11 11 11 12 13 16 20 24 30 33 35 37 40 42 42 43 45 49 56 64 71 78 91 96 97 96 97 98 97
19 17 16 19 19 18 19 20 20 19 18 18 16 16 14 13 14 13 14 15 17 20 25 28 30 33 35 37 40 45 47 49 50 51 55 59 64 73 85 92 95 96 96
16 20 20 22 22 21 21 22 23 23 23 23 22 21 20 19 20 16 16 22 24 25 26 27 28 30 32 34 37 40 44 47 49 52 54 56 58 61 64 68 79 83 93
18 24 21 23 23 24 24 25 25 28 31 33 32 26 23 18 24 24 19 24 26 24 27 27 28 30 32 33 34 36 38 41 46 49 52 55 57 58 60 61 63 66 72
22 26 22 24 24 25 26 28 30 33 35 34 35 34 26 26 24 25 25 22 24 26 28 29 29 29 30 30 30 32 33 36 37 39 40 43 47 50 54 60 63 65 66
25 26 25 25 25 28 29 30 31 34 34 34 34 34 30 26 27 30 26 25 27 28 28 30 30 30 30 30 30 31 33 34 36 38 39 40 41 41 42 42 42 45 50
27 27 26 26 28 30 28 30 30 27 32 32 34 34 32 28 26 29 32 27 27 27 27 29 30 30 30 30 30 31 33 33 35 36 38 39 43 46 46 42 41 40 40
29 29 28 28 30 33 32 30 28 34 33 32 32 35 34 32 32 33 33 31 28 27 27 27 28 28 28 28 30 32 33 33 33 34 34 39 43 46 46 47 45 42 42
31 31 30 30 34 32 32 31 34 33 32 34 34 34 37 37 36 35 35 35 31 30 29 28 28 27 27 28 29 30 31 30 28 34 38 39 42 44 46 45 47 45 45
30 36 34 34 35 35 32 35 35 34 38 40 41 41 42 48 46 43 40 39 38 36 34 32 31 30 27 28 29 26 25 26 29 32 39 40 41 47 48 49 48 49 49
34 38 38 37 36 37 38 39 40 43 44 46 48 49 49 51 51 51 49 47 45 44 40 37 36 34 32 31 28 27 26 26 29 32 37 44 44 46 47 49 50 51 49
35 36 39 41 41 42 43 46 49 49 50 51 53 55 56 57 56 56 56 55 52 50 47 45 43 41 39 34 32 32 30 29 31 34 38 41 42 46 49 55 58 54 50
36 39 41 44 48 50 51 52 53 55 56 55 53 54 58 62 65 63 63 63 60 58 56 54 51 47 44 40 38 37 34 32 32 33 36 39 44 48 50 52 52 53 53

GFSGL_prec_cthk_129.txt.gz
RH
96 91 71 90 78 64 59 48 59 82 97 89 98 95 86 85 85 74 81 86 90 88 87 84 84 83 85 91 91 90 82 84 89 84 92 89 88 80 78 78 78 78 74
97 97 89 71 78 70 59 57 71 92 99 90 99 99 90 99 95 98 98 96 95 89 90 92 89 86 90 96 92 84 88 82 84 89 90 89 86 85 87 84 80 78 77
98 98 99 85 82 84 63 69 82 87 95 86 97 94 87 98 89 93 96 91 90 92 93 93 95 91 93 94 93 91 89 87 85 90 86 83 85 86 87 89 83 81 80
98 98 99 95 88 80 65 76 73 98 98 99 98 97 98 97 95 95 94 95 96 94 91 87 92 92 90 90 89 88 88 88 90 91 90 91 82 83 87 92 90 82 84
98 99 96 99 95 85 74 81 94 90 94 97 98 98 97 97 98 96 96 98 98 95 90 90 92 93 93 91 90 90 85 82 84 80 82 88 87 89 89 85 91 84 80
83 91 93 92 94 82 87 78 85 94 92 96 98 99 97 98 98 98 96 95 98 99 94 92 91 92 88 86 89 91 89 87 85 84 81 83 84 94 98 86 91 83 74
65 68 65 67 67 70 70 78 89 95 97 96 96 93 95 95 95 92 92 89 87 84 81 80 82 83 86 83 80 81 80 81 82 81 79 84 87 89 92 84 81 77 75
54 56 54 49 50 46 49 48 57 63 63 70 75 81 77 80 81 78 79 79 80 81 82 82 81 79 82 84 84 83 81 84 82 83 79 82 88 94 81 77 77 79 79
32 33 35 38 40 39 34 33 35 39 40 45 49 51 52 52 52 53 57 61 64 67 69 70 67 71 75 77 79 81 80 81 80 77 79 85 85 94 94 76 81 80 81
32 32 28 23 21 19 21 24 26 27 28 29 28 26 26 26 27 30 34 36 39 43 47 50 54 58 63 65 67 72 76 77 83 82 84 91 86 83 80 76 84 87 82
26 22 21 17 14 13 12 11 11 11 12 13 14 16 18 20 21 23 24 25 25 28 29 30 32 34 38 43 48 55 62 70 75 83 85 87 89 85 86 84 90 85 88
18 17 17 16 14 11 10 10 9 8 8 8 8 9 9 9 10 12 15 18 20 22 25 26 28 31 31 33 34 36 38 44 53 63 70 77 85 87 88 87 88 90 94
15 17 19 19 19 19 17 16 14 12 12 11 11 10 10 10 10 11 11 12 14 17 21 24 24 25 26 29 32 36 37 39 41 41 44 51 61 69 78 91 96 95 97
17 19 21 20 20 20 21 20 18 18 18 17 17 16 14 13 13 12 12 13 14 16 21 21 21 22 22 23 26 29 33 35 38 40 43 44 45 48 55 63 74 88 95
17 16 17 19 19 19 20 20 22 22 22 21 20 19 17 17 19 22 22 23 23 23 23 20 19 20 21 23 25 28 31 33 35 37 41 44 48 49 50 51 53 58 67
17 18 18 20 22 21 22 22 26 27 28 28 25 23 24 23 22 21 16 20 21 22 21 22 23 24 23 24 25 27 30 34 36 38 40 42 45 48 49 51 54 55 55
19 21 19 20 22 24 23 22 22 24 27 32 32 27 24 23 22 21 20 16 19 20 22 23 25 26 26 27 27 29 29 30 32 35 37 40 44 45 48 50 50 54 57
21 24 22 22 23 24 22 22 22 22 22 25 31 29 26 25 26 23 19 17 16 17 22 24 25 25 26 28 30 31 31 31 31 32 33 35 37 38 38 41 46 50 54
21 25 24 24 25 24 24 24 25 24 29 31 30 31 30 26 25 22 21 20 20 19 21 23 24 25 26 27 29 31 33 33 34 34 35 35 36 36 36 37 37 37 40
21 25 24 25 26 26 25 23 23 25 26 27 30 32 31 31 30 31 28 25 23 22 22 23 24 24 25 25 25 27 29 32 34 37 39 40 39 39 37 37 38 38 39
22 25 27 26 27 27 26 26 25 26 26 26 29 31 32 34 35 35 35 33 30 28 27 26 25 25 25 25 24 24 27 30 31 35 38 39 39 40 41 41 41 42 42
29 28 31 30 30 29 30 30 30 31 31 32 32 33 36 37 39 40 41 41 40 39 38 34 30 29 28 27 24 24 24 25 26 30 38 39 41 41 41 41 43 45 44
36 35 32 32 34 37 38 36 35 35 36 35 35 36 38 40 45 47 47 46 47 47 46 43 39 37 35 32 30 28 26 26 26 27 35 41 44 44 46 45 43 43 44
38 36 34 34 38 41 39 37 36 37 39 42 44 44 43 42 43 46 52 53 53 53 52 50 47 45 42 40 37 34 32 29 29 29 33 40 43 47 50 49 46 46 47
36 37 37 40 42 41 40 39 39 42 46 49 49 49 51 52 51 49 48 52 55 56 58 56 55 53 50 47 44 40 38 34 31 31 35 38 41 44 45 47 50 53 54
37 37 39 41 40 39 39 39 40 42 45 48 49 50 51 55 58 59 58 54 52 55 60 60 59 58 57 53 51 48 44 39 36 34 37 39 40 44 44 46 49 53 52

GFSGL_prec_cthk_132.txt.gz
RH
83 85 82 75 65 64 77 64 53 53 45 41 39 57 81 92 91 90 80 82 78 77 71 69 70 74 74 74 82 89 92 90 94 87 77 75 79 89 91 87 90 92 89
87 91 79 90 96 86 86 70 64 59 52 34 47 69 88 92 99 96 92 85 86 77 74 73 76 82 83 84 96 91 91 93 92 88 85 75 79 86 89 89 88 88 91
96 96 96 90 98 90 96 89 86 75 65 49 49 67 80 84 90 97 87 96 94 81 80 81 93 94 90 85 85 87 97 98 97 96 91 85 81 83 82 84 80 81 83
97 96 97 97 97 96 88 88 88 88 80 63 64 76 97 98 98 99 97 97 98 98 93 92 99 92 91 90 88 92 91 94 94 94 91 87 85 84 86 83 81 81 81
89 94 97 97 95 96 95 98 98 94 89 72 69 81 91 93 96 98 97 96 98 99 98 97 99 98 92 96 93 97 92 91 89 94 93 86 85 87 82 80 79 80 80
71 71 70 84 96 97 98 94 96 91 88 76 78 77 80 96 98 99 98 98 98 99 99 99 98 93 93 94 92 95 96 94 90 90 88 85 85 85 82 79 81 80 80
54 50 58 62 64 70 75 78 76 77 81 82 81 87 97 99 98 96 98 98 98 97 97 97 95 92 93 90 97 91 89 84 81 78 76 76 76 81 75 82 77 81 85
32 36 35 34 33 36 41 47 53 48 47 52 57 64 69 72 77 86 89 86 85 86 86 86 89 89 86 84 79 77 79 81 78 79 74 73 72 73 79 80 82 76 78
29 26 24 24 22 25 27 26 25 24 29 31 30 37 42 45 48 49 51 53 56 58 60 60 60 61 63 66 63 65 69 69 67 70 72 71 71 76 76 71 74 76 80
22 20 18 15 15 14 13 12 12 13 14 15 17 17 19 23 27 28 29 28 27 27 29 31 33 36 40 44 47 48 50 52 55 61 66 70 72 73 73 76 77 77 80
16 14 13 13 13 12 11 11 10 9 9 8 8 7 8 8 8 9 11 12 14 17 20 22 25 27 28 29 30 31 33 36 40 44 46 52 58 64 70 73 74 76 82
14 15 16 15 15 13 12 11 9 9 8 8 9 9 9 9 9 9 10 10 10 11 12 13 15 17 17 20 22 25 27 29 32 34 36 37 39 42 47 54 62 72 77
16 16 17 16 15 14 13 13 11 10 10 11 11 11 10 9 8 9 10 10 10 10 12 15 16 16 16 16 18 20 22 23 25 28 30 33 36 40 41 41 41 46 53
17 16 16 15 16 15 15 15 15 14 15 14 13 13 12 12 14 12 10 11 11 12 12 13 14 16 17 18 18 20 22 25 26 27 28 29 31 32 36 40 40 41 42
18 18 18 18 19 19 19 18 18 18 17 18 17 17 15 15 18 18 13 15 15 16 16 15 14 13 14 15 16 18 18 22 26 30 31 32 33 33 33 36 39 40 41
21 19 19 19 20 21 21 22 23 22 21 21 19 18 18 20 20 20 13 12 11 12 12 13 13 14 15 16 18 19 20 22 24 26 29 32 34 35 37 37 37 40 42
23 23 26 27 26 24 24 23 21 20 22 25 24 22 22 21 20 16 14 13 12 10 11 12 12 13 14 15 16 19 20 23 26 28 28 29 30 31 31 36 41 43 45
24 24 25 25 25 25 25 24 25 27 26 25 25 24 24 24 23 19 18 17 14 13 13 14 14 15 16 16 16 17 19 21 24 27 30 31 31 32 33 33 33 35 44
25 26 26 25 25 25 25 25 24 25 25 25 26 28 27 27 30 32 29 25 23 21 20 19 18 18 18 18 18 17 18 21 24 26 29 31 33 35 37 37 39 36 35
29 29 29 28 27 27 27 26 26 26 26 26 26 26 26 27 29 33 32 32 32 30 29 28 26 24 23 21 20 19 19 19 21 23 27 31 36 38 39 41 41 42 40
36 35 32 30 31 30 30 31 30 29 29 30 30 29 29 30 31 33 35 35 34 34 34 34 32 30 28 28 27 25 23 22 21 22 26 32 37 38 40 41 42 44 46
40 36 33 30 28 31 34 35 35 34 35 35 34 34 34 35 34 33 33 35 37 38 40 40 39 37 36 34 33 31 29 26 25 24 27 34 39 41 41 42 45 46 47
38 34 29 28 30 33 34 34 38 38 37 35 34 37 38 38 40 42 40 40 39 40 42 44 46 44 42 42 40 38 36 33 29 28 28 35 40 42 45 47 45 43 43
33 30 29 32 34 34 35 36 37 36 35 34 35 37 38 39 42 46 47 47 48 46 44 45 50 50 47 47 46 44 43 40 36 33 33 35 38 41 44 48 49 47 45
32 30 34 36 36 35 35 35 36 35 36 37 38 40 42 42 41 46 50 53 54 54 52 47 49 55 57 55 53 49 49 47 42 39 37 38 40 41 42 46 48 50 53
32 35 36 33 30 29 30 30 30 30 32 34 38 41 45 46 47 49 49 52 58 62 62 57 53 54 59 62 62 55 53 52 49 45 43 42 42 42 43 45 47 50 51

GFSGL_prec_cthk_135.txt.gz
RH
78 77 77 83 83 71 67 98 91 78 62 50 44 36 32 23 24 44 86 91 94 88 88 74 72 74 72 64 62 62 67 67 68 65 76 84 85 83 81 80 91 92 91
86 84 84 93 89 81 70 91 92 80 67 56 49 47 36 42 45 37 64 84 87 95 96 88 92 85 66 70 69 67 70 67 72 79 86 89 89 87 85 84 87 92 89
93 93 91 89 89 92 96 75 79 87 84 73 64 55 48 48 49 54 66 75 90 97 97 92 86 77 75 75 77 77 78 81 80 84 96 86 88 90 89 85 82 85 83
73 87 94 95 95 97 98 95 94 86 85 84 70 60 57 54 71 64 65 76 95 95 97 99 88 90 85 83 83 82 87 83 90 87 96 95 98 94 91 89 84 85 83
57 65 74 95 97 97 97 96 97 98 91 85 96 81 71 79 84 77 74 77 89 98 97 95 99 97 99 94 95 92 97 90 98 95 99 96 94 95 94 88 86 82 82
39 40 45 55 73 90 90 96 97 98 98 99 98 91 77 83 80 72 85 91 93 98 98 98 99 98 98 98 98 98 97 98 98 100 94 99 93 96 95 94 87 82 89
34 36 36 34 34 44 54 60 72 73 76 88 95 98 93 80 74 68 80 82 89 98 97 97 95 95 96 96 98 95 99 98 98 99 96 98 98 90 89 90 84 82 80
31 28 27 33 30 27 26 33 31 34 38 42 50 58 59 57 60 56 61 69 82 90 92 94 94 95 95 97 94 97 95 93 95 96 97 97 97 90 82 77 74 69 70
32 28 24 20 16 18 19 17 14 19 19 21 25 27 30 37 39 37 38 38 40 44 45 50 55 59 63 67 70 68 69 72 76 80 78 74 75 76 73 69 68 70 67
16 15 13 13 14 14 13 11 10 10 11 13 16 15 22 22 22 22 19 20 24 31 31 30 32 34 35 35 37 43 46 46 48 50 49 47 49 53 59 61 63 66 68
15 13 13 13 13 13 12 12 11 11 11 12 12 13 11 12 12 13 16 16 11 10 10 14 19 20 20 20 19 21 24 28 34 37 34 34 33 34 36 37 41 44 53
15 15 15 15 14 12 12 12 13 13 13 13 11 11 11 10 10 12 10 8 8 8 9 10 10 11 12 14 15 17 19 20 20 20 22 23 27 30 33 34 35 37 39
14 16 17 17 16 16 16 15 15 15 15 15 14 12 14 14 10 9 8 9 10 10 11 11 11 11 10 10 10 11 12 15 17 20 22 23 24 25 27 30 31 33 35
17 18 19 18 18 17 17 18 18 20 21 18 14 13 15 15 15 10 9 8 8 8 9 10 10 10 10 10 10 10 11 13 15 18 20 23 25 27 28 29 30 32 33
18 19 18 18 17 18 19 18 18 20 23 20 18 16 16 18 20 17 12 9 8 8 8 7 7 7 7 7 8 9 10 12 13 15 16 17 19 22 26 31 34 35 36
21 22 22 22 22 21 20 19 19 20 22 21 17 18 19 21 21 18 12 11 10 9 8 8 7 8 8 8 9 9 10 12 14 16 18 19 19 19 21 24 28 35 38
24 24 27 28 26 25 23 20 18 20 21 20 20 20 24 24 24 23 22 18 16 13 12 11 11 10 10 10 10 11 10 12 15 17 18 19 20 20 22 23 25 27 29
30 34 36 35 30 28 26 23 22 22 20 19 19 19 19 18 19 23 19 18 16 15 15 15 15 14 13 12 12 12 11 11 12 14 16 19 21 23 23 25 26 27 29
37 36 35 33 32 31 29 27 26 25 23 22 22 21 20 21 20 20 19 19 20 21 21 21 20 19 18 17 17 16 16 14 14 14 17 19 23 26 27 29 30 32 33
39 38 37 36 33 31 32 33 33 34 33 33 33 33 31 29 27 25 22 20 20 21 22 23 24 24 23 22 22 21 20 19 18 18 18 20 26 29 31 32 35 35 35
42 41 38 32 29 29 30 30 30 31 33 34 34 35 38 38 39 40 39 36 35 32 30 29 30 30 29 27 26 26 25 25 24 23 22 23 29 31 35 39 40 38 37
46 42 37 31 29 28 27 28 30 31 31 30 29 28 30 34 36 35 38 40 41 41 38 36 34 34 35 35 33 32 31 30 29 28 27 27 31 35 40 41 42 40 38
44 38 32 30 29 29 30 30 31 31 31 30 29 28 29 30 31 32 31 34 39 43 46 43 39 38 39 41 43 42 39 36 34 33 32 33 35 38 42 43 41 41 42
36 31 29 27 28 29 29 30 31 30 29 28 27 27 28 29 31 33 35 37 39 44 51 51 49 45 44 44 46 49 48 45 42 39 37 35 39 41 41 41 41 43 46
32 30 28 28 27 28 29 28 27 26 25 24 24 25 26 29 31 34 36 39 42 44 50 55 57 56 54 51 49 49 54 53 50 47 44 42 43 45 45 44 44 45 46
34 31 30 31 31 30 29 26 25 24 24 24 25 28 31 33 34 36 38 41 45 49 52 59 62 65 64 61 55 52 56 59 58 54 51 50 48 46 45 45 45 46 48